<?xml version="1.0" encoding="UTF-8" standalone="no" ?>
<gpx xmlns="http://www.topografix.com/GPX/1/1" xmlns:xsi="http://www.w3.org/2001/XMLSchema-instance" xsi:schemaLocation="http://www.topografix.com/GPX/1/1 http://www.topografix.com/GPX/1/1/gpx.xsd" version="1.1" creator="VisuGPX - https://www.visugpx.com">
  <metadata>
    <name>Téléthon 35km 2012</name>
    <desc><![CDATA[Circuit facile, avec un peu trop de bitume à mon gout. A faire en début de saison.]]></desc>
  </metadata>
  <trk>
    <name><![CDATA[Téléthon 35km 2012_1]]></name>
    <trkseg>
      <trkpt lat="45.41302" lon="4.73007">
        <ele>158.27416992188</ele>
        <time>2012-10-13T07:47:54Z</time>
      </trkpt>
      <trkpt lat="45.41301" lon="4.73007">
        <ele>158.75476074219</ele>
        <time>2012-10-13T07:47:55Z</time>
      </trkpt>
      <trkpt lat="45.41301" lon="4.73008">
        <ele>158.75476074219</ele>
        <time>2012-10-13T07:47:56Z</time>
      </trkpt>
      <trkpt lat="45.41301" lon="4.73021">
        <ele>160.19689941406</ele>
        <time>2012-10-13T07:48:02Z</time>
      </trkpt>
      <trkpt lat="45.41308" lon="4.7303">
        <ele>163.08081054688</ele>
        <time>2012-10-13T07:48:07Z</time>
      </trkpt>
      <trkpt lat="45.41318" lon="4.73043">
        <ele>165.96472167969</ele>
        <time>2012-10-13T07:48:13Z</time>
      </trkpt>
      <trkpt lat="45.41324" lon="4.73058">
        <ele>165.96472167969</ele>
        <time>2012-10-13T07:48:18Z</time>
      </trkpt>
      <trkpt lat="45.41333" lon="4.73082">
        <ele>168.36804199219</ele>
        <time>2012-10-13T07:48:25Z</time>
      </trkpt>
      <trkpt lat="45.41342" lon="4.73108">
        <ele>166.92602539062</ele>
        <time>2012-10-13T07:48:32Z</time>
      </trkpt>
      <trkpt lat="45.41346" lon="4.73121">
        <ele>166.92602539062</ele>
        <time>2012-10-13T07:48:37Z</time>
      </trkpt>
      <trkpt lat="45.41354" lon="4.73122">
        <ele>169.81005859375</ele>
        <time>2012-10-13T07:48:43Z</time>
      </trkpt>
      <trkpt lat="45.41357" lon="4.73123">
        <ele>170.29064941406</ele>
        <time>2012-10-13T07:48:45Z</time>
      </trkpt>
      <trkpt lat="45.4137" lon="4.73121">
        <ele>173.17468261719</ele>
        <time>2012-10-13T07:48:52Z</time>
      </trkpt>
      <trkpt lat="45.41379" lon="4.73127">
        <ele>175.57788085938</ele>
        <time>2012-10-13T07:48:57Z</time>
      </trkpt>
      <trkpt lat="45.4138" lon="4.73144">
        <ele>175.57788085938</ele>
        <time>2012-10-13T07:49:01Z</time>
      </trkpt>
      <trkpt lat="45.41378" lon="4.73151">
        <ele>175.09729003906</ele>
        <time>2012-10-13T07:49:03Z</time>
      </trkpt>
      <trkpt lat="45.41371" lon="4.73173">
        <ele>173.6552734375</ele>
        <time>2012-10-13T07:49:09Z</time>
      </trkpt>
      <trkpt lat="45.41369" lon="4.73196">
        <ele>173.6552734375</ele>
        <time>2012-10-13T07:49:14Z</time>
      </trkpt>
      <trkpt lat="45.41373" lon="4.73224">
        <ele>175.09729003906</ele>
        <time>2012-10-13T07:49:20Z</time>
      </trkpt>
      <trkpt lat="45.41377" lon="4.73243">
        <ele>175.57788085938</ele>
        <time>2012-10-13T07:49:25Z</time>
      </trkpt>
      <trkpt lat="45.41376" lon="4.73264">
        <ele>172.21325683594</ele>
        <time>2012-10-13T07:49:30Z</time>
      </trkpt>
      <trkpt lat="45.41377" lon="4.7329">
        <ele>167.40673828125</ele>
        <time>2012-10-13T07:49:36Z</time>
      </trkpt>
      <trkpt lat="45.41378" lon="4.73318">
        <ele>165.00341796875</ele>
        <time>2012-10-13T07:49:42Z</time>
      </trkpt>
      <trkpt lat="45.41379" lon="4.73351">
        <ele>167.40673828125</ele>
        <time>2012-10-13T07:49:49Z</time>
      </trkpt>
      <trkpt lat="45.41381" lon="4.73379">
        <ele>168.84875488281</ele>
        <time>2012-10-13T07:49:55Z</time>
      </trkpt>
      <trkpt lat="45.41385" lon="4.73401">
        <ele>171.25207519531</ele>
        <time>2012-10-13T07:50:00Z</time>
      </trkpt>
      <trkpt lat="45.41388" lon="4.73422">
        <ele>170.29064941406</ele>
        <time>2012-10-13T07:50:04Z</time>
      </trkpt>
      <trkpt lat="45.4139" lon="4.73466">
        <ele>169.81005859375</ele>
        <time>2012-10-13T07:50:11Z</time>
      </trkpt>
      <trkpt lat="45.41389" lon="4.73472">
        <ele>168.84875488281</ele>
        <time>2012-10-13T07:50:12Z</time>
      </trkpt>
      <trkpt lat="45.41388" lon="4.73484">
        <ele>165.96472167969</ele>
        <time>2012-10-13T07:50:14Z</time>
      </trkpt>
      <trkpt lat="45.41393" lon="4.7351">
        <ele>162.60009765625</ele>
        <time>2012-10-13T07:50:19Z</time>
      </trkpt>
      <trkpt lat="45.41394" lon="4.73522">
        <ele>163.5615234375</ele>
        <time>2012-10-13T07:50:21Z</time>
      </trkpt>
      <trkpt lat="45.41393" lon="4.73534">
        <ele>161.63891601562</ele>
        <time>2012-10-13T07:50:23Z</time>
      </trkpt>
      <trkpt lat="45.41395" lon="4.73561">
        <ele>160.67749023438</ele>
        <time>2012-10-13T07:50:27Z</time>
      </trkpt>
      <trkpt lat="45.41398" lon="4.73576">
        <ele>157.31286621094</ele>
        <time>2012-10-13T07:50:31Z</time>
      </trkpt>
      <trkpt lat="45.414" lon="4.736">
        <ele>157.79357910156</ele>
        <time>2012-10-13T07:50:37Z</time>
      </trkpt>
      <trkpt lat="45.414" lon="4.73603">
        <ele>156.83215332031</ele>
        <time>2012-10-13T07:50:38Z</time>
      </trkpt>
      <trkpt lat="45.41396" lon="4.73619">
        <ele>158.27416992188</ele>
        <time>2012-10-13T07:50:43Z</time>
      </trkpt>
      <trkpt lat="45.41379" lon="4.73634">
        <ele>160.67749023438</ele>
        <time>2012-10-13T07:50:48Z</time>
      </trkpt>
      <trkpt lat="45.41375" lon="4.7364">
        <ele>162.11950683594</ele>
        <time>2012-10-13T07:50:50Z</time>
      </trkpt>
      <trkpt lat="45.41369" lon="4.73643">
        <ele>162.60009765625</ele>
        <time>2012-10-13T07:50:52Z</time>
      </trkpt>
      <trkpt lat="45.41365" lon="4.73659">
        <ele>164.52270507812</ele>
        <time>2012-10-13T07:50:56Z</time>
      </trkpt>
      <trkpt lat="45.41367" lon="4.73694">
        <ele>163.5615234375</ele>
        <time>2012-10-13T07:51:01Z</time>
      </trkpt>
      <trkpt lat="45.4136" lon="4.73706">
        <ele>163.5615234375</ele>
        <time>2012-10-13T07:51:05Z</time>
      </trkpt>
      <trkpt lat="45.41343" lon="4.73703">
        <ele>164.52270507812</ele>
        <time>2012-10-13T07:51:09Z</time>
      </trkpt>
      <trkpt lat="45.41329" lon="4.73704">
        <ele>165.48413085938</ele>
        <time>2012-10-13T07:51:12Z</time>
      </trkpt>
      <trkpt lat="45.41315" lon="4.73703">
        <ele>163.5615234375</ele>
        <time>2012-10-13T07:51:16Z</time>
      </trkpt>
      <trkpt lat="45.41306" lon="4.73709">
        <ele>164.04211425781</ele>
        <time>2012-10-13T07:51:20Z</time>
      </trkpt>
      <trkpt lat="45.41306" lon="4.73725">
        <ele>163.5615234375</ele>
        <time>2012-10-13T07:51:25Z</time>
      </trkpt>
      <trkpt lat="45.41304" lon="4.73735">
        <ele>162.60009765625</ele>
        <time>2012-10-13T07:51:27Z</time>
      </trkpt>
      <trkpt lat="45.41315" lon="4.73747">
        <ele>162.11950683594</ele>
        <time>2012-10-13T07:51:32Z</time>
      </trkpt>
      <trkpt lat="45.41349" lon="4.73748">
        <ele>161.63891601562</ele>
        <time>2012-10-13T07:51:41Z</time>
      </trkpt>
      <trkpt lat="45.41376" lon="4.73749">
        <ele>161.158203125</ele>
        <time>2012-10-13T07:51:49Z</time>
      </trkpt>
      <trkpt lat="45.41407" lon="4.73751">
        <ele>161.158203125</ele>
        <time>2012-10-13T07:51:58Z</time>
      </trkpt>
      <trkpt lat="45.41434" lon="4.73755">
        <ele>160.19689941406</ele>
        <time>2012-10-13T07:52:05Z</time>
      </trkpt>
      <trkpt lat="45.41444" lon="4.73767">
        <ele>160.19689941406</ele>
        <time>2012-10-13T07:52:08Z</time>
      </trkpt>
      <trkpt lat="45.41449" lon="4.73778">
        <ele>160.19689941406</ele>
        <time>2012-10-13T07:52:10Z</time>
      </trkpt>
      <trkpt lat="45.41459" lon="4.73807">
        <ele>160.19689941406</ele>
        <time>2012-10-13T07:52:15Z</time>
      </trkpt>
      <trkpt lat="45.41465" lon="4.73827">
        <ele>160.67749023438</ele>
        <time>2012-10-13T07:52:18Z</time>
      </trkpt>
      <trkpt lat="45.41478" lon="4.73876">
        <ele>152.50634765625</ele>
        <time>2012-10-13T07:52:25Z</time>
      </trkpt>
      <trkpt lat="45.41481" lon="4.73883">
        <ele>151.544921875</ele>
        <time>2012-10-13T07:52:26Z</time>
      </trkpt>
      <trkpt lat="45.41499" lon="4.7391">
        <ele>152.02575683594</ele>
        <time>2012-10-13T07:52:31Z</time>
      </trkpt>
      <trkpt lat="45.41515" lon="4.73919">
        <ele>153.46765136719</ele>
        <time>2012-10-13T07:52:34Z</time>
      </trkpt>
      <trkpt lat="45.41559" lon="4.73929">
        <ele>153.94836425781</ele>
        <time>2012-10-13T07:52:42Z</time>
      </trkpt>
      <trkpt lat="45.41607" lon="4.73932">
        <ele>152.98693847656</ele>
        <time>2012-10-13T07:52:51Z</time>
      </trkpt>
      <trkpt lat="45.41652" lon="4.73934">
        <ele>152.02575683594</ele>
        <time>2012-10-13T07:53:00Z</time>
      </trkpt>
      <trkpt lat="45.41697" lon="4.73937">
        <ele>154.90954589844</ele>
        <time>2012-10-13T07:53:09Z</time>
      </trkpt>
      <trkpt lat="45.41734" lon="4.73943">
        <ele>155.39025878906</ele>
        <time>2012-10-13T07:53:17Z</time>
      </trkpt>
      <trkpt lat="45.41767" lon="4.73946">
        <ele>155.87097167969</ele>
        <time>2012-10-13T07:53:24Z</time>
      </trkpt>
      <trkpt lat="45.41808" lon="4.73955">
        <ele>154.90954589844</ele>
        <time>2012-10-13T07:53:32Z</time>
      </trkpt>
      <trkpt lat="45.41854" lon="4.73967">
        <ele>152.02575683594</ele>
        <time>2012-10-13T07:53:41Z</time>
      </trkpt>
      <trkpt lat="45.41891" lon="4.73975">
        <ele>153.46765136719</ele>
        <time>2012-10-13T07:53:48Z</time>
      </trkpt>
      <trkpt lat="45.4191" lon="4.73984">
        <ele>156.3515625</ele>
        <time>2012-10-13T07:53:52Z</time>
      </trkpt>
      <trkpt lat="45.41935" lon="4.73988">
        <ele>156.3515625</ele>
        <time>2012-10-13T07:53:57Z</time>
      </trkpt>
      <trkpt lat="45.41976" lon="4.74005">
        <ele>154.90954589844</ele>
        <time>2012-10-13T07:54:05Z</time>
      </trkpt>
      <trkpt lat="45.42023" lon="4.74028">
        <ele>153.94836425781</ele>
        <time>2012-10-13T07:54:14Z</time>
      </trkpt>
      <trkpt lat="45.42061" lon="4.74044">
        <ele>152.98693847656</ele>
        <time>2012-10-13T07:54:21Z</time>
      </trkpt>
      <trkpt lat="45.42107" lon="4.74068">
        <ele>152.02575683594</ele>
        <time>2012-10-13T07:54:30Z</time>
      </trkpt>
      <trkpt lat="45.42144" lon="4.74086">
        <ele>152.50634765625</ele>
        <time>2012-10-13T07:54:37Z</time>
      </trkpt>
      <trkpt lat="45.42173" lon="4.74112">
        <ele>155.87097167969</ele>
        <time>2012-10-13T07:54:43Z</time>
      </trkpt>
      <trkpt lat="45.42207" lon="4.74138">
        <ele>152.50634765625</ele>
        <time>2012-10-13T07:54:50Z</time>
      </trkpt>
      <trkpt lat="45.42241" lon="4.74162">
        <ele>152.02575683594</ele>
        <time>2012-10-13T07:54:57Z</time>
      </trkpt>
      <trkpt lat="45.42282" lon="4.74196">
        <ele>152.02575683594</ele>
        <time>2012-10-13T07:55:06Z</time>
      </trkpt>
      <trkpt lat="45.42318" lon="4.74232">
        <ele>161.158203125</ele>
        <time>2012-10-13T07:55:14Z</time>
      </trkpt>
      <trkpt lat="45.42358" lon="4.7428">
        <ele>164.52270507812</ele>
        <time>2012-10-13T07:55:24Z</time>
      </trkpt>
      <trkpt lat="45.42388" lon="4.74321">
        <ele>154.42895507812</ele>
        <time>2012-10-13T07:55:33Z</time>
      </trkpt>
      <trkpt lat="45.42418" lon="4.7436">
        <ele>151.544921875</ele>
        <time>2012-10-13T07:55:42Z</time>
      </trkpt>
      <trkpt lat="45.42451" lon="4.74402">
        <ele>146.73840332031</ele>
        <time>2012-10-13T07:55:51Z</time>
      </trkpt>
      <trkpt lat="45.42487" lon="4.74445">
        <ele>148.18041992188</ele>
        <time>2012-10-13T07:56:00Z</time>
      </trkpt>
      <trkpt lat="45.42519" lon="4.74485">
        <ele>146.73840332031</ele>
        <time>2012-10-13T07:56:08Z</time>
      </trkpt>
      <trkpt lat="45.42562" lon="4.74537">
        <ele>150.10302734375</ele>
        <time>2012-10-13T07:56:19Z</time>
      </trkpt>
      <trkpt lat="45.42578" lon="4.74555">
        <ele>151.06420898438</ele>
        <time>2012-10-13T07:56:23Z</time>
      </trkpt>
      <trkpt lat="45.42597" lon="4.74555">
        <ele>153.94836425781</ele>
        <time>2012-10-13T07:56:27Z</time>
      </trkpt>
      <trkpt lat="45.426" lon="4.7455">
        <ele>153.46765136719</ele>
        <time>2012-10-13T07:56:28Z</time>
      </trkpt>
      <trkpt lat="45.4263" lon="4.74488">
        <ele>153.46765136719</ele>
        <time>2012-10-13T07:56:38Z</time>
      </trkpt>
      <trkpt lat="45.42645" lon="4.7445">
        <ele>155.39025878906</ele>
        <time>2012-10-13T07:56:44Z</time>
      </trkpt>
      <trkpt lat="45.42665" lon="4.74407">
        <ele>156.3515625</ele>
        <time>2012-10-13T07:56:51Z</time>
      </trkpt>
      <trkpt lat="45.42667" lon="4.74401">
        <ele>156.83215332031</ele>
        <time>2012-10-13T07:56:52Z</time>
      </trkpt>
      <trkpt lat="45.42673" lon="4.74391">
        <ele>155.39025878906</ele>
        <time>2012-10-13T07:56:54Z</time>
      </trkpt>
      <trkpt lat="45.42685" lon="4.74367">
        <ele>154.90954589844</ele>
        <time>2012-10-13T07:56:58Z</time>
      </trkpt>
      <trkpt lat="45.42696" lon="4.74351">
        <ele>153.94836425781</ele>
        <time>2012-10-13T07:57:01Z</time>
      </trkpt>
      <trkpt lat="45.42709" lon="4.74333">
        <ele>152.50634765625</ele>
        <time>2012-10-13T07:57:05Z</time>
      </trkpt>
      <trkpt lat="45.4272" lon="4.74336">
        <ele>151.544921875</ele>
        <time>2012-10-13T07:57:08Z</time>
      </trkpt>
      <trkpt lat="45.42729" lon="4.74329">
        <ele>152.02575683594</ele>
        <time>2012-10-13T07:57:11Z</time>
      </trkpt>
      <trkpt lat="45.42733" lon="4.74309">
        <ele>152.98693847656</ele>
        <time>2012-10-13T07:57:15Z</time>
      </trkpt>
      <trkpt lat="45.42735" lon="4.74306">
        <ele>152.98693847656</ele>
        <time>2012-10-13T07:57:18Z</time>
      </trkpt>
      <trkpt lat="45.42737" lon="4.74307">
        <ele>152.98693847656</ele>
        <time>2012-10-13T07:57:19Z</time>
      </trkpt>
      <trkpt lat="45.42754" lon="4.74325">
        <ele>152.98693847656</ele>
        <time>2012-10-13T07:57:26Z</time>
      </trkpt>
      <trkpt lat="45.42775" lon="4.74342">
        <ele>160.67749023438</ele>
        <time>2012-10-13T07:57:31Z</time>
      </trkpt>
      <trkpt lat="45.42788" lon="4.74351">
        <ele>164.04211425781</ele>
        <time>2012-10-13T07:57:34Z</time>
      </trkpt>
      <trkpt lat="45.42807" lon="4.7437">
        <ele>164.52270507812</ele>
        <time>2012-10-13T07:57:39Z</time>
      </trkpt>
      <trkpt lat="45.42831" lon="4.74395">
        <ele>165.48413085938</ele>
        <time>2012-10-13T07:57:45Z</time>
      </trkpt>
      <trkpt lat="45.42866" lon="4.74435">
        <ele>159.71618652344</ele>
        <time>2012-10-13T07:57:55Z</time>
      </trkpt>
      <trkpt lat="45.429" lon="4.74473">
        <ele>157.79357910156</ele>
        <time>2012-10-13T07:58:05Z</time>
      </trkpt>
      <trkpt lat="45.42904" lon="4.74477">
        <ele>157.31286621094</ele>
        <time>2012-10-13T07:58:06Z</time>
      </trkpt>
      <trkpt lat="45.42916" lon="4.74496">
        <ele>156.83215332031</ele>
        <time>2012-10-13T07:58:10Z</time>
      </trkpt>
      <trkpt lat="45.42934" lon="4.74514">
        <ele>157.31286621094</ele>
        <time>2012-10-13T07:58:15Z</time>
      </trkpt>
      <trkpt lat="45.42956" lon="4.74528">
        <ele>156.83215332031</ele>
        <time>2012-10-13T07:58:20Z</time>
      </trkpt>
      <trkpt lat="45.42984" lon="4.7454">
        <ele>155.39025878906</ele>
        <time>2012-10-13T07:58:26Z</time>
      </trkpt>
      <trkpt lat="45.42993" lon="4.74544">
        <ele>155.87097167969</ele>
        <time>2012-10-13T07:58:28Z</time>
      </trkpt>
      <trkpt lat="45.4301" lon="4.7455">
        <ele>155.87097167969</ele>
        <time>2012-10-13T07:58:32Z</time>
      </trkpt>
      <trkpt lat="45.43028" lon="4.74548">
        <ele>156.3515625</ele>
        <time>2012-10-13T07:58:36Z</time>
      </trkpt>
      <trkpt lat="45.43042" lon="4.74559">
        <ele>155.39025878906</ele>
        <time>2012-10-13T07:58:40Z</time>
      </trkpt>
      <trkpt lat="45.43049" lon="4.74578">
        <ele>155.39025878906</ele>
        <time>2012-10-13T07:58:43Z</time>
      </trkpt>
      <trkpt lat="45.43061" lon="4.74629">
        <ele>154.90954589844</ele>
        <time>2012-10-13T07:58:52Z</time>
      </trkpt>
      <trkpt lat="45.43068" lon="4.74647">
        <ele>157.79357910156</ele>
        <time>2012-10-13T07:58:58Z</time>
      </trkpt>
      <trkpt lat="45.43069" lon="4.74648">
        <ele>158.75476074219</ele>
        <time>2012-10-13T07:58:59Z</time>
      </trkpt>
      <trkpt lat="45.4307" lon="4.74642">
        <ele>159.71618652344</ele>
        <time>2012-10-13T07:59:04Z</time>
      </trkpt>
      <trkpt lat="45.43068" lon="4.74626">
        <ele>160.19689941406</ele>
        <time>2012-10-13T07:59:10Z</time>
      </trkpt>
      <trkpt lat="45.43066" lon="4.74625">
        <ele>162.60009765625</ele>
        <time>2012-10-13T07:59:15Z</time>
      </trkpt>
      <trkpt lat="45.43066" lon="4.74623">
        <ele>167.40673828125</ele>
        <time>2012-10-13T07:59:26Z</time>
      </trkpt>
      <trkpt lat="45.43069" lon="4.7462">
        <ele>169.81005859375</ele>
        <time>2012-10-13T07:59:54Z</time>
      </trkpt>
      <trkpt lat="45.43067" lon="4.74619">
        <ele>169.81005859375</ele>
        <time>2012-10-13T07:59:57Z</time>
      </trkpt>
      <trkpt lat="45.43064" lon="4.7462">
        <ele>161.63891601562</ele>
        <time>2012-10-13T08:00:26Z</time>
      </trkpt>
      <trkpt lat="45.4307" lon="4.74625">
        <ele>156.83215332031</ele>
        <time>2012-10-13T08:00:42Z</time>
      </trkpt>
      <trkpt lat="45.43069" lon="4.74626">
        <ele>158.27416992188</ele>
        <time>2012-10-13T08:00:49Z</time>
      </trkpt>
      <trkpt lat="45.43069" lon="4.74627">
        <ele>157.31286621094</ele>
        <time>2012-10-13T08:00:54Z</time>
      </trkpt>
      <trkpt lat="45.43068" lon="4.7463">
        <ele>159.71618652344</ele>
        <time>2012-10-13T08:00:56Z</time>
      </trkpt>
      <trkpt lat="45.43071" lon="4.74647">
        <ele>159.23547363281</ele>
        <time>2012-10-13T08:01:03Z</time>
      </trkpt>
      <trkpt lat="45.43081" lon="4.74677">
        <ele>155.39025878906</ele>
        <time>2012-10-13T08:01:10Z</time>
      </trkpt>
      <trkpt lat="45.43093" lon="4.74702">
        <ele>154.42895507812</ele>
        <time>2012-10-13T08:01:15Z</time>
      </trkpt>
      <trkpt lat="45.431" lon="4.74717">
        <ele>154.42895507812</ele>
        <time>2012-10-13T08:01:18Z</time>
      </trkpt>
      <trkpt lat="45.43106" lon="4.74726">
        <ele>153.94836425781</ele>
        <time>2012-10-13T08:01:20Z</time>
      </trkpt>
      <trkpt lat="45.43117" lon="4.74749">
        <ele>154.42895507812</ele>
        <time>2012-10-13T08:01:25Z</time>
      </trkpt>
      <trkpt lat="45.43127" lon="4.74753">
        <ele>158.27416992188</ele>
        <time>2012-10-13T08:01:29Z</time>
      </trkpt>
      <trkpt lat="45.43129" lon="4.7475">
        <ele>158.27416992188</ele>
        <time>2012-10-13T08:01:30Z</time>
      </trkpt>
      <trkpt lat="45.43152" lon="4.74714">
        <ele>157.79357910156</ele>
        <time>2012-10-13T08:01:38Z</time>
      </trkpt>
      <trkpt lat="45.43178" lon="4.74677">
        <ele>155.87097167969</ele>
        <time>2012-10-13T08:01:46Z</time>
      </trkpt>
      <trkpt lat="45.43203" lon="4.74638">
        <ele>155.87097167969</ele>
        <time>2012-10-13T08:01:54Z</time>
      </trkpt>
      <trkpt lat="45.43225" lon="4.74603">
        <ele>153.94836425781</ele>
        <time>2012-10-13T08:02:01Z</time>
      </trkpt>
      <trkpt lat="45.4325" lon="4.74564">
        <ele>154.42895507812</ele>
        <time>2012-10-13T08:02:09Z</time>
      </trkpt>
      <trkpt lat="45.43268" lon="4.74534">
        <ele>155.39025878906</ele>
        <time>2012-10-13T08:02:16Z</time>
      </trkpt>
      <trkpt lat="45.43293" lon="4.74497">
        <ele>153.94836425781</ele>
        <time>2012-10-13T08:02:24Z</time>
      </trkpt>
      <trkpt lat="45.43323" lon="4.74456">
        <ele>153.46765136719</ele>
        <time>2012-10-13T08:02:33Z</time>
      </trkpt>
      <trkpt lat="45.43348" lon="4.74422">
        <ele>152.50634765625</ele>
        <time>2012-10-13T08:02:41Z</time>
      </trkpt>
      <trkpt lat="45.43356" lon="4.74408">
        <ele>152.02575683594</ele>
        <time>2012-10-13T08:02:44Z</time>
      </trkpt>
      <trkpt lat="45.43367" lon="4.74382">
        <ele>152.98693847656</ele>
        <time>2012-10-13T08:02:51Z</time>
      </trkpt>
      <trkpt lat="45.43367" lon="4.74378">
        <ele>153.94836425781</ele>
        <time>2012-10-13T08:02:52Z</time>
      </trkpt>
      <trkpt lat="45.43355" lon="4.74358">
        <ele>154.90954589844</ele>
        <time>2012-10-13T08:02:57Z</time>
      </trkpt>
      <trkpt lat="45.43349" lon="4.74346">
        <ele>154.90954589844</ele>
        <time>2012-10-13T08:03:00Z</time>
      </trkpt>
      <trkpt lat="45.43357" lon="4.74331">
        <ele>153.46765136719</ele>
        <time>2012-10-13T08:03:03Z</time>
      </trkpt>
      <trkpt lat="45.43371" lon="4.74304">
        <ele>158.27416992188</ele>
        <time>2012-10-13T08:03:08Z</time>
      </trkpt>
      <trkpt lat="45.43377" lon="4.74292">
        <ele>157.79357910156</ele>
        <time>2012-10-13T08:03:11Z</time>
      </trkpt>
      <trkpt lat="45.43383" lon="4.74281">
        <ele>159.23547363281</ele>
        <time>2012-10-13T08:03:16Z</time>
      </trkpt>
      <trkpt lat="45.43396" lon="4.74285">
        <ele>171.73266601562</ele>
        <time>2012-10-13T08:03:22Z</time>
      </trkpt>
      <trkpt lat="45.43412" lon="4.74288">
        <ele>176.53930664062</ele>
        <time>2012-10-13T08:03:28Z</time>
      </trkpt>
      <trkpt lat="45.43429" lon="4.7429">
        <ele>176.53930664062</ele>
        <time>2012-10-13T08:03:35Z</time>
      </trkpt>
      <trkpt lat="45.43442" lon="4.74291">
        <ele>175.57788085938</ele>
        <time>2012-10-13T08:03:40Z</time>
      </trkpt>
      <trkpt lat="45.43457" lon="4.74283">
        <ele>177.98120117188</ele>
        <time>2012-10-13T08:03:46Z</time>
      </trkpt>
      <trkpt lat="45.43462" lon="4.74276">
        <ele>180.865234375</ele>
        <time>2012-10-13T08:03:49Z</time>
      </trkpt>
      <trkpt lat="45.43471" lon="4.74259">
        <ele>179.90380859375</ele>
        <time>2012-10-13T08:03:56Z</time>
      </trkpt>
      <trkpt lat="45.43467" lon="4.7425">
        <ele>180.865234375</ele>
        <time>2012-10-13T08:04:01Z</time>
      </trkpt>
      <trkpt lat="45.43457" lon="4.74249">
        <ele>181.82641601562</ele>
        <time>2012-10-13T08:04:06Z</time>
      </trkpt>
      <trkpt lat="45.43441" lon="4.74245">
        <ele>184.22985839844</ele>
        <time>2012-10-13T08:04:13Z</time>
      </trkpt>
      <trkpt lat="45.43425" lon="4.74235">
        <ele>187.11376953125</ele>
        <time>2012-10-13T08:04:20Z</time>
      </trkpt>
      <trkpt lat="45.43408" lon="4.74228">
        <ele>187.59436035156</ele>
        <time>2012-10-13T08:04:27Z</time>
      </trkpt>
      <trkpt lat="45.43392" lon="4.74221">
        <ele>189.03637695312</ele>
        <time>2012-10-13T08:04:34Z</time>
      </trkpt>
      <trkpt lat="45.43378" lon="4.74212">
        <ele>189.99768066406</ele>
        <time>2012-10-13T08:04:40Z</time>
      </trkpt>
      <trkpt lat="45.43367" lon="4.74198">
        <ele>188.07507324219</ele>
        <time>2012-10-13T08:04:46Z</time>
      </trkpt>
      <trkpt lat="45.43349" lon="4.74178">
        <ele>189.03637695312</ele>
        <time>2012-10-13T08:04:55Z</time>
      </trkpt>
      <trkpt lat="45.43332" lon="4.74161">
        <ele>192.88171386719</ele>
        <time>2012-10-13T08:05:03Z</time>
      </trkpt>
      <trkpt lat="45.43314" lon="4.7414">
        <ele>194.32373046875</ele>
        <time>2012-10-13T08:05:12Z</time>
      </trkpt>
      <trkpt lat="45.43304" lon="4.74128">
        <ele>194.80432128906</ele>
        <time>2012-10-13T08:05:17Z</time>
      </trkpt>
      <trkpt lat="45.43308" lon="4.74126">
        <ele>192.40112304688</ele>
        <time>2012-10-13T08:05:21Z</time>
      </trkpt>
      <trkpt lat="45.4331" lon="4.74129">
        <ele>193.3623046875</ele>
        <time>2012-10-13T08:05:22Z</time>
      </trkpt>
      <trkpt lat="45.43326" lon="4.74147">
        <ele>196.72692871094</ele>
        <time>2012-10-13T08:05:30Z</time>
      </trkpt>
      <trkpt lat="45.43343" lon="4.74153">
        <ele>199.61083984375</ele>
        <time>2012-10-13T08:05:37Z</time>
      </trkpt>
      <trkpt lat="45.43368" lon="4.7416">
        <ele>203.45617675781</ele>
        <time>2012-10-13T08:05:47Z</time>
      </trkpt>
      <trkpt lat="45.43396" lon="4.74166">
        <ele>205.85949707031</ele>
        <time>2012-10-13T08:05:58Z</time>
      </trkpt>
      <trkpt lat="45.43417" lon="4.74169">
        <ele>208.26281738281</ele>
        <time>2012-10-13T08:06:06Z</time>
      </trkpt>
      <trkpt lat="45.43437" lon="4.74172">
        <ele>209.70483398438</ele>
        <time>2012-10-13T08:06:14Z</time>
      </trkpt>
      <trkpt lat="45.43454" lon="4.74174">
        <ele>212.58862304688</ele>
        <time>2012-10-13T08:06:21Z</time>
      </trkpt>
      <trkpt lat="45.43468" lon="4.74169">
        <ele>215.47265625</ele>
        <time>2012-10-13T08:06:27Z</time>
      </trkpt>
      <trkpt lat="45.4348" lon="4.74163">
        <ele>217.39538574219</ele>
        <time>2012-10-13T08:06:32Z</time>
      </trkpt>
      <trkpt lat="45.43494" lon="4.74155">
        <ele>219.79858398438</ele>
        <time>2012-10-13T08:06:38Z</time>
      </trkpt>
      <trkpt lat="45.43509" lon="4.74145">
        <ele>218.35656738281</ele>
        <time>2012-10-13T08:06:44Z</time>
      </trkpt>
      <trkpt lat="45.43523" lon="4.74135">
        <ele>220.75988769531</ele>
        <time>2012-10-13T08:06:50Z</time>
      </trkpt>
      <trkpt lat="45.43529" lon="4.74136">
        <ele>221.72119140625</ele>
        <time>2012-10-13T08:06:52Z</time>
      </trkpt>
      <trkpt lat="45.43551" lon="4.74145">
        <ele>227.00854492188</ele>
        <time>2012-10-13T08:06:59Z</time>
      </trkpt>
      <trkpt lat="45.4357" lon="4.74146">
        <ele>233.73767089844</ele>
        <time>2012-10-13T08:07:05Z</time>
      </trkpt>
      <trkpt lat="45.43585" lon="4.74144">
        <ele>232.29577636719</ele>
        <time>2012-10-13T08:07:11Z</time>
      </trkpt>
      <trkpt lat="45.43587" lon="4.74143">
        <ele>232.29577636719</ele>
        <time>2012-10-13T08:07:12Z</time>
      </trkpt>
      <trkpt lat="45.43598" lon="4.74144">
        <ele>234.69909667969</ele>
        <time>2012-10-13T08:07:17Z</time>
      </trkpt>
      <trkpt lat="45.43615" lon="4.74144">
        <ele>233.73767089844</ele>
        <time>2012-10-13T08:07:23Z</time>
      </trkpt>
      <trkpt lat="45.43621" lon="4.74144">
        <ele>234.69909667969</ele>
        <time>2012-10-13T08:07:25Z</time>
      </trkpt>
      <trkpt lat="45.4363" lon="4.74153">
        <ele>231.33435058594</ele>
        <time>2012-10-13T08:07:30Z</time>
      </trkpt>
      <trkpt lat="45.43631" lon="4.74171">
        <ele>230.85375976562</ele>
        <time>2012-10-13T08:07:35Z</time>
      </trkpt>
      <trkpt lat="45.43622" lon="4.74183">
        <ele>231.33435058594</ele>
        <time>2012-10-13T08:07:39Z</time>
      </trkpt>
      <trkpt lat="45.4362" lon="4.74185">
        <ele>231.81494140625</ele>
        <time>2012-10-13T08:07:40Z</time>
      </trkpt>
      <trkpt lat="45.43598" lon="4.74209">
        <ele>232.77648925781</ele>
        <time>2012-10-13T08:07:48Z</time>
      </trkpt>
      <trkpt lat="45.4358" lon="4.74233">
        <ele>232.29577636719</ele>
        <time>2012-10-13T08:07:56Z</time>
      </trkpt>
      <trkpt lat="45.43571" lon="4.7425">
        <ele>231.33435058594</ele>
        <time>2012-10-13T08:08:02Z</time>
      </trkpt>
      <trkpt lat="45.43571" lon="4.74269">
        <ele>231.81494140625</ele>
        <time>2012-10-13T08:08:08Z</time>
      </trkpt>
      <trkpt lat="45.43581" lon="4.74284">
        <ele>232.29577636719</ele>
        <time>2012-10-13T08:08:14Z</time>
      </trkpt>
      <trkpt lat="45.43591" lon="4.74297">
        <ele>233.73767089844</ele>
        <time>2012-10-13T08:08:20Z</time>
      </trkpt>
      <trkpt lat="45.43599" lon="4.74307">
        <ele>234.69909667969</ele>
        <time>2012-10-13T08:08:25Z</time>
      </trkpt>
      <trkpt lat="45.43614" lon="4.74326">
        <ele>235.66027832031</ele>
        <time>2012-10-13T08:08:34Z</time>
      </trkpt>
      <trkpt lat="45.43626" lon="4.74338">
        <ele>236.62170410156</ele>
        <time>2012-10-13T08:08:40Z</time>
      </trkpt>
      <trkpt lat="45.43642" lon="4.74349">
        <ele>239.02490234375</ele>
        <time>2012-10-13T08:08:47Z</time>
      </trkpt>
      <trkpt lat="45.43663" lon="4.74363">
        <ele>239.50549316406</ele>
        <time>2012-10-13T08:08:55Z</time>
      </trkpt>
      <trkpt lat="45.43675" lon="4.74381">
        <ele>239.50549316406</ele>
        <time>2012-10-13T08:09:00Z</time>
      </trkpt>
      <trkpt lat="45.43689" lon="4.74406">
        <ele>239.50549316406</ele>
        <time>2012-10-13T08:09:06Z</time>
      </trkpt>
      <trkpt lat="45.43713" lon="4.74424">
        <ele>240.46704101562</ele>
        <time>2012-10-13T08:09:13Z</time>
      </trkpt>
      <trkpt lat="45.4372" lon="4.74406">
        <ele>239.98620605469</ele>
        <time>2012-10-13T08:09:17Z</time>
      </trkpt>
      <trkpt lat="45.43705" lon="4.74389">
        <ele>236.62170410156</ele>
        <time>2012-10-13T08:09:23Z</time>
      </trkpt>
      <trkpt lat="45.43695" lon="4.74371">
        <ele>235.66027832031</ele>
        <time>2012-10-13T08:09:27Z</time>
      </trkpt>
      <trkpt lat="45.43684" lon="4.74343">
        <ele>235.66027832031</ele>
        <time>2012-10-13T08:09:33Z</time>
      </trkpt>
      <trkpt lat="45.43672" lon="4.74335">
        <ele>236.14099121094</ele>
        <time>2012-10-13T08:09:39Z</time>
      </trkpt>
      <trkpt lat="45.43671" lon="4.74334">
        <ele>236.62170410156</ele>
        <time>2012-10-13T08:09:40Z</time>
      </trkpt>
      <trkpt lat="45.43671" lon="4.7433">
        <ele>235.1796875</ele>
        <time>2012-10-13T08:09:45Z</time>
      </trkpt>
      <trkpt lat="45.43674" lon="4.74338">
        <ele>233.25708007812</ele>
        <time>2012-10-13T08:09:51Z</time>
      </trkpt>
      <trkpt lat="45.43685" lon="4.74351">
        <ele>233.73767089844</ele>
        <time>2012-10-13T08:09:55Z</time>
      </trkpt>
      <trkpt lat="45.43692" lon="4.74372">
        <ele>236.14099121094</ele>
        <time>2012-10-13T08:09:59Z</time>
      </trkpt>
      <trkpt lat="45.43698" lon="4.74392">
        <ele>236.62170410156</ele>
        <time>2012-10-13T08:10:03Z</time>
      </trkpt>
      <trkpt lat="45.43699" lon="4.74393">
        <ele>237.10229492188</ele>
        <time>2012-10-13T08:10:08Z</time>
      </trkpt>
      <trkpt lat="45.43699" lon="4.74391">
        <ele>237.10229492188</ele>
        <time>2012-10-13T08:10:09Z</time>
      </trkpt>
      <trkpt lat="45.4369" lon="4.74371">
        <ele>237.58288574219</ele>
        <time>2012-10-13T08:10:15Z</time>
      </trkpt>
      <trkpt lat="45.43681" lon="4.74349">
        <ele>241.42822265625</ele>
        <time>2012-10-13T08:10:22Z</time>
      </trkpt>
      <trkpt lat="45.43671" lon="4.74342">
        <ele>242.3896484375</ele>
        <time>2012-10-13T08:10:26Z</time>
      </trkpt>
      <trkpt lat="45.4366" lon="4.74331">
        <ele>242.87023925781</ele>
        <time>2012-10-13T08:10:31Z</time>
      </trkpt>
      <trkpt lat="45.43651" lon="4.74319">
        <ele>243.83154296875</ele>
        <time>2012-10-13T08:10:37Z</time>
      </trkpt>
      <trkpt lat="45.43637" lon="4.74297">
        <ele>244.31225585938</ele>
        <time>2012-10-13T08:10:46Z</time>
      </trkpt>
      <trkpt lat="45.43629" lon="4.74273">
        <ele>244.31225585938</ele>
        <time>2012-10-13T08:10:53Z</time>
      </trkpt>
      <trkpt lat="45.43628" lon="4.74247">
        <ele>245.2734375</ele>
        <time>2012-10-13T08:11:00Z</time>
      </trkpt>
      <trkpt lat="45.43634" lon="4.74233">
        <ele>245.75415039062</ele>
        <time>2012-10-13T08:11:05Z</time>
      </trkpt>
      <trkpt lat="45.4365" lon="4.74213">
        <ele>245.2734375</ele>
        <time>2012-10-13T08:11:13Z</time>
      </trkpt>
      <trkpt lat="45.43663" lon="4.74192">
        <ele>247.6767578125</ele>
        <time>2012-10-13T08:11:21Z</time>
      </trkpt>
      <trkpt lat="45.43676" lon="4.74169">
        <ele>250.08020019531</ele>
        <time>2012-10-13T08:11:29Z</time>
      </trkpt>
      <trkpt lat="45.43691" lon="4.74155">
        <ele>251.52209472656</ele>
        <time>2012-10-13T08:11:36Z</time>
      </trkpt>
      <trkpt lat="45.43702" lon="4.74139">
        <ele>254.88659667969</ele>
        <time>2012-10-13T08:11:43Z</time>
      </trkpt>
      <trkpt lat="45.43713" lon="4.7412">
        <ele>256.80932617188</ele>
        <time>2012-10-13T08:11:51Z</time>
      </trkpt>
      <trkpt lat="45.43719" lon="4.74106">
        <ele>256.80932617188</ele>
        <time>2012-10-13T08:11:56Z</time>
      </trkpt>
      <trkpt lat="45.43722" lon="4.74088">
        <ele>256.80932617188</ele>
        <time>2012-10-13T08:12:01Z</time>
      </trkpt>
      <trkpt lat="45.43724" lon="4.74067">
        <ele>257.77075195312</ele>
        <time>2012-10-13T08:12:07Z</time>
      </trkpt>
      <trkpt lat="45.43726" lon="4.74048">
        <ele>258.25134277344</ele>
        <time>2012-10-13T08:12:12Z</time>
      </trkpt>
      <trkpt lat="45.43729" lon="4.74024">
        <ele>256.80932617188</ele>
        <time>2012-10-13T08:12:18Z</time>
      </trkpt>
      <trkpt lat="45.43727" lon="4.74014">
        <ele>256.32873535156</ele>
        <time>2012-10-13T08:12:21Z</time>
      </trkpt>
      <trkpt lat="45.43717" lon="4.74012">
        <ele>261.13525390625</ele>
        <time>2012-10-13T08:12:26Z</time>
      </trkpt>
      <trkpt lat="45.43713" lon="4.74019">
        <ele>262.09655761719</ele>
        <time>2012-10-13T08:12:29Z</time>
      </trkpt>
      <trkpt lat="45.43699" lon="4.74039">
        <ele>265.94189453125</ele>
        <time>2012-10-13T08:12:35Z</time>
      </trkpt>
      <trkpt lat="45.43685" lon="4.74054">
        <ele>269.30651855469</ele>
        <time>2012-10-13T08:12:41Z</time>
      </trkpt>
      <trkpt lat="45.43666" lon="4.74057">
        <ele>268.34509277344</ele>
        <time>2012-10-13T08:12:47Z</time>
      </trkpt>
      <trkpt lat="45.43647" lon="4.74057">
        <ele>265.94189453125</ele>
        <time>2012-10-13T08:12:53Z</time>
      </trkpt>
      <trkpt lat="45.43648" lon="4.74049">
        <ele>261.61596679688</ele>
        <time>2012-10-13T08:12:57Z</time>
      </trkpt>
      <trkpt lat="45.43649" lon="4.74049">
        <ele>260.65454101562</ele>
        <time>2012-10-13T08:12:58Z</time>
      </trkpt>
      <trkpt lat="45.43668" lon="4.74049">
        <ele>262.09655761719</ele>
        <time>2012-10-13T08:13:06Z</time>
      </trkpt>
      <trkpt lat="45.43683" lon="4.7404">
        <ele>262.5771484375</ele>
        <time>2012-10-13T08:13:13Z</time>
      </trkpt>
      <trkpt lat="45.43692" lon="4.74023">
        <ele>262.5771484375</ele>
        <time>2012-10-13T08:13:19Z</time>
      </trkpt>
      <trkpt lat="45.43697" lon="4.74003">
        <ele>263.53857421875</ele>
        <time>2012-10-13T08:13:25Z</time>
      </trkpt>
      <trkpt lat="45.43707" lon="4.73984">
        <ele>266.42248535156</ele>
        <time>2012-10-13T08:13:31Z</time>
      </trkpt>
      <trkpt lat="45.43716" lon="4.73976">
        <ele>270.74841308594</ele>
        <time>2012-10-13T08:13:37Z</time>
      </trkpt>
      <trkpt lat="45.43727" lon="4.73971">
        <ele>274.59375</ele>
        <time>2012-10-13T08:13:43Z</time>
      </trkpt>
      <trkpt lat="45.43739" lon="4.73965">
        <ele>275.07446289062</ele>
        <time>2012-10-13T08:13:48Z</time>
      </trkpt>
      <trkpt lat="45.43743" lon="4.73974">
        <ele>276.51635742188</ele>
        <time>2012-10-13T08:13:53Z</time>
      </trkpt>
      <trkpt lat="45.43744" lon="4.73992">
        <ele>276.03564453125</ele>
        <time>2012-10-13T08:13:59Z</time>
      </trkpt>
      <trkpt lat="45.43748" lon="4.74008">
        <ele>281.32299804688</ele>
        <time>2012-10-13T08:14:04Z</time>
      </trkpt>
      <trkpt lat="45.43762" lon="4.74035">
        <ele>287.0908203125</ele>
        <time>2012-10-13T08:14:13Z</time>
      </trkpt>
      <trkpt lat="45.43767" lon="4.74067">
        <ele>287.0908203125</ele>
        <time>2012-10-13T08:14:19Z</time>
      </trkpt>
      <trkpt lat="45.43777" lon="4.74098">
        <ele>288.05224609375</ele>
        <time>2012-10-13T08:14:25Z</time>
      </trkpt>
      <trkpt lat="45.4379" lon="4.74129">
        <ele>291.8974609375</ele>
        <time>2012-10-13T08:14:32Z</time>
      </trkpt>
      <trkpt lat="45.43801" lon="4.74138">
        <ele>294.78137207031</ele>
        <time>2012-10-13T08:14:37Z</time>
      </trkpt>
      <trkpt lat="45.43818" lon="4.74148">
        <ele>296.7041015625</ele>
        <time>2012-10-13T08:14:45Z</time>
      </trkpt>
      <trkpt lat="45.43833" lon="4.74162">
        <ele>300.06872558594</ele>
        <time>2012-10-13T08:14:53Z</time>
      </trkpt>
      <trkpt lat="45.43844" lon="4.74174">
        <ele>301.99133300781</ele>
        <time>2012-10-13T08:14:59Z</time>
      </trkpt>
      <trkpt lat="45.4386" lon="4.74187">
        <ele>304.39465332031</ele>
        <time>2012-10-13T08:15:07Z</time>
      </trkpt>
      <trkpt lat="45.43866" lon="4.7419">
        <ele>304.39465332031</ele>
        <time>2012-10-13T08:15:10Z</time>
      </trkpt>
      <trkpt lat="45.43884" lon="4.74175">
        <ele>301.02990722656</ele>
        <time>2012-10-13T08:15:19Z</time>
      </trkpt>
      <trkpt lat="45.43908" lon="4.74169">
        <ele>298.62670898438</ele>
        <time>2012-10-13T08:15:28Z</time>
      </trkpt>
      <trkpt lat="45.43932" lon="4.74165">
        <ele>298.14611816406</ele>
        <time>2012-10-13T08:15:36Z</time>
      </trkpt>
      <trkpt lat="45.43938" lon="4.74155">
        <ele>298.14611816406</ele>
        <time>2012-10-13T08:15:40Z</time>
      </trkpt>
      <trkpt lat="45.4394" lon="4.74132">
        <ele>300.06872558594</ele>
        <time>2012-10-13T08:15:48Z</time>
      </trkpt>
      <trkpt lat="45.43941" lon="4.74112">
        <ele>302.47192382812</ele>
        <time>2012-10-13T08:15:56Z</time>
      </trkpt>
      <trkpt lat="45.43945" lon="4.74085">
        <ele>304.87524414062</ele>
        <time>2012-10-13T08:16:05Z</time>
      </trkpt>
      <trkpt lat="45.43948" lon="4.7406">
        <ele>306.31726074219</ele>
        <time>2012-10-13T08:16:13Z</time>
      </trkpt>
      <trkpt lat="45.43958" lon="4.74041">
        <ele>309.201171875</ele>
        <time>2012-10-13T08:16:21Z</time>
      </trkpt>
      <trkpt lat="45.43973" lon="4.74028">
        <ele>312.56579589844</ele>
        <time>2012-10-13T08:16:29Z</time>
      </trkpt>
      <trkpt lat="45.43988" lon="4.74018">
        <ele>315.93041992188</ele>
        <time>2012-10-13T08:16:37Z</time>
      </trkpt>
      <trkpt lat="45.44" lon="4.74005">
        <ele>317.85302734375</ele>
        <time>2012-10-13T08:16:44Z</time>
      </trkpt>
      <trkpt lat="45.44003" lon="4.74002">
        <ele>317.85302734375</ele>
        <time>2012-10-13T08:16:46Z</time>
      </trkpt>
      <trkpt lat="45.44003" lon="4.74">
        <ele>316.89172363281</ele>
        <time>2012-10-13T08:16:55Z</time>
      </trkpt>
      <trkpt lat="45.44006" lon="4.73998">
        <ele>314.48840332031</ele>
        <time>2012-10-13T08:17:11Z</time>
      </trkpt>
      <trkpt lat="45.44018" lon="4.73991">
        <ele>305.83666992188</ele>
        <time>2012-10-13T08:18:12Z</time>
      </trkpt>
      <trkpt lat="45.44024" lon="4.73999">
        <ele>305.35595703125</ele>
        <time>2012-10-13T08:18:16Z</time>
      </trkpt>
      <trkpt lat="45.4404" lon="4.74006">
        <ele>305.35595703125</ele>
        <time>2012-10-13T08:18:21Z</time>
      </trkpt>
      <trkpt lat="45.44061" lon="4.74023">
        <ele>305.83666992188</ele>
        <time>2012-10-13T08:18:27Z</time>
      </trkpt>
      <trkpt lat="45.44075" lon="4.74035">
        <ele>308.72045898438</ele>
        <time>2012-10-13T08:18:32Z</time>
      </trkpt>
      <trkpt lat="45.44087" lon="4.74048">
        <ele>315.44982910156</ele>
        <time>2012-10-13T08:18:37Z</time>
      </trkpt>
      <trkpt lat="45.44099" lon="4.74074">
        <ele>319.29504394531</ele>
        <time>2012-10-13T08:18:42Z</time>
      </trkpt>
      <trkpt lat="45.44121" lon="4.74104">
        <ele>321.69836425781</ele>
        <time>2012-10-13T08:18:50Z</time>
      </trkpt>
      <trkpt lat="45.4414" lon="4.74131">
        <ele>325.06298828125</ele>
        <time>2012-10-13T08:18:57Z</time>
      </trkpt>
      <trkpt lat="45.4416" lon="4.74159">
        <ele>329.86950683594</ele>
        <time>2012-10-13T08:19:06Z</time>
      </trkpt>
      <trkpt lat="45.44164" lon="4.74163">
        <ele>330.83093261719</ele>
        <time>2012-10-13T08:19:08Z</time>
      </trkpt>
      <trkpt lat="45.44172" lon="4.74155">
        <ele>332.27282714844</ele>
        <time>2012-10-13T08:19:13Z</time>
      </trkpt>
      <trkpt lat="45.44174" lon="4.74151">
        <ele>332.27282714844</ele>
        <time>2012-10-13T08:19:15Z</time>
      </trkpt>
      <trkpt lat="45.44185" lon="4.74121">
        <ele>333.71472167969</ele>
        <time>2012-10-13T08:19:25Z</time>
      </trkpt>
      <trkpt lat="45.44191" lon="4.74097">
        <ele>334.19543457031</ele>
        <time>2012-10-13T08:19:31Z</time>
      </trkpt>
      <trkpt lat="45.44203" lon="4.74061">
        <ele>335.15673828125</ele>
        <time>2012-10-13T08:19:40Z</time>
      </trkpt>
      <trkpt lat="45.44214" lon="4.74027">
        <ele>335.63732910156</ele>
        <time>2012-10-13T08:19:49Z</time>
      </trkpt>
      <trkpt lat="45.44226" lon="4.7401">
        <ele>335.15673828125</ele>
        <time>2012-10-13T08:19:55Z</time>
      </trkpt>
      <trkpt lat="45.44243" lon="4.73991">
        <ele>335.63732910156</ele>
        <time>2012-10-13T08:20:02Z</time>
      </trkpt>
      <trkpt lat="45.44262" lon="4.73968">
        <ele>331.3115234375</ele>
        <time>2012-10-13T08:20:10Z</time>
      </trkpt>
      <trkpt lat="45.44273" lon="4.73955">
        <ele>332.27282714844</ele>
        <time>2012-10-13T08:20:16Z</time>
      </trkpt>
      <trkpt lat="45.44284" lon="4.73944">
        <ele>332.75354003906</ele>
        <time>2012-10-13T08:20:23Z</time>
      </trkpt>
      <trkpt lat="45.44283" lon="4.73919">
        <ele>333.71472167969</ele>
        <time>2012-10-13T08:20:30Z</time>
      </trkpt>
      <trkpt lat="45.44283" lon="4.73884">
        <ele>333.23413085938</ele>
        <time>2012-10-13T08:20:38Z</time>
      </trkpt>
      <trkpt lat="45.44291" lon="4.73845">
        <ele>334.67614746094</ele>
        <time>2012-10-13T08:20:46Z</time>
      </trkpt>
      <trkpt lat="45.44301" lon="4.73805">
        <ele>337.07946777344</ele>
        <time>2012-10-13T08:20:55Z</time>
      </trkpt>
      <trkpt lat="45.44313" lon="4.73763">
        <ele>337.56005859375</ele>
        <time>2012-10-13T08:21:05Z</time>
      </trkpt>
      <trkpt lat="45.44323" lon="4.73735">
        <ele>340.44409179688</ele>
        <time>2012-10-13T08:21:12Z</time>
      </trkpt>
      <trkpt lat="45.44333" lon="4.7373">
        <ele>342.84729003906</ele>
        <time>2012-10-13T08:21:16Z</time>
      </trkpt>
      <trkpt lat="45.44348" lon="4.7374">
        <ele>344.77001953125</ele>
        <time>2012-10-13T08:21:21Z</time>
      </trkpt>
      <trkpt lat="45.44378" lon="4.73763">
        <ele>348.13464355469</ele>
        <time>2012-10-13T08:21:30Z</time>
      </trkpt>
      <trkpt lat="45.44401" lon="4.73778">
        <ele>350.05725097656</ele>
        <time>2012-10-13T08:21:37Z</time>
      </trkpt>
      <trkpt lat="45.44429" lon="4.73801">
        <ele>351.49914550781</ele>
        <time>2012-10-13T08:21:46Z</time>
      </trkpt>
      <trkpt lat="45.44456" lon="4.73821">
        <ele>351.49914550781</ele>
        <time>2012-10-13T08:21:54Z</time>
      </trkpt>
      <trkpt lat="45.44484" lon="4.73838">
        <ele>348.615234375</ele>
        <time>2012-10-13T08:22:00Z</time>
      </trkpt>
      <trkpt lat="45.44501" lon="4.73836">
        <ele>347.65393066406</ele>
        <time>2012-10-13T08:22:04Z</time>
      </trkpt>
      <trkpt lat="45.44502" lon="4.73827">
        <ele>347.17321777344</ele>
        <time>2012-10-13T08:22:06Z</time>
      </trkpt>
      <trkpt lat="45.44505" lon="4.738">
        <ele>346.69262695312</ele>
        <time>2012-10-13T08:22:11Z</time>
      </trkpt>
      <trkpt lat="45.4451" lon="4.73765">
        <ele>346.69262695312</ele>
        <time>2012-10-13T08:22:18Z</time>
      </trkpt>
      <trkpt lat="45.44515" lon="4.7374">
        <ele>346.21203613281</ele>
        <time>2012-10-13T08:22:23Z</time>
      </trkpt>
      <trkpt lat="45.4452" lon="4.73702">
        <ele>347.17321777344</ele>
        <time>2012-10-13T08:22:30Z</time>
      </trkpt>
      <trkpt lat="45.44523" lon="4.7366">
        <ele>350.05725097656</ele>
        <time>2012-10-13T08:22:38Z</time>
      </trkpt>
      <trkpt lat="45.44529" lon="4.7362">
        <ele>350.05725097656</ele>
        <time>2012-10-13T08:22:46Z</time>
      </trkpt>
      <trkpt lat="45.44538" lon="4.73554">
        <ele>350.05725097656</ele>
        <time>2012-10-13T08:22:58Z</time>
      </trkpt>
      <trkpt lat="45.44543" lon="4.73515">
        <ele>351.01843261719</ele>
        <time>2012-10-13T08:23:05Z</time>
      </trkpt>
      <trkpt lat="45.4455" lon="4.73484">
        <ele>352.94116210938</ele>
        <time>2012-10-13T08:23:11Z</time>
      </trkpt>
      <trkpt lat="45.44551" lon="4.73451">
        <ele>351.97985839844</ele>
        <time>2012-10-13T08:23:17Z</time>
      </trkpt>
      <trkpt lat="45.44551" lon="4.73421">
        <ele>353.90258789062</ele>
        <time>2012-10-13T08:23:23Z</time>
      </trkpt>
      <trkpt lat="45.44545" lon="4.73377">
        <ele>356.78637695312</ele>
        <time>2012-10-13T08:23:32Z</time>
      </trkpt>
      <trkpt lat="45.44539" lon="4.73337">
        <ele>358.708984375</ele>
        <time>2012-10-13T08:23:40Z</time>
      </trkpt>
      <trkpt lat="45.44535" lon="4.73302">
        <ele>359.18969726562</ele>
        <time>2012-10-13T08:23:47Z</time>
      </trkpt>
      <trkpt lat="45.44531" lon="4.73273">
        <ele>359.67041015625</ele>
        <time>2012-10-13T08:23:53Z</time>
      </trkpt>
      <trkpt lat="45.44535" lon="4.73231">
        <ele>360.15112304688</ele>
        <time>2012-10-13T08:24:01Z</time>
      </trkpt>
      <trkpt lat="45.44537" lon="4.73204">
        <ele>359.18969726562</ele>
        <time>2012-10-13T08:24:06Z</time>
      </trkpt>
      <trkpt lat="45.44541" lon="4.73173">
        <ele>359.67041015625</ele>
        <time>2012-10-13T08:24:12Z</time>
      </trkpt>
      <trkpt lat="45.44544" lon="4.7314">
        <ele>360.15112304688</ele>
        <time>2012-10-13T08:24:20Z</time>
      </trkpt>
      <trkpt lat="45.44541" lon="4.73114">
        <ele>360.15112304688</ele>
        <time>2012-10-13T08:24:26Z</time>
      </trkpt>
      <trkpt lat="45.44535" lon="4.73092">
        <ele>360.15112304688</ele>
        <time>2012-10-13T08:24:32Z</time>
      </trkpt>
      <trkpt lat="45.44528" lon="4.73055">
        <ele>357.26708984375</ele>
        <time>2012-10-13T08:24:41Z</time>
      </trkpt>
      <trkpt lat="45.44521" lon="4.73011">
        <ele>357.26708984375</ele>
        <time>2012-10-13T08:24:51Z</time>
      </trkpt>
      <trkpt lat="45.4451" lon="4.72962">
        <ele>357.26708984375</ele>
        <time>2012-10-13T08:25:02Z</time>
      </trkpt>
      <trkpt lat="45.44508" lon="4.72955">
        <ele>357.26708984375</ele>
        <time>2012-10-13T08:25:04Z</time>
      </trkpt>
      <trkpt lat="45.44498" lon="4.7295">
        <ele>358.22839355469</ele>
        <time>2012-10-13T08:25:10Z</time>
      </trkpt>
      <trkpt lat="45.44499" lon="4.72948">
        <ele>359.67041015625</ele>
        <time>2012-10-13T08:25:15Z</time>
      </trkpt>
      <trkpt lat="45.44502" lon="4.72951">
        <ele>363.51574707031</ele>
        <time>2012-10-13T08:25:19Z</time>
      </trkpt>
      <trkpt lat="45.44506" lon="4.72957">
        <ele>366.88024902344</ele>
        <time>2012-10-13T08:25:27Z</time>
      </trkpt>
      <trkpt lat="45.44506" lon="4.72955">
        <ele>367.36096191406</ele>
        <time>2012-10-13T08:25:33Z</time>
      </trkpt>
      <trkpt lat="45.44503" lon="4.72953">
        <ele>367.36096191406</ele>
        <time>2012-10-13T08:25:35Z</time>
      </trkpt>
      <trkpt lat="45.44487" lon="4.72945">
        <ele>368.80297851562</ele>
        <time>2012-10-13T08:25:42Z</time>
      </trkpt>
      <trkpt lat="45.4446" lon="4.72934">
        <ele>371.20629882812</ele>
        <time>2012-10-13T08:25:51Z</time>
      </trkpt>
      <trkpt lat="45.44445" lon="4.72921">
        <ele>370.7255859375</ele>
        <time>2012-10-13T08:25:57Z</time>
      </trkpt>
      <trkpt lat="45.44445" lon="4.72911">
        <ele>369.76428222656</ele>
        <time>2012-10-13T08:26:01Z</time>
      </trkpt>
      <trkpt lat="45.44445" lon="4.72909">
        <ele>370.24487304688</ele>
        <time>2012-10-13T08:26:02Z</time>
      </trkpt>
      <trkpt lat="45.44453" lon="4.72887">
        <ele>371.20629882812</ele>
        <time>2012-10-13T08:26:09Z</time>
      </trkpt>
      <trkpt lat="45.4446" lon="4.72861">
        <ele>372.16748046875</ele>
        <time>2012-10-13T08:26:15Z</time>
      </trkpt>
      <trkpt lat="45.44468" lon="4.72824">
        <ele>370.7255859375</ele>
        <time>2012-10-13T08:26:23Z</time>
      </trkpt>
      <trkpt lat="45.44468" lon="4.7279">
        <ele>371.68688964844</ele>
        <time>2012-10-13T08:26:30Z</time>
      </trkpt>
      <trkpt lat="45.44459" lon="4.72735">
        <ele>372.16748046875</ele>
        <time>2012-10-13T08:26:41Z</time>
      </trkpt>
      <trkpt lat="45.44451" lon="4.72667">
        <ele>373.12890625</ele>
        <time>2012-10-13T08:26:54Z</time>
      </trkpt>
      <trkpt lat="45.44445" lon="4.72617">
        <ele>372.16748046875</ele>
        <time>2012-10-13T08:27:03Z</time>
      </trkpt>
      <trkpt lat="45.44442" lon="4.72568">
        <ele>373.12890625</ele>
        <time>2012-10-13T08:27:12Z</time>
      </trkpt>
      <trkpt lat="45.44443" lon="4.7252">
        <ele>373.12890625</ele>
        <time>2012-10-13T08:27:21Z</time>
      </trkpt>
      <trkpt lat="45.44441" lon="4.72469">
        <ele>373.12890625</ele>
        <time>2012-10-13T08:27:30Z</time>
      </trkpt>
      <trkpt lat="45.44436" lon="4.72423">
        <ele>376.49353027344</ele>
        <time>2012-10-13T08:27:38Z</time>
      </trkpt>
      <trkpt lat="45.44429" lon="4.72378">
        <ele>377.45483398438</ele>
        <time>2012-10-13T08:27:47Z</time>
      </trkpt>
      <trkpt lat="45.4442" lon="4.72351">
        <ele>377.93542480469</ele>
        <time>2012-10-13T08:27:53Z</time>
      </trkpt>
      <trkpt lat="45.44405" lon="4.72335">
        <ele>378.41613769531</ele>
        <time>2012-10-13T08:27:58Z</time>
      </trkpt>
      <trkpt lat="45.44377" lon="4.72316">
        <ele>378.89685058594</ele>
        <time>2012-10-13T08:28:06Z</time>
      </trkpt>
      <trkpt lat="45.44339" lon="4.72292">
        <ele>380.81945800781</ele>
        <time>2012-10-13T08:28:16Z</time>
      </trkpt>
      <trkpt lat="45.44305" lon="4.72263">
        <ele>385.6259765625</ele>
        <time>2012-10-13T08:28:25Z</time>
      </trkpt>
      <trkpt lat="45.44275" lon="4.72224">
        <ele>386.10668945312</ele>
        <time>2012-10-13T08:28:34Z</time>
      </trkpt>
      <trkpt lat="45.44241" lon="4.72185">
        <ele>388.029296875</ele>
        <time>2012-10-13T08:28:44Z</time>
      </trkpt>
      <trkpt lat="45.44221" lon="4.72163">
        <ele>388.029296875</ele>
        <time>2012-10-13T08:28:50Z</time>
      </trkpt>
      <trkpt lat="45.44209" lon="4.7215">
        <ele>390.91320800781</ele>
        <time>2012-10-13T08:28:55Z</time>
      </trkpt>
      <trkpt lat="45.44191" lon="4.72129">
        <ele>392.35534667969</ele>
        <time>2012-10-13T08:29:03Z</time>
      </trkpt>
      <trkpt lat="45.44166" lon="4.72113">
        <ele>395.23913574219</ele>
        <time>2012-10-13T08:29:12Z</time>
      </trkpt>
      <trkpt lat="45.44151" lon="4.72103">
        <ele>396.68115234375</ele>
        <time>2012-10-13T08:29:19Z</time>
      </trkpt>
      <trkpt lat="45.44138" lon="4.72093">
        <ele>397.64245605469</ele>
        <time>2012-10-13T08:29:25Z</time>
      </trkpt>
      <trkpt lat="45.44124" lon="4.72084">
        <ele>397.16174316406</ele>
        <time>2012-10-13T08:29:31Z</time>
      </trkpt>
      <trkpt lat="45.44098" lon="4.72065">
        <ele>397.64245605469</ele>
        <time>2012-10-13T08:29:41Z</time>
      </trkpt>
      <trkpt lat="45.44077" lon="4.72047">
        <ele>397.64245605469</ele>
        <time>2012-10-13T08:29:50Z</time>
      </trkpt>
      <trkpt lat="45.44063" lon="4.7203">
        <ele>400.52648925781</ele>
        <time>2012-10-13T08:29:57Z</time>
      </trkpt>
      <trkpt lat="45.44054" lon="4.72008">
        <ele>402.9296875</ele>
        <time>2012-10-13T08:30:04Z</time>
      </trkpt>
      <trkpt lat="45.44048" lon="4.71989">
        <ele>406.29431152344</ele>
        <time>2012-10-13T08:30:10Z</time>
      </trkpt>
      <trkpt lat="45.44035" lon="4.71955">
        <ele>406.29431152344</ele>
        <time>2012-10-13T08:30:20Z</time>
      </trkpt>
      <trkpt lat="45.44021" lon="4.71931">
        <ele>404.85229492188</ele>
        <time>2012-10-13T08:30:28Z</time>
      </trkpt>
      <trkpt lat="45.44004" lon="4.71922">
        <ele>405.81372070312</ele>
        <time>2012-10-13T08:30:34Z</time>
      </trkpt>
      <trkpt lat="45.43976" lon="4.71922">
        <ele>407.25561523438</ele>
        <time>2012-10-13T08:30:42Z</time>
      </trkpt>
      <trkpt lat="45.43946" lon="4.71914">
        <ele>407.25561523438</ele>
        <time>2012-10-13T08:30:50Z</time>
      </trkpt>
      <trkpt lat="45.43907" lon="4.71902">
        <ele>408.21704101562</ele>
        <time>2012-10-13T08:31:01Z</time>
      </trkpt>
      <trkpt lat="45.43881" lon="4.71889">
        <ele>407.736328125</ele>
        <time>2012-10-13T08:31:09Z</time>
      </trkpt>
      <trkpt lat="45.43862" lon="4.71876">
        <ele>408.21704101562</ele>
        <time>2012-10-13T08:31:16Z</time>
      </trkpt>
      <trkpt lat="45.43847" lon="4.71877">
        <ele>408.69763183594</ele>
        <time>2012-10-13T08:31:21Z</time>
      </trkpt>
      <trkpt lat="45.43827" lon="4.71888">
        <ele>407.25561523438</ele>
        <time>2012-10-13T08:31:25Z</time>
      </trkpt>
      <trkpt lat="45.43821" lon="4.71891">
        <ele>406.77490234375</ele>
        <time>2012-10-13T08:31:26Z</time>
      </trkpt>
      <trkpt lat="45.43785" lon="4.71888">
        <ele>404.37170410156</ele>
        <time>2012-10-13T08:31:30Z</time>
      </trkpt>
      <trkpt lat="45.43778" lon="4.71884">
        <ele>403.89111328125</ele>
        <time>2012-10-13T08:31:31Z</time>
      </trkpt>
      <trkpt lat="45.43743" lon="4.71862">
        <ele>403.89111328125</ele>
        <time>2012-10-13T08:31:37Z</time>
      </trkpt>
      <trkpt lat="45.43713" lon="4.71847">
        <ele>405.3330078125</ele>
        <time>2012-10-13T08:31:44Z</time>
      </trkpt>
      <trkpt lat="45.43677" lon="4.71828">
        <ele>405.81372070312</ele>
        <time>2012-10-13T08:31:52Z</time>
      </trkpt>
      <trkpt lat="45.43647" lon="4.71806">
        <ele>405.81372070312</ele>
        <time>2012-10-13T08:31:59Z</time>
      </trkpt>
      <trkpt lat="45.43644" lon="4.71804">
        <ele>406.77490234375</ele>
        <time>2012-10-13T08:32:00Z</time>
      </trkpt>
      <trkpt lat="45.4362" lon="4.71778">
        <ele>408.21704101562</ele>
        <time>2012-10-13T08:32:07Z</time>
      </trkpt>
      <trkpt lat="45.436" lon="4.71752">
        <ele>409.17834472656</ele>
        <time>2012-10-13T08:32:13Z</time>
      </trkpt>
      <trkpt lat="45.43595" lon="4.71742">
        <ele>407.736328125</ele>
        <time>2012-10-13T08:32:15Z</time>
      </trkpt>
      <trkpt lat="45.43583" lon="4.71725">
        <ele>408.69763183594</ele>
        <time>2012-10-13T08:32:19Z</time>
      </trkpt>
      <trkpt lat="45.43561" lon="4.71684">
        <ele>409.17834472656</ele>
        <time>2012-10-13T08:32:26Z</time>
      </trkpt>
      <trkpt lat="45.43551" lon="4.71649">
        <ele>411.58166503906</ele>
        <time>2012-10-13T08:32:32Z</time>
      </trkpt>
      <trkpt lat="45.43546" lon="4.71622">
        <ele>413.02355957031</ele>
        <time>2012-10-13T08:32:36Z</time>
      </trkpt>
      <trkpt lat="45.43537" lon="4.71583">
        <ele>412.54284667969</ele>
        <time>2012-10-13T08:32:41Z</time>
      </trkpt>
      <trkpt lat="45.43534" lon="4.7154">
        <ele>413.50427246094</ele>
        <time>2012-10-13T08:32:46Z</time>
      </trkpt>
      <trkpt lat="45.43538" lon="4.71478">
        <ele>411.10095214844</ele>
        <time>2012-10-13T08:32:54Z</time>
      </trkpt>
      <trkpt lat="45.43538" lon="4.71424">
        <ele>411.58166503906</ele>
        <time>2012-10-13T08:33:02Z</time>
      </trkpt>
      <trkpt lat="45.43539" lon="4.7137">
        <ele>411.58166503906</ele>
        <time>2012-10-13T08:33:11Z</time>
      </trkpt>
      <trkpt lat="45.4354" lon="4.71346">
        <ele>412.54284667969</ele>
        <time>2012-10-13T08:33:15Z</time>
      </trkpt>
      <trkpt lat="45.43544" lon="4.71319">
        <ele>411.58166503906</ele>
        <time>2012-10-13T08:33:21Z</time>
      </trkpt>
      <trkpt lat="45.43545" lon="4.71318">
        <ele>410.1396484375</ele>
        <time>2012-10-13T08:33:25Z</time>
      </trkpt>
      <trkpt lat="45.43545" lon="4.71316">
        <ele>411.10095214844</ele>
        <time>2012-10-13T08:33:33Z</time>
      </trkpt>
      <trkpt lat="45.43544" lon="4.71317">
        <ele>409.17834472656</ele>
        <time>2012-10-13T08:33:53Z</time>
      </trkpt>
      <trkpt lat="45.43545" lon="4.7132">
        <ele>402.9296875</ele>
        <time>2012-10-13T08:34:25Z</time>
      </trkpt>
      <trkpt lat="45.43537" lon="4.71331">
        <ele>403.89111328125</ele>
        <time>2012-10-13T08:36:08Z</time>
      </trkpt>
      <trkpt lat="45.43534" lon="4.7133">
        <ele>407.25561523438</ele>
        <time>2012-10-13T08:36:13Z</time>
      </trkpt>
      <trkpt lat="45.43536" lon="4.71311">
        <ele>410.62023925781</ele>
        <time>2012-10-13T08:36:19Z</time>
      </trkpt>
      <trkpt lat="45.4354" lon="4.71284">
        <ele>412.06225585938</ele>
        <time>2012-10-13T08:36:25Z</time>
      </trkpt>
      <trkpt lat="45.43548" lon="4.7126">
        <ele>413.02355957031</ele>
        <time>2012-10-13T08:36:30Z</time>
      </trkpt>
      <trkpt lat="45.43555" lon="4.71235">
        <ele>414.94616699219</ele>
        <time>2012-10-13T08:36:35Z</time>
      </trkpt>
      <trkpt lat="45.43562" lon="4.71199">
        <ele>417.83020019531</ele>
        <time>2012-10-13T08:36:42Z</time>
      </trkpt>
      <trkpt lat="45.4357" lon="4.71163">
        <ele>419.75280761719</ele>
        <time>2012-10-13T08:36:50Z</time>
      </trkpt>
      <trkpt lat="45.43574" lon="4.71141">
        <ele>421.67541503906</ele>
        <time>2012-10-13T08:36:55Z</time>
      </trkpt>
      <trkpt lat="45.43576" lon="4.71111">
        <ele>423.11743164062</ele>
        <time>2012-10-13T08:37:01Z</time>
      </trkpt>
      <trkpt lat="45.43565" lon="4.71081">
        <ele>423.11743164062</ele>
        <time>2012-10-13T08:37:06Z</time>
      </trkpt>
      <trkpt lat="45.43548" lon="4.71039">
        <ele>422.15600585938</ele>
        <time>2012-10-13T08:37:12Z</time>
      </trkpt>
      <trkpt lat="45.43546" lon="4.71031">
        <ele>421.19482421875</ele>
        <time>2012-10-13T08:37:13Z</time>
      </trkpt>
      <trkpt lat="45.43538" lon="4.71017">
        <ele>419.27221679688</ele>
        <time>2012-10-13T08:37:16Z</time>
      </trkpt>
      <trkpt lat="45.43526" lon="4.71008">
        <ele>417.83020019531</ele>
        <time>2012-10-13T08:37:19Z</time>
      </trkpt>
      <trkpt lat="45.43481" lon="4.70974">
        <ele>411.58166503906</ele>
        <time>2012-10-13T08:37:28Z</time>
      </trkpt>
      <trkpt lat="45.43465" lon="4.70964">
        <ele>410.62023925781</ele>
        <time>2012-10-13T08:37:31Z</time>
      </trkpt>
      <trkpt lat="45.43449" lon="4.70951">
        <ele>409.65905761719</ele>
        <time>2012-10-13T08:37:34Z</time>
      </trkpt>
      <trkpt lat="45.43432" lon="4.70939">
        <ele>407.736328125</ele>
        <time>2012-10-13T08:37:37Z</time>
      </trkpt>
      <trkpt lat="45.43413" lon="4.7091">
        <ele>406.77490234375</ele>
        <time>2012-10-13T08:37:41Z</time>
      </trkpt>
      <trkpt lat="45.43407" lon="4.70891">
        <ele>406.77490234375</ele>
        <time>2012-10-13T08:37:43Z</time>
      </trkpt>
      <trkpt lat="45.43396" lon="4.70869">
        <ele>405.3330078125</ele>
        <time>2012-10-13T08:37:46Z</time>
      </trkpt>
      <trkpt lat="45.43382" lon="4.70839">
        <ele>406.29431152344</ele>
        <time>2012-10-13T08:37:50Z</time>
      </trkpt>
      <trkpt lat="45.43365" lon="4.70825">
        <ele>410.1396484375</ele>
        <time>2012-10-13T08:37:54Z</time>
      </trkpt>
      <trkpt lat="45.4336" lon="4.70827">
        <ele>410.62023925781</ele>
        <time>2012-10-13T08:37:55Z</time>
      </trkpt>
      <trkpt lat="45.43322" lon="4.70836">
        <ele>412.54284667969</ele>
        <time>2012-10-13T08:38:02Z</time>
      </trkpt>
      <trkpt lat="45.43306" lon="4.70837">
        <ele>413.50427246094</ele>
        <time>2012-10-13T08:38:05Z</time>
      </trkpt>
      <trkpt lat="45.43288" lon="4.70826">
        <ele>412.54284667969</ele>
        <time>2012-10-13T08:38:09Z</time>
      </trkpt>
      <trkpt lat="45.43282" lon="4.70818">
        <ele>413.50427246094</ele>
        <time>2012-10-13T08:38:11Z</time>
      </trkpt>
      <trkpt lat="45.43277" lon="4.70812">
        <ele>413.98486328125</ele>
        <time>2012-10-13T08:38:13Z</time>
      </trkpt>
      <trkpt lat="45.43271" lon="4.70801">
        <ele>414.46545410156</ele>
        <time>2012-10-13T08:38:17Z</time>
      </trkpt>
      <trkpt lat="45.43257" lon="4.70785">
        <ele>415.90747070312</ele>
        <time>2012-10-13T08:38:24Z</time>
      </trkpt>
      <trkpt lat="45.43245" lon="4.7077">
        <ele>417.83020019531</ele>
        <time>2012-10-13T08:38:30Z</time>
      </trkpt>
      <trkpt lat="45.43231" lon="4.70752">
        <ele>419.75280761719</ele>
        <time>2012-10-13T08:38:37Z</time>
      </trkpt>
      <trkpt lat="45.43218" lon="4.70735">
        <ele>421.67541503906</ele>
        <time>2012-10-13T08:38:43Z</time>
      </trkpt>
      <trkpt lat="45.43203" lon="4.70717">
        <ele>422.15600585938</ele>
        <time>2012-10-13T08:38:49Z</time>
      </trkpt>
      <trkpt lat="45.43186" lon="4.70697">
        <ele>422.63671875</ele>
        <time>2012-10-13T08:38:56Z</time>
      </trkpt>
      <trkpt lat="45.43167" lon="4.70676">
        <ele>423.11743164062</ele>
        <time>2012-10-13T08:39:04Z</time>
      </trkpt>
      <trkpt lat="45.43166" lon="4.70661">
        <ele>424.55944824219</ele>
        <time>2012-10-13T08:39:08Z</time>
      </trkpt>
      <trkpt lat="45.43176" lon="4.70639">
        <ele>430.32727050781</ele>
        <time>2012-10-13T08:39:16Z</time>
      </trkpt>
      <trkpt lat="45.4318" lon="4.70623">
        <ele>430.80798339844</ele>
        <time>2012-10-13T08:39:22Z</time>
      </trkpt>
      <trkpt lat="45.43181" lon="4.70621">
        <ele>431.28857421875</ele>
        <time>2012-10-13T08:39:23Z</time>
      </trkpt>
      <trkpt lat="45.43189" lon="4.70603">
        <ele>433.21130371094</ele>
        <time>2012-10-13T08:39:29Z</time>
      </trkpt>
      <trkpt lat="45.4321" lon="4.70567">
        <ele>437.537109375</ele>
        <time>2012-10-13T08:39:40Z</time>
      </trkpt>
      <trkpt lat="45.43219" lon="4.70552">
        <ele>438.97912597656</ele>
        <time>2012-10-13T08:39:45Z</time>
      </trkpt>
      <trkpt lat="45.43225" lon="4.70525">
        <ele>441.86315917969</ele>
        <time>2012-10-13T08:39:52Z</time>
      </trkpt>
      <trkpt lat="45.4323" lon="4.7049">
        <ele>438.01782226562</ele>
        <time>2012-10-13T08:39:59Z</time>
      </trkpt>
      <trkpt lat="45.43238" lon="4.70464">
        <ele>438.97912597656</ele>
        <time>2012-10-13T08:40:05Z</time>
      </trkpt>
      <trkpt lat="45.4325" lon="4.7044">
        <ele>440.42126464844</ele>
        <time>2012-10-13T08:40:12Z</time>
      </trkpt>
      <trkpt lat="45.43264" lon="4.70423">
        <ele>439.9404296875</ele>
        <time>2012-10-13T08:40:18Z</time>
      </trkpt>
      <trkpt lat="45.43279" lon="4.70407">
        <ele>440.42126464844</ele>
        <time>2012-10-13T08:40:24Z</time>
      </trkpt>
      <trkpt lat="45.43295" lon="4.70384">
        <ele>441.38244628906</ele>
        <time>2012-10-13T08:40:31Z</time>
      </trkpt>
      <trkpt lat="45.43309" lon="4.70356">
        <ele>442.82446289062</ele>
        <time>2012-10-13T08:40:39Z</time>
      </trkpt>
      <trkpt lat="45.43325" lon="4.7032">
        <ele>444.7470703125</ele>
        <time>2012-10-13T08:40:49Z</time>
      </trkpt>
      <trkpt lat="45.43335" lon="4.70295">
        <ele>446.18908691406</ele>
        <time>2012-10-13T08:40:56Z</time>
      </trkpt>
      <trkpt lat="45.43337" lon="4.7027">
        <ele>447.15026855469</ele>
        <time>2012-10-13T08:41:02Z</time>
      </trkpt>
      <trkpt lat="45.43344" lon="4.70247">
        <ele>450.03442382812</ele>
        <time>2012-10-13T08:41:08Z</time>
      </trkpt>
      <trkpt lat="45.43352" lon="4.70218">
        <ele>450.99560546875</ele>
        <time>2012-10-13T08:41:16Z</time>
      </trkpt>
      <trkpt lat="45.4335" lon="4.70188">
        <ele>452.43762207031</ele>
        <time>2012-10-13T08:41:23Z</time>
      </trkpt>
      <trkpt lat="45.43349" lon="4.70155">
        <ele>454.36022949219</ele>
        <time>2012-10-13T08:41:31Z</time>
      </trkpt>
      <trkpt lat="45.43346" lon="4.70133">
        <ele>454.8408203125</ele>
        <time>2012-10-13T08:41:37Z</time>
      </trkpt>
      <trkpt lat="45.43349" lon="4.70113">
        <ele>455.80224609375</ele>
        <time>2012-10-13T08:41:43Z</time>
      </trkpt>
      <trkpt lat="45.43357" lon="4.70097">
        <ele>457.24426269531</ele>
        <time>2012-10-13T08:41:50Z</time>
      </trkpt>
      <trkpt lat="45.43365" lon="4.70082">
        <ele>458.68615722656</ele>
        <time>2012-10-13T08:41:57Z</time>
      </trkpt>
      <trkpt lat="45.43378" lon="4.70058">
        <ele>459.64758300781</ele>
        <time>2012-10-13T08:42:08Z</time>
      </trkpt>
      <trkpt lat="45.43387" lon="4.7004">
        <ele>462.53137207031</ele>
        <time>2012-10-13T08:42:16Z</time>
      </trkpt>
      <trkpt lat="45.43397" lon="4.7003">
        <ele>463.97338867188</ele>
        <time>2012-10-13T08:42:23Z</time>
      </trkpt>
      <trkpt lat="45.43406" lon="4.70011">
        <ele>465.41552734375</ele>
        <time>2012-10-13T08:42:33Z</time>
      </trkpt>
      <trkpt lat="45.43414" lon="4.69994">
        <ele>467.33813476562</ele>
        <time>2012-10-13T08:42:41Z</time>
      </trkpt>
      <trkpt lat="45.43422" lon="4.69973">
        <ele>470.22192382812</ele>
        <time>2012-10-13T08:42:50Z</time>
      </trkpt>
      <trkpt lat="45.43432" lon="4.69955">
        <ele>473.10607910156</ele>
        <time>2012-10-13T08:42:58Z</time>
      </trkpt>
      <trkpt lat="45.43443" lon="4.69939">
        <ele>475.50927734375</ele>
        <time>2012-10-13T08:43:06Z</time>
      </trkpt>
      <trkpt lat="45.43457" lon="4.69916">
        <ele>477.91247558594</ele>
        <time>2012-10-13T08:43:16Z</time>
      </trkpt>
      <trkpt lat="45.43467" lon="4.69901">
        <ele>478.87390136719</ele>
        <time>2012-10-13T08:43:22Z</time>
      </trkpt>
      <trkpt lat="45.43478" lon="4.69882">
        <ele>479.83508300781</ele>
        <time>2012-10-13T08:43:29Z</time>
      </trkpt>
      <trkpt lat="45.43484" lon="4.69866">
        <ele>480.79663085938</ele>
        <time>2012-10-13T08:43:35Z</time>
      </trkpt>
      <trkpt lat="45.43491" lon="4.69848">
        <ele>481.27722167969</ele>
        <time>2012-10-13T08:43:41Z</time>
      </trkpt>
      <trkpt lat="45.43497" lon="4.69831">
        <ele>483.19982910156</ele>
        <time>2012-10-13T08:43:47Z</time>
      </trkpt>
      <trkpt lat="45.43506" lon="4.6981">
        <ele>487.52563476562</ele>
        <time>2012-10-13T08:43:55Z</time>
      </trkpt>
      <trkpt lat="45.43514" lon="4.69783">
        <ele>490.40979003906</ele>
        <time>2012-10-13T08:44:04Z</time>
      </trkpt>
      <trkpt lat="45.43519" lon="4.69766">
        <ele>492.33239746094</ele>
        <time>2012-10-13T08:44:10Z</time>
      </trkpt>
      <trkpt lat="45.4353" lon="4.69747">
        <ele>492.81298828125</ele>
        <time>2012-10-13T08:44:17Z</time>
      </trkpt>
      <trkpt lat="45.4354" lon="4.69731">
        <ele>493.77429199219</ele>
        <time>2012-10-13T08:44:23Z</time>
      </trkpt>
      <trkpt lat="45.43551" lon="4.69717">
        <ele>491.37097167969</ele>
        <time>2012-10-13T08:44:29Z</time>
      </trkpt>
      <trkpt lat="45.43561" lon="4.69696">
        <ele>491.85168457031</ele>
        <time>2012-10-13T08:44:36Z</time>
      </trkpt>
      <trkpt lat="45.43568" lon="4.69671">
        <ele>490.89038085938</ele>
        <time>2012-10-13T08:44:43Z</time>
      </trkpt>
      <trkpt lat="45.43576" lon="4.69651">
        <ele>492.33239746094</ele>
        <time>2012-10-13T08:44:49Z</time>
      </trkpt>
      <trkpt lat="45.43585" lon="4.69631">
        <ele>493.77429199219</ele>
        <time>2012-10-13T08:44:56Z</time>
      </trkpt>
      <trkpt lat="45.43599" lon="4.6961">
        <ele>494.25500488281</ele>
        <time>2012-10-13T08:45:03Z</time>
      </trkpt>
      <trkpt lat="45.43613" lon="4.69589">
        <ele>495.69689941406</ele>
        <time>2012-10-13T08:45:10Z</time>
      </trkpt>
      <trkpt lat="45.43625" lon="4.69567">
        <ele>497.13891601562</ele>
        <time>2012-10-13T08:45:17Z</time>
      </trkpt>
      <trkpt lat="45.43642" lon="4.69538">
        <ele>497.61962890625</ele>
        <time>2012-10-13T08:45:25Z</time>
      </trkpt>
      <trkpt lat="45.4366" lon="4.69516">
        <ele>496.65832519531</ele>
        <time>2012-10-13T08:45:30Z</time>
      </trkpt>
      <trkpt lat="45.43669" lon="4.69499">
        <ele>495.21618652344</ele>
        <time>2012-10-13T08:45:34Z</time>
      </trkpt>
      <trkpt lat="45.43664" lon="4.69491">
        <ele>493.29357910156</ele>
        <time>2012-10-13T08:45:38Z</time>
      </trkpt>
      <trkpt lat="45.43664" lon="4.69492">
        <ele>492.81298828125</ele>
        <time>2012-10-13T08:45:42Z</time>
      </trkpt>
      <trkpt lat="45.43675" lon="4.6949">
        <ele>493.29357910156</ele>
        <time>2012-10-13T08:45:47Z</time>
      </trkpt>
      <trkpt lat="45.43694" lon="4.69484">
        <ele>493.29357910156</ele>
        <time>2012-10-13T08:45:52Z</time>
      </trkpt>
      <trkpt lat="45.43723" lon="4.69474">
        <ele>493.29357910156</ele>
        <time>2012-10-13T08:45:59Z</time>
      </trkpt>
      <trkpt lat="45.43736" lon="4.69469">
        <ele>492.81298828125</ele>
        <time>2012-10-13T08:46:02Z</time>
      </trkpt>
      <trkpt lat="45.43752" lon="4.69462">
        <ele>492.33239746094</ele>
        <time>2012-10-13T08:46:06Z</time>
      </trkpt>
      <trkpt lat="45.43763" lon="4.69458">
        <ele>492.33239746094</ele>
        <time>2012-10-13T08:46:11Z</time>
      </trkpt>
      <trkpt lat="45.43773" lon="4.69461">
        <ele>492.33239746094</ele>
        <time>2012-10-13T08:46:16Z</time>
      </trkpt>
      <trkpt lat="45.43777" lon="4.69463">
        <ele>492.81298828125</ele>
        <time>2012-10-13T08:46:18Z</time>
      </trkpt>
      <trkpt lat="45.43801" lon="4.69472">
        <ele>494.25500488281</ele>
        <time>2012-10-13T08:46:26Z</time>
      </trkpt>
      <trkpt lat="45.43826" lon="4.69481">
        <ele>495.21618652344</ele>
        <time>2012-10-13T08:46:33Z</time>
      </trkpt>
      <trkpt lat="45.43834" lon="4.69482">
        <ele>495.69689941406</ele>
        <time>2012-10-13T08:46:35Z</time>
      </trkpt>
      <trkpt lat="45.43847" lon="4.69468">
        <ele>495.69689941406</ele>
        <time>2012-10-13T08:46:40Z</time>
      </trkpt>
      <trkpt lat="45.43851" lon="4.69463">
        <ele>496.177734375</ele>
        <time>2012-10-13T08:46:42Z</time>
      </trkpt>
      <trkpt lat="45.43866" lon="4.69444">
        <ele>497.61962890625</ele>
        <time>2012-10-13T08:46:50Z</time>
      </trkpt>
      <trkpt lat="45.4389" lon="4.69418">
        <ele>499.54223632812</ele>
        <time>2012-10-13T08:47:01Z</time>
      </trkpt>
      <trkpt lat="45.43907" lon="4.69397">
        <ele>498.58093261719</ele>
        <time>2012-10-13T08:47:09Z</time>
      </trkpt>
      <trkpt lat="45.43924" lon="4.69377">
        <ele>500.02294921875</ele>
        <time>2012-10-13T08:47:17Z</time>
      </trkpt>
      <trkpt lat="45.4394" lon="4.69355">
        <ele>501.46484375</ele>
        <time>2012-10-13T08:47:25Z</time>
      </trkpt>
      <trkpt lat="45.43964" lon="4.69328">
        <ele>503.38745117188</ele>
        <time>2012-10-13T08:47:35Z</time>
      </trkpt>
      <trkpt lat="45.43985" lon="4.69305">
        <ele>505.79089355469</ele>
        <time>2012-10-13T08:47:44Z</time>
      </trkpt>
      <trkpt lat="45.44002" lon="4.69287">
        <ele>507.71350097656</ele>
        <time>2012-10-13T08:47:53Z</time>
      </trkpt>
      <trkpt lat="45.44016" lon="4.69271">
        <ele>509.63610839844</ele>
        <time>2012-10-13T08:48:01Z</time>
      </trkpt>
      <trkpt lat="45.44032" lon="4.69252">
        <ele>512.52001953125</ele>
        <time>2012-10-13T08:48:11Z</time>
      </trkpt>
      <trkpt lat="45.44044" lon="4.69238">
        <ele>513.00073242188</ele>
        <time>2012-10-13T08:48:18Z</time>
      </trkpt>
      <trkpt lat="45.44058" lon="4.69223">
        <ele>515.88464355469</ele>
        <time>2012-10-13T08:48:26Z</time>
      </trkpt>
      <trkpt lat="45.44075" lon="4.69208">
        <ele>516.365234375</ele>
        <time>2012-10-13T08:48:35Z</time>
      </trkpt>
      <trkpt lat="45.44091" lon="4.69195">
        <ele>518.28784179688</ele>
        <time>2012-10-13T08:48:43Z</time>
      </trkpt>
      <trkpt lat="45.4411" lon="4.6918">
        <ele>520.69128417969</ele>
        <time>2012-10-13T08:48:52Z</time>
      </trkpt>
      <trkpt lat="45.44123" lon="4.69165">
        <ele>522.61389160156</ele>
        <time>2012-10-13T08:48:59Z</time>
      </trkpt>
      <trkpt lat="45.44139" lon="4.69143">
        <ele>525.01721191406</ele>
        <time>2012-10-13T08:49:08Z</time>
      </trkpt>
      <trkpt lat="45.4415" lon="4.69125">
        <ele>527.90100097656</ele>
        <time>2012-10-13T08:49:15Z</time>
      </trkpt>
      <trkpt lat="45.44163" lon="4.69102">
        <ele>530.78515625</ele>
        <time>2012-10-13T08:49:24Z</time>
      </trkpt>
      <trkpt lat="45.44177" lon="4.6908">
        <ele>533.18835449219</ele>
        <time>2012-10-13T08:49:32Z</time>
      </trkpt>
      <trkpt lat="45.44195" lon="4.69058">
        <ele>534.63037109375</ele>
        <time>2012-10-13T08:49:41Z</time>
      </trkpt>
      <trkpt lat="45.44213" lon="4.69037">
        <ele>537.51428222656</ele>
        <time>2012-10-13T08:49:49Z</time>
      </trkpt>
      <trkpt lat="45.44229" lon="4.69014">
        <ele>540.39831542969</ele>
        <time>2012-10-13T08:49:56Z</time>
      </trkpt>
      <trkpt lat="45.44247" lon="4.68986">
        <ele>541.35949707031</ele>
        <time>2012-10-13T08:50:04Z</time>
      </trkpt>
      <trkpt lat="45.4426" lon="4.6897">
        <ele>541.35949707031</ele>
        <time>2012-10-13T08:50:09Z</time>
      </trkpt>
      <trkpt lat="45.44286" lon="4.68951">
        <ele>541.84020996094</ele>
        <time>2012-10-13T08:50:16Z</time>
      </trkpt>
      <trkpt lat="45.44321" lon="4.68925">
        <ele>543.76281738281</ele>
        <time>2012-10-13T08:50:26Z</time>
      </trkpt>
      <trkpt lat="45.44343" lon="4.68917">
        <ele>544.72424316406</ele>
        <time>2012-10-13T08:50:33Z</time>
      </trkpt>
      <trkpt lat="45.44369" lon="4.68908">
        <ele>546.64685058594</ele>
        <time>2012-10-13T08:50:42Z</time>
      </trkpt>
      <trkpt lat="45.44375" lon="4.68907">
        <ele>546.64685058594</ele>
        <time>2012-10-13T08:50:47Z</time>
      </trkpt>
      <trkpt lat="45.44378" lon="4.68908">
        <ele>547.12744140625</ele>
        <time>2012-10-13T08:50:53Z</time>
      </trkpt>
      <trkpt lat="45.44379" lon="4.6891">
        <ele>546.16625976562</ele>
        <time>2012-10-13T08:50:59Z</time>
      </trkpt>
      <trkpt lat="45.44379" lon="4.68908">
        <ele>544.72424316406</ele>
        <time>2012-10-13T08:51:07Z</time>
      </trkpt>
      <trkpt lat="45.44381" lon="4.68911">
        <ele>545.685546875</ele>
        <time>2012-10-13T08:51:14Z</time>
      </trkpt>
      <trkpt lat="45.44381" lon="4.68909">
        <ele>545.685546875</ele>
        <time>2012-10-13T08:51:20Z</time>
      </trkpt>
      <trkpt lat="45.44384" lon="4.68897">
        <ele>527.90100097656</ele>
        <time>2012-10-13T08:53:36Z</time>
      </trkpt>
      <trkpt lat="45.44383" lon="4.68897">
        <ele>526.45910644531</ele>
        <time>2012-10-13T08:54:12Z</time>
      </trkpt>
      <trkpt lat="45.44382" lon="4.68895">
        <ele>522.61389160156</ele>
        <time>2012-10-13T08:54:42Z</time>
      </trkpt>
      <trkpt lat="45.44382" lon="4.68896">
        <ele>524.05578613281</ele>
        <time>2012-10-13T08:55:03Z</time>
      </trkpt>
      <trkpt lat="45.44383" lon="4.68896">
        <ele>524.05578613281</ele>
        <time>2012-10-13T08:55:38Z</time>
      </trkpt>
      <trkpt lat="45.44383" lon="4.68898">
        <ele>525.97839355469</ele>
        <time>2012-10-13T08:56:20Z</time>
      </trkpt>
      <trkpt lat="45.44384" lon="4.68901">
        <ele>527.90100097656</ele>
        <time>2012-10-13T08:56:28Z</time>
      </trkpt>
      <trkpt lat="45.44384" lon="4.68898">
        <ele>530.30444335938</ele>
        <time>2012-10-13T08:56:36Z</time>
      </trkpt>
      <trkpt lat="45.44385" lon="4.68898">
        <ele>530.30444335938</ele>
        <time>2012-10-13T08:56:40Z</time>
      </trkpt>
      <trkpt lat="45.44384" lon="4.68897">
        <ele>530.78515625</ele>
        <time>2012-10-13T08:56:41Z</time>
      </trkpt>
      <trkpt lat="45.44384" lon="4.68882">
        <ele>533.18835449219</ele>
        <time>2012-10-13T08:56:47Z</time>
      </trkpt>
      <trkpt lat="45.4439" lon="4.68877">
        <ele>534.63037109375</ele>
        <time>2012-10-13T08:56:50Z</time>
      </trkpt>
      <trkpt lat="45.44414" lon="4.68862">
        <ele>537.99499511719</ele>
        <time>2012-10-13T08:56:59Z</time>
      </trkpt>
      <trkpt lat="45.4444" lon="4.68843">
        <ele>542.32092285156</ele>
        <time>2012-10-13T08:57:09Z</time>
      </trkpt>
      <trkpt lat="45.44464" lon="4.68824">
        <ele>545.685546875</ele>
        <time>2012-10-13T08:57:18Z</time>
      </trkpt>
      <trkpt lat="45.44485" lon="4.68808">
        <ele>547.12744140625</ele>
        <time>2012-10-13T08:57:26Z</time>
      </trkpt>
      <trkpt lat="45.44506" lon="4.6879">
        <ele>549.53076171875</ele>
        <time>2012-10-13T08:57:35Z</time>
      </trkpt>
      <trkpt lat="45.44529" lon="4.68766">
        <ele>551.93408203125</ele>
        <time>2012-10-13T08:57:46Z</time>
      </trkpt>
      <trkpt lat="45.44546" lon="4.6875">
        <ele>553.3759765625</ele>
        <time>2012-10-13T08:57:54Z</time>
      </trkpt>
      <trkpt lat="45.44565" lon="4.68733">
        <ele>555.779296875</ele>
        <time>2012-10-13T08:58:03Z</time>
      </trkpt>
      <trkpt lat="45.4458" lon="4.68722">
        <ele>559.14404296875</ele>
        <time>2012-10-13T08:58:10Z</time>
      </trkpt>
      <trkpt lat="45.44601" lon="4.68702">
        <ele>561.06665039062</ele>
        <time>2012-10-13T08:58:20Z</time>
      </trkpt>
      <trkpt lat="45.44627" lon="4.68684">
        <ele>562.9892578125</ele>
        <time>2012-10-13T08:58:30Z</time>
      </trkpt>
      <trkpt lat="45.44654" lon="4.68663">
        <ele>564.91186523438</ele>
        <time>2012-10-13T08:58:41Z</time>
      </trkpt>
      <trkpt lat="45.4467" lon="4.68644">
        <ele>566.35375976562</ele>
        <time>2012-10-13T08:58:49Z</time>
      </trkpt>
      <trkpt lat="45.44686" lon="4.68626">
        <ele>567.31518554688</ele>
        <time>2012-10-13T08:58:57Z</time>
      </trkpt>
      <trkpt lat="45.44701" lon="4.68612">
        <ele>567.31518554688</ele>
        <time>2012-10-13T08:59:04Z</time>
      </trkpt>
      <trkpt lat="45.44716" lon="4.68595">
        <ele>568.2763671875</ele>
        <time>2012-10-13T08:59:12Z</time>
      </trkpt>
      <trkpt lat="45.4472" lon="4.68592">
        <ele>568.75708007812</ele>
        <time>2012-10-13T08:59:15Z</time>
      </trkpt>
      <trkpt lat="45.44723" lon="4.68596">
        <ele>569.71850585938</ele>
        <time>2012-10-13T08:59:19Z</time>
      </trkpt>
      <trkpt lat="45.44732" lon="4.68603">
        <ele>572.12182617188</ele>
        <time>2012-10-13T08:59:27Z</time>
      </trkpt>
      <trkpt lat="45.44738" lon="4.68609">
        <ele>572.6025390625</ele>
        <time>2012-10-13T08:59:34Z</time>
      </trkpt>
      <trkpt lat="45.44744" lon="4.68617">
        <ele>571.16040039062</ele>
        <time>2012-10-13T08:59:41Z</time>
      </trkpt>
      <trkpt lat="45.44754" lon="4.68627">
        <ele>573.08325195312</ele>
        <time>2012-10-13T08:59:49Z</time>
      </trkpt>
      <trkpt lat="45.44759" lon="4.68632">
        <ele>573.08325195312</ele>
        <time>2012-10-13T08:59:53Z</time>
      </trkpt>
      <trkpt lat="45.44768" lon="4.68641">
        <ele>574.52514648438</ele>
        <time>2012-10-13T09:00:00Z</time>
      </trkpt>
      <trkpt lat="45.44778" lon="4.68653">
        <ele>575.96704101562</ele>
        <time>2012-10-13T09:00:09Z</time>
      </trkpt>
      <trkpt lat="45.44786" lon="4.68664">
        <ele>578.85107421875</ele>
        <time>2012-10-13T09:00:17Z</time>
      </trkpt>
      <trkpt lat="45.44793" lon="4.68672">
        <ele>577.8896484375</ele>
        <time>2012-10-13T09:00:23Z</time>
      </trkpt>
      <trkpt lat="45.44799" lon="4.68679">
        <ele>577.8896484375</ele>
        <time>2012-10-13T09:00:29Z</time>
      </trkpt>
      <trkpt lat="45.44811" lon="4.68689">
        <ele>576.44775390625</ele>
        <time>2012-10-13T09:00:36Z</time>
      </trkpt>
      <trkpt lat="45.44823" lon="4.68698">
        <ele>573.56396484375</ele>
        <time>2012-10-13T09:00:44Z</time>
      </trkpt>
      <trkpt lat="45.44827" lon="4.687">
        <ele>574.52514648438</ele>
        <time>2012-10-13T09:00:46Z</time>
      </trkpt>
      <trkpt lat="45.44831" lon="4.68699">
        <ele>575.486328125</ele>
        <time>2012-10-13T09:00:49Z</time>
      </trkpt>
      <trkpt lat="45.44834" lon="4.68691">
        <ele>576.44775390625</ele>
        <time>2012-10-13T09:00:56Z</time>
      </trkpt>
      <trkpt lat="45.4484" lon="4.6868">
        <ele>577.4091796875</ele>
        <time>2012-10-13T09:01:05Z</time>
      </trkpt>
      <trkpt lat="45.4485" lon="4.68668">
        <ele>578.37036132812</ele>
        <time>2012-10-13T09:01:13Z</time>
      </trkpt>
      <trkpt lat="45.44862" lon="4.68656">
        <ele>579.33154296875</ele>
        <time>2012-10-13T09:01:21Z</time>
      </trkpt>
      <trkpt lat="45.44875" lon="4.68649">
        <ele>581.73486328125</ele>
        <time>2012-10-13T09:01:29Z</time>
      </trkpt>
      <trkpt lat="45.44888" lon="4.68644">
        <ele>583.65747070312</ele>
        <time>2012-10-13T09:01:36Z</time>
      </trkpt>
      <trkpt lat="45.44901" lon="4.68638">
        <ele>585.099609375</ele>
        <time>2012-10-13T09:01:43Z</time>
      </trkpt>
      <trkpt lat="45.44911" lon="4.68634">
        <ele>586.06079101562</ele>
        <time>2012-10-13T09:01:49Z</time>
      </trkpt>
      <trkpt lat="45.44928" lon="4.68627">
        <ele>588.94506835938</ele>
        <time>2012-10-13T09:01:57Z</time>
      </trkpt>
      <trkpt lat="45.44939" lon="4.68627">
        <ele>592.3095703125</ele>
        <time>2012-10-13T09:02:03Z</time>
      </trkpt>
      <trkpt lat="45.44954" lon="4.68633">
        <ele>597.5966796875</ele>
        <time>2012-10-13T09:02:10Z</time>
      </trkpt>
      <trkpt lat="45.44969" lon="4.68639">
        <ele>600</ele>
        <time>2012-10-13T09:02:17Z</time>
      </trkpt>
      <trkpt lat="45.44981" lon="4.6864">
        <ele>603.84521484375</ele>
        <time>2012-10-13T09:02:23Z</time>
      </trkpt>
      <trkpt lat="45.4499" lon="4.6864">
        <ele>606.24853515625</ele>
        <time>2012-10-13T09:02:28Z</time>
      </trkpt>
      <trkpt lat="45.45001" lon="4.68636">
        <ele>607.2099609375</ele>
        <time>2012-10-13T09:02:33Z</time>
      </trkpt>
      <trkpt lat="45.4501" lon="4.68629">
        <ele>608.17138671875</ele>
        <time>2012-10-13T09:02:37Z</time>
      </trkpt>
      <trkpt lat="45.4502" lon="4.68615">
        <ele>609.13256835938</ele>
        <time>2012-10-13T09:02:43Z</time>
      </trkpt>
      <trkpt lat="45.45025" lon="4.68609">
        <ele>609.61328125</ele>
        <time>2012-10-13T09:02:46Z</time>
      </trkpt>
      <trkpt lat="45.45034" lon="4.68597">
        <ele>610.57446289062</ele>
        <time>2012-10-13T09:02:51Z</time>
      </trkpt>
      <trkpt lat="45.4504" lon="4.68581">
        <ele>610.57446289062</ele>
        <time>2012-10-13T09:02:58Z</time>
      </trkpt>
      <trkpt lat="45.45041" lon="4.68573">
        <ele>610.57446289062</ele>
        <time>2012-10-13T09:03:01Z</time>
      </trkpt>
      <trkpt lat="45.45042" lon="4.68556">
        <ele>612.0166015625</ele>
        <time>2012-10-13T09:03:06Z</time>
      </trkpt>
      <trkpt lat="45.45045" lon="4.6854">
        <ele>614.41967773438</ele>
        <time>2012-10-13T09:03:12Z</time>
      </trkpt>
      <trkpt lat="45.45054" lon="4.68516">
        <ele>614.41967773438</ele>
        <time>2012-10-13T09:03:20Z</time>
      </trkpt>
      <trkpt lat="45.45055" lon="4.6851">
        <ele>615.86181640625</ele>
        <time>2012-10-13T09:03:22Z</time>
      </trkpt>
      <trkpt lat="45.45052" lon="4.68496">
        <ele>612.0166015625</ele>
        <time>2012-10-13T09:03:27Z</time>
      </trkpt>
      <trkpt lat="45.45045" lon="4.68502">
        <ele>606.72924804688</ele>
        <time>2012-10-13T09:03:35Z</time>
      </trkpt>
      <trkpt lat="45.45042" lon="4.68506">
        <ele>609.13256835938</ele>
        <time>2012-10-13T09:03:37Z</time>
      </trkpt>
      <trkpt lat="45.45034" lon="4.68522">
        <ele>609.61328125</ele>
        <time>2012-10-13T09:03:44Z</time>
      </trkpt>
      <trkpt lat="45.45026" lon="4.68534">
        <ele>610.57446289062</ele>
        <time>2012-10-13T09:03:50Z</time>
      </trkpt>
      <trkpt lat="45.45017" lon="4.68543">
        <ele>608.17138671875</ele>
        <time>2012-10-13T09:03:56Z</time>
      </trkpt>
      <trkpt lat="45.4501" lon="4.68547">
        <ele>607.69067382812</ele>
        <time>2012-10-13T09:04:01Z</time>
      </trkpt>
      <trkpt lat="45.45" lon="4.68543">
        <ele>608.17138671875</ele>
        <time>2012-10-13T09:04:07Z</time>
      </trkpt>
      <trkpt lat="45.44996" lon="4.68539">
        <ele>609.61328125</ele>
        <time>2012-10-13T09:04:11Z</time>
      </trkpt>
      <trkpt lat="45.44987" lon="4.68528">
        <ele>612.4970703125</ele>
        <time>2012-10-13T09:04:18Z</time>
      </trkpt>
      <trkpt lat="45.44979" lon="4.68515">
        <ele>615.38110351562</ele>
        <time>2012-10-13T09:04:25Z</time>
      </trkpt>
      <trkpt lat="45.44975" lon="4.68499">
        <ele>617.3037109375</ele>
        <time>2012-10-13T09:04:32Z</time>
      </trkpt>
      <trkpt lat="45.44971" lon="4.6849">
        <ele>621.62963867188</ele>
        <time>2012-10-13T09:04:39Z</time>
      </trkpt>
      <trkpt lat="45.44968" lon="4.6848">
        <ele>624.03295898438</ele>
        <time>2012-10-13T09:04:45Z</time>
      </trkpt>
      <trkpt lat="45.44968" lon="4.68455">
        <ele>621.62963867188</ele>
        <time>2012-10-13T09:04:54Z</time>
      </trkpt>
      <trkpt lat="45.4497" lon="4.68442">
        <ele>622.59106445312</ele>
        <time>2012-10-13T09:04:59Z</time>
      </trkpt>
      <trkpt lat="45.44979" lon="4.68429">
        <ele>621.14916992188</ele>
        <time>2012-10-13T09:05:05Z</time>
      </trkpt>
      <trkpt lat="45.4499" lon="4.68415">
        <ele>622.1103515625</ele>
        <time>2012-10-13T09:05:11Z</time>
      </trkpt>
      <trkpt lat="45.45004" lon="4.68399">
        <ele>624.513671875</ele>
        <time>2012-10-13T09:05:18Z</time>
      </trkpt>
      <trkpt lat="45.4502" lon="4.68378">
        <ele>629.80078125</ele>
        <time>2012-10-13T09:05:25Z</time>
      </trkpt>
      <trkpt lat="45.45041" lon="4.68358">
        <ele>633.16528320312</ele>
        <time>2012-10-13T09:05:33Z</time>
      </trkpt>
      <trkpt lat="45.45048" lon="4.68342">
        <ele>635.08813476562</ele>
        <time>2012-10-13T09:05:38Z</time>
      </trkpt>
      <trkpt lat="45.45047" lon="4.68326">
        <ele>636.04956054688</ele>
        <time>2012-10-13T09:05:43Z</time>
      </trkpt>
      <trkpt lat="45.45053" lon="4.68311">
        <ele>635.56860351562</ele>
        <time>2012-10-13T09:05:49Z</time>
      </trkpt>
      <trkpt lat="45.45068" lon="4.68292">
        <ele>636.5302734375</ele>
        <time>2012-10-13T09:05:56Z</time>
      </trkpt>
      <trkpt lat="45.45087" lon="4.68277">
        <ele>637.0107421875</ele>
        <time>2012-10-13T09:06:04Z</time>
      </trkpt>
      <trkpt lat="45.45105" lon="4.68275">
        <ele>637.97216796875</ele>
        <time>2012-10-13T09:06:10Z</time>
      </trkpt>
      <trkpt lat="45.45123" lon="4.68279">
        <ele>638.45288085938</ele>
        <time>2012-10-13T09:06:16Z</time>
      </trkpt>
      <trkpt lat="45.45152" lon="4.68292">
        <ele>638.45288085938</ele>
        <time>2012-10-13T09:06:25Z</time>
      </trkpt>
      <trkpt lat="45.45175" lon="4.68301">
        <ele>639.89477539062</ele>
        <time>2012-10-13T09:06:32Z</time>
      </trkpt>
      <trkpt lat="45.45197" lon="4.68304">
        <ele>639.4140625</ele>
        <time>2012-10-13T09:06:38Z</time>
      </trkpt>
      <trkpt lat="45.45214" lon="4.68299">
        <ele>638.93359375</ele>
        <time>2012-10-13T09:06:43Z</time>
      </trkpt>
      <trkpt lat="45.4523" lon="4.68284">
        <ele>638.45288085938</ele>
        <time>2012-10-13T09:06:48Z</time>
      </trkpt>
      <trkpt lat="45.45246" lon="4.68254">
        <ele>638.45288085938</ele>
        <time>2012-10-13T09:06:55Z</time>
      </trkpt>
      <trkpt lat="45.45258" lon="4.68229">
        <ele>639.89477539062</ele>
        <time>2012-10-13T09:07:01Z</time>
      </trkpt>
      <trkpt lat="45.45268" lon="4.68207">
        <ele>640.37548828125</ele>
        <time>2012-10-13T09:07:06Z</time>
      </trkpt>
      <trkpt lat="45.45284" lon="4.6818">
        <ele>642.29809570312</ele>
        <time>2012-10-13T09:07:12Z</time>
      </trkpt>
      <trkpt lat="45.45293" lon="4.68168">
        <ele>645.18188476562</ele>
        <time>2012-10-13T09:07:15Z</time>
      </trkpt>
      <trkpt lat="45.45313" lon="4.68158">
        <ele>649.98852539062</ele>
        <time>2012-10-13T09:07:21Z</time>
      </trkpt>
      <trkpt lat="45.4533" lon="4.68168">
        <ele>651.43041992188</ele>
        <time>2012-10-13T09:07:26Z</time>
      </trkpt>
      <trkpt lat="45.45354" lon="4.68184">
        <ele>653.35327148438</ele>
        <time>2012-10-13T09:07:33Z</time>
      </trkpt>
      <trkpt lat="45.45382" lon="4.68195">
        <ele>651.9111328125</ele>
        <time>2012-10-13T09:07:40Z</time>
      </trkpt>
      <trkpt lat="45.45402" lon="4.68202">
        <ele>650.94970703125</ele>
        <time>2012-10-13T09:07:45Z</time>
      </trkpt>
      <trkpt lat="45.45421" lon="4.68205">
        <ele>647.58520507812</ele>
        <time>2012-10-13T09:07:50Z</time>
      </trkpt>
      <trkpt lat="45.45425" lon="4.68207">
        <ele>648.06591796875</ele>
        <time>2012-10-13T09:07:51Z</time>
      </trkpt>
      <trkpt lat="45.45447" lon="4.68211">
        <ele>647.58520507812</ele>
        <time>2012-10-13T09:07:56Z</time>
      </trkpt>
      <trkpt lat="45.45459" lon="4.68207">
        <ele>648.06591796875</ele>
        <time>2012-10-13T09:08:01Z</time>
      </trkpt>
      <trkpt lat="45.45452" lon="4.68198">
        <ele>646.6240234375</ele>
        <time>2012-10-13T09:08:06Z</time>
      </trkpt>
      <trkpt lat="45.4544" lon="4.68188">
        <ele>645.66259765625</ele>
        <time>2012-10-13T09:08:11Z</time>
      </trkpt>
      <trkpt lat="45.45429" lon="4.68177">
        <ele>642.77880859375</ele>
        <time>2012-10-13T09:08:16Z</time>
      </trkpt>
      <trkpt lat="45.45418" lon="4.68167">
        <ele>641.33666992188</ele>
        <time>2012-10-13T09:08:21Z</time>
      </trkpt>
      <trkpt lat="45.45406" lon="4.68157">
        <ele>638.93359375</ele>
        <time>2012-10-13T09:08:27Z</time>
      </trkpt>
      <trkpt lat="45.45393" lon="4.68146">
        <ele>638.45288085938</ele>
        <time>2012-10-13T09:08:33Z</time>
      </trkpt>
      <trkpt lat="45.45383" lon="4.68138">
        <ele>638.45288085938</ele>
        <time>2012-10-13T09:08:38Z</time>
      </trkpt>
      <trkpt lat="45.45371" lon="4.68128">
        <ele>639.89477539062</ele>
        <time>2012-10-13T09:08:44Z</time>
      </trkpt>
      <trkpt lat="45.45364" lon="4.68122">
        <ele>639.4140625</ele>
        <time>2012-10-13T09:08:48Z</time>
      </trkpt>
      <trkpt lat="45.45356" lon="4.68114">
        <ele>638.45288085938</ele>
        <time>2012-10-13T09:08:53Z</time>
      </trkpt>
      <trkpt lat="45.45355" lon="4.6811">
        <ele>645.66259765625</ele>
        <time>2012-10-13T09:08:58Z</time>
      </trkpt>
      <trkpt lat="45.45361" lon="4.68116">
        <ele>652.39184570312</ele>
        <time>2012-10-13T09:09:03Z</time>
      </trkpt>
      <trkpt lat="45.45369" lon="4.68124">
        <ele>661.5244140625</ele>
        <time>2012-10-13T09:09:09Z</time>
      </trkpt>
      <trkpt lat="45.45377" lon="4.68128">
        <ele>667.29223632812</ele>
        <time>2012-10-13T09:09:13Z</time>
      </trkpt>
      <trkpt lat="45.45378" lon="4.68128">
        <ele>668.734375</ele>
        <time>2012-10-13T09:09:14Z</time>
      </trkpt>
      <trkpt lat="45.45389" lon="4.68135">
        <ele>676.90551757812</ele>
        <time>2012-10-13T09:09:20Z</time>
      </trkpt>
      <trkpt lat="45.45393" lon="4.68137">
        <ele>679.30859375</ele>
        <time>2012-10-13T09:09:22Z</time>
      </trkpt>
      <trkpt lat="45.45406" lon="4.68141">
        <ele>686.0380859375</ele>
        <time>2012-10-13T09:09:29Z</time>
      </trkpt>
      <trkpt lat="45.45419" lon="4.68145">
        <ele>690.84448242188</ele>
        <time>2012-10-13T09:09:35Z</time>
      </trkpt>
      <trkpt lat="45.45432" lon="4.68144">
        <ele>692.28662109375</ele>
        <time>2012-10-13T09:09:40Z</time>
      </trkpt>
      <trkpt lat="45.45445" lon="4.68136">
        <ele>689.40258789062</ele>
        <time>2012-10-13T09:09:46Z</time>
      </trkpt>
      <trkpt lat="45.45461" lon="4.68126">
        <ele>680.27001953125</ele>
        <time>2012-10-13T09:09:52Z</time>
      </trkpt>
      <trkpt lat="45.45478" lon="4.68124">
        <ele>678.828125</ele>
        <time>2012-10-13T09:09:59Z</time>
      </trkpt>
      <trkpt lat="45.45495" lon="4.68124">
        <ele>679.30859375</ele>
        <time>2012-10-13T09:10:07Z</time>
      </trkpt>
      <trkpt lat="45.45509" lon="4.68126">
        <ele>679.78930664062</ele>
        <time>2012-10-13T09:10:13Z</time>
      </trkpt>
      <trkpt lat="45.45526" lon="4.68135">
        <ele>681.2314453125</ele>
        <time>2012-10-13T09:10:20Z</time>
      </trkpt>
      <trkpt lat="45.45539" lon="4.68141">
        <ele>682.19262695312</ele>
        <time>2012-10-13T09:10:26Z</time>
      </trkpt>
      <trkpt lat="45.45549" lon="4.68146">
        <ele>682.67333984375</ele>
        <time>2012-10-13T09:10:31Z</time>
      </trkpt>
      <trkpt lat="45.4556" lon="4.68153">
        <ele>686.0380859375</ele>
        <time>2012-10-13T09:10:37Z</time>
      </trkpt>
      <trkpt lat="45.45571" lon="4.68161">
        <ele>690.36401367188</ele>
        <time>2012-10-13T09:10:43Z</time>
      </trkpt>
      <trkpt lat="45.45581" lon="4.68166">
        <ele>691.80590820312</ele>
        <time>2012-10-13T09:10:48Z</time>
      </trkpt>
      <trkpt lat="45.45594" lon="4.68173">
        <ele>695.65112304688</ele>
        <time>2012-10-13T09:10:55Z</time>
      </trkpt>
      <trkpt lat="45.45606" lon="4.68181">
        <ele>700.4580078125</ele>
        <time>2012-10-13T09:11:01Z</time>
      </trkpt>
      <trkpt lat="45.45617" lon="4.68192">
        <ele>706.70629882812</ele>
        <time>2012-10-13T09:11:07Z</time>
      </trkpt>
      <trkpt lat="45.4563" lon="4.68199">
        <ele>711.0322265625</ele>
        <time>2012-10-13T09:11:13Z</time>
      </trkpt>
      <trkpt lat="45.45649" lon="4.68205">
        <ele>708.1484375</ele>
        <time>2012-10-13T09:11:21Z</time>
      </trkpt>
      <trkpt lat="45.45663" lon="4.68215">
        <ele>708.1484375</ele>
        <time>2012-10-13T09:11:28Z</time>
      </trkpt>
      <trkpt lat="45.45676" lon="4.6822">
        <ele>703.82250976562</ele>
        <time>2012-10-13T09:11:33Z</time>
      </trkpt>
      <trkpt lat="45.45688" lon="4.68225">
        <ele>706.2255859375</ele>
        <time>2012-10-13T09:11:38Z</time>
      </trkpt>
      <trkpt lat="45.45707" lon="4.68233">
        <ele>703.82250976562</ele>
        <time>2012-10-13T09:11:45Z</time>
      </trkpt>
      <trkpt lat="45.45718" lon="4.68237">
        <ele>708.1484375</ele>
        <time>2012-10-13T09:11:50Z</time>
      </trkpt>
      <trkpt lat="45.45731" lon="4.68245">
        <ele>707.18701171875</ele>
        <time>2012-10-13T09:11:55Z</time>
      </trkpt>
      <trkpt lat="45.45747" lon="4.68242">
        <ele>700.4580078125</ele>
        <time>2012-10-13T09:12:01Z</time>
      </trkpt>
      <trkpt lat="45.45759" lon="4.68242">
        <ele>699.49633789062</ele>
        <time>2012-10-13T09:12:06Z</time>
      </trkpt>
      <trkpt lat="45.45771" lon="4.68234">
        <ele>699.49633789062</ele>
        <time>2012-10-13T09:12:11Z</time>
      </trkpt>
      <trkpt lat="45.45782" lon="4.6823">
        <ele>699.015625</ele>
        <time>2012-10-13T09:12:16Z</time>
      </trkpt>
      <trkpt lat="45.45797" lon="4.68229">
        <ele>705.26440429688</ele>
        <time>2012-10-13T09:12:21Z</time>
      </trkpt>
      <trkpt lat="45.45805" lon="4.68227">
        <ele>707.66772460938</ele>
        <time>2012-10-13T09:12:26Z</time>
      </trkpt>
      <trkpt lat="45.4581" lon="4.68215">
        <ele>686.0380859375</ele>
        <time>2012-10-13T09:12:42Z</time>
      </trkpt>
      <trkpt lat="45.45813" lon="4.68202">
        <ele>672.09887695312</ele>
        <time>2012-10-13T09:13:02Z</time>
      </trkpt>
      <trkpt lat="45.45812" lon="4.68205">
        <ele>669.69580078125</ele>
        <time>2012-10-13T09:13:13Z</time>
      </trkpt>
      <trkpt lat="45.45812" lon="4.68206">
        <ele>670.17626953125</ele>
        <time>2012-10-13T09:13:14Z</time>
      </trkpt>
      <trkpt lat="45.4581" lon="4.68215">
        <ele>678.828125</ele>
        <time>2012-10-13T09:13:22Z</time>
      </trkpt>
      <trkpt lat="45.45812" lon="4.68213">
        <ele>683.63452148438</ele>
        <time>2012-10-13T09:13:34Z</time>
      </trkpt>
      <trkpt lat="45.45812" lon="4.68211">
        <ele>693.728515625</ele>
        <time>2012-10-13T09:13:56Z</time>
      </trkpt>
      <trkpt lat="45.45813" lon="4.68221">
        <ele>694.20922851562</ele>
        <time>2012-10-13T09:14:14Z</time>
      </trkpt>
      <trkpt lat="45.45817" lon="4.68221">
        <ele>698.05444335938</ele>
        <time>2012-10-13T09:14:23Z</time>
      </trkpt>
      <trkpt lat="45.45832" lon="4.68226">
        <ele>702.38037109375</ele>
        <time>2012-10-13T09:14:29Z</time>
      </trkpt>
      <trkpt lat="45.45839" lon="4.68226">
        <ele>703.82250976562</ele>
        <time>2012-10-13T09:14:31Z</time>
      </trkpt>
      <trkpt lat="45.45855" lon="4.68227">
        <ele>705.7451171875</ele>
        <time>2012-10-13T09:14:36Z</time>
      </trkpt>
      <trkpt lat="45.45875" lon="4.68226">
        <ele>706.70629882812</ele>
        <time>2012-10-13T09:14:40Z</time>
      </trkpt>
      <trkpt lat="45.45881" lon="4.68227">
        <ele>707.18701171875</ele>
        <time>2012-10-13T09:14:41Z</time>
      </trkpt>
      <trkpt lat="45.45914" lon="4.68232">
        <ele>711.51293945312</ele>
        <time>2012-10-13T09:14:46Z</time>
      </trkpt>
      <trkpt lat="45.45926" lon="4.68231">
        <ele>712.47412109375</ele>
        <time>2012-10-13T09:14:48Z</time>
      </trkpt>
      <trkpt lat="45.45957" lon="4.68226">
        <ele>713.916015625</ele>
        <time>2012-10-13T09:14:53Z</time>
      </trkpt>
      <trkpt lat="45.45986" lon="4.68212">
        <ele>710.07080078125</ele>
        <time>2012-10-13T09:14:58Z</time>
      </trkpt>
      <trkpt lat="45.46007" lon="4.682">
        <ele>705.7451171875</ele>
        <time>2012-10-13T09:15:02Z</time>
      </trkpt>
      <trkpt lat="45.46012" lon="4.68197">
        <ele>705.26440429688</ele>
        <time>2012-10-13T09:15:03Z</time>
      </trkpt>
      <trkpt lat="45.46026" lon="4.6819">
        <ele>706.2255859375</ele>
        <time>2012-10-13T09:15:05Z</time>
      </trkpt>
      <trkpt lat="45.46049" lon="4.68179">
        <ele>704.78369140625</ele>
        <time>2012-10-13T09:15:09Z</time>
      </trkpt>
      <trkpt lat="45.46068" lon="4.6817">
        <ele>705.7451171875</ele>
        <time>2012-10-13T09:15:13Z</time>
      </trkpt>
      <trkpt lat="45.46075" lon="4.68165">
        <ele>707.18701171875</ele>
        <time>2012-10-13T09:15:17Z</time>
      </trkpt>
      <trkpt lat="45.46083" lon="4.68158">
        <ele>705.26440429688</ele>
        <time>2012-10-13T09:15:21Z</time>
      </trkpt>
      <trkpt lat="45.46096" lon="4.68138">
        <ele>700.4580078125</ele>
        <time>2012-10-13T09:15:28Z</time>
      </trkpt>
      <trkpt lat="45.46102" lon="4.68129">
        <ele>699.97705078125</ele>
        <time>2012-10-13T09:15:31Z</time>
      </trkpt>
      <trkpt lat="45.46116" lon="4.68111">
        <ele>700.4580078125</ele>
        <time>2012-10-13T09:15:37Z</time>
      </trkpt>
      <trkpt lat="45.46126" lon="4.68097">
        <ele>699.97705078125</ele>
        <time>2012-10-13T09:15:41Z</time>
      </trkpt>
      <trkpt lat="45.46129" lon="4.68094">
        <ele>699.97705078125</ele>
        <time>2012-10-13T09:15:42Z</time>
      </trkpt>
      <trkpt lat="45.46149" lon="4.68066">
        <ele>696.61254882812</ele>
        <time>2012-10-13T09:15:47Z</time>
      </trkpt>
      <trkpt lat="45.46172" lon="4.68032">
        <ele>693.728515625</ele>
        <time>2012-10-13T09:15:51Z</time>
      </trkpt>
      <trkpt lat="45.46177" lon="4.68023">
        <ele>693.24780273438</ele>
        <time>2012-10-13T09:15:52Z</time>
      </trkpt>
      <trkpt lat="45.46213" lon="4.6798">
        <ele>686.0380859375</ele>
        <time>2012-10-13T09:15:57Z</time>
      </trkpt>
      <trkpt lat="45.4622" lon="4.67979">
        <ele>685.55737304688</ele>
        <time>2012-10-13T09:15:58Z</time>
      </trkpt>
      <trkpt lat="45.46249" lon="4.67971">
        <ele>687.47998046875</ele>
        <time>2012-10-13T09:16:02Z</time>
      </trkpt>
      <trkpt lat="45.46259" lon="4.67967">
        <ele>686.51879882812</ele>
        <time>2012-10-13T09:16:04Z</time>
      </trkpt>
      <trkpt lat="45.46272" lon="4.67964">
        <ele>688.92211914062</ele>
        <time>2012-10-13T09:16:07Z</time>
      </trkpt>
      <trkpt lat="45.46294" lon="4.67953">
        <ele>688.92211914062</ele>
        <time>2012-10-13T09:16:12Z</time>
      </trkpt>
      <trkpt lat="45.46317" lon="4.67936">
        <ele>683.63452148438</ele>
        <time>2012-10-13T09:16:16Z</time>
      </trkpt>
      <trkpt lat="45.46365" lon="4.67908">
        <ele>680.27001953125</ele>
        <time>2012-10-13T09:16:23Z</time>
      </trkpt>
      <trkpt lat="45.46371" lon="4.67905">
        <ele>679.78930664062</ele>
        <time>2012-10-13T09:16:24Z</time>
      </trkpt>
      <trkpt lat="45.46398" lon="4.67884">
        <ele>676.4248046875</ele>
        <time>2012-10-13T09:16:29Z</time>
      </trkpt>
      <trkpt lat="45.46418" lon="4.67859">
        <ele>678.828125</ele>
        <time>2012-10-13T09:16:34Z</time>
      </trkpt>
      <trkpt lat="45.46421" lon="4.67854">
        <ele>679.30859375</ele>
        <time>2012-10-13T09:16:35Z</time>
      </trkpt>
      <trkpt lat="45.46427" lon="4.67847">
        <ele>679.30859375</ele>
        <time>2012-10-13T09:16:37Z</time>
      </trkpt>
      <trkpt lat="45.46444" lon="4.67827">
        <ele>679.30859375</ele>
        <time>2012-10-13T09:16:44Z</time>
      </trkpt>
      <trkpt lat="45.46449" lon="4.67814">
        <ele>678.34741210938</ele>
        <time>2012-10-13T09:16:49Z</time>
      </trkpt>
      <trkpt lat="45.46452" lon="4.67804">
        <ele>674.50219726562</ele>
        <time>2012-10-13T09:16:54Z</time>
      </trkpt>
      <trkpt lat="45.46453" lon="4.67802">
        <ele>672.57958984375</ele>
        <time>2012-10-13T09:16:56Z</time>
      </trkpt>
      <trkpt lat="45.46454" lon="4.67804">
        <ele>670.65698242188</ele>
        <time>2012-10-13T09:17:01Z</time>
      </trkpt>
      <trkpt lat="45.46451" lon="4.67796">
        <ele>668.734375</ele>
        <time>2012-10-13T09:17:05Z</time>
      </trkpt>
      <trkpt lat="45.4645" lon="4.6779">
        <ele>667.77270507812</ele>
        <time>2012-10-13T09:17:08Z</time>
      </trkpt>
      <trkpt lat="45.46446" lon="4.67775">
        <ele>666.8115234375</ele>
        <time>2012-10-13T09:17:14Z</time>
      </trkpt>
      <trkpt lat="45.46442" lon="4.67757">
        <ele>666.33081054688</ele>
        <time>2012-10-13T09:17:19Z</time>
      </trkpt>
      <trkpt lat="45.46433" lon="4.6773">
        <ele>666.8115234375</ele>
        <time>2012-10-13T09:17:26Z</time>
      </trkpt>
      <trkpt lat="45.46424" lon="4.67704">
        <ele>665.85034179688</ele>
        <time>2012-10-13T09:17:32Z</time>
      </trkpt>
      <trkpt lat="45.46412" lon="4.67669">
        <ele>668.25366210938</ele>
        <time>2012-10-13T09:17:39Z</time>
      </trkpt>
      <trkpt lat="45.46402" lon="4.67629">
        <ele>666.33081054688</ele>
        <time>2012-10-13T09:17:46Z</time>
      </trkpt>
      <trkpt lat="45.46397" lon="4.67614">
        <ele>666.33081054688</ele>
        <time>2012-10-13T09:17:49Z</time>
      </trkpt>
      <trkpt lat="45.46385" lon="4.67582">
        <ele>667.77270507812</ele>
        <time>2012-10-13T09:17:56Z</time>
      </trkpt>
      <trkpt lat="45.46371" lon="4.67555">
        <ele>665.36962890625</ele>
        <time>2012-10-13T09:18:03Z</time>
      </trkpt>
      <trkpt lat="45.46364" lon="4.67536">
        <ele>664.408203125</ele>
        <time>2012-10-13T09:18:08Z</time>
      </trkpt>
      <trkpt lat="45.46357" lon="4.67522">
        <ele>664.88891601562</ele>
        <time>2012-10-13T09:18:13Z</time>
      </trkpt>
      <trkpt lat="45.46348" lon="4.67503">
        <ele>662.96630859375</ele>
        <time>2012-10-13T09:18:19Z</time>
      </trkpt>
      <trkpt lat="45.46338" lon="4.67481">
        <ele>661.5244140625</ele>
        <time>2012-10-13T09:18:25Z</time>
      </trkpt>
      <trkpt lat="45.46329" lon="4.67465">
        <ele>661.04370117188</ele>
        <time>2012-10-13T09:18:31Z</time>
      </trkpt>
      <trkpt lat="45.4632" lon="4.67451">
        <ele>660.08227539062</ele>
        <time>2012-10-13T09:18:37Z</time>
      </trkpt>
      <trkpt lat="45.4631" lon="4.67436">
        <ele>658.64038085938</ele>
        <time>2012-10-13T09:18:43Z</time>
      </trkpt>
      <trkpt lat="45.46302" lon="4.67419">
        <ele>658.64038085938</ele>
        <time>2012-10-13T09:18:49Z</time>
      </trkpt>
      <trkpt lat="45.46294" lon="4.67397">
        <ele>663.44702148438</ele>
        <time>2012-10-13T09:18:56Z</time>
      </trkpt>
      <trkpt lat="45.46283" lon="4.6737">
        <ele>663.44702148438</ele>
        <time>2012-10-13T09:19:05Z</time>
      </trkpt>
      <trkpt lat="45.46276" lon="4.6735">
        <ele>664.88891601562</ele>
        <time>2012-10-13T09:19:11Z</time>
      </trkpt>
      <trkpt lat="45.46269" lon="4.67333">
        <ele>669.69580078125</ele>
        <time>2012-10-13T09:19:17Z</time>
      </trkpt>
      <trkpt lat="45.46261" lon="4.67315">
        <ele>674.98291015625</ele>
        <time>2012-10-13T09:19:23Z</time>
      </trkpt>
      <trkpt lat="45.46258" lon="4.67305">
        <ele>678.828125</ele>
        <time>2012-10-13T09:19:27Z</time>
      </trkpt>
      <trkpt lat="45.46253" lon="4.67287">
        <ele>680.75073242188</ele>
        <time>2012-10-13T09:19:33Z</time>
      </trkpt>
      <trkpt lat="45.46247" lon="4.67271">
        <ele>678.34741210938</ele>
        <time>2012-10-13T09:19:39Z</time>
      </trkpt>
      <trkpt lat="45.46239" lon="4.67251">
        <ele>678.828125</ele>
        <time>2012-10-13T09:19:45Z</time>
      </trkpt>
      <trkpt lat="45.46231" lon="4.67233">
        <ele>683.63452148438</ele>
        <time>2012-10-13T09:19:50Z</time>
      </trkpt>
      <trkpt lat="45.46227" lon="4.67217">
        <ele>686.99926757812</ele>
        <time>2012-10-13T09:19:54Z</time>
      </trkpt>
      <trkpt lat="45.46226" lon="4.67191">
        <ele>693.24780273438</ele>
        <time>2012-10-13T09:20:01Z</time>
      </trkpt>
      <trkpt lat="45.46225" lon="4.6718">
        <ele>694.68969726562</ele>
        <time>2012-10-13T09:20:04Z</time>
      </trkpt>
      <trkpt lat="45.46223" lon="4.6716">
        <ele>698.53491210938</ele>
        <time>2012-10-13T09:20:10Z</time>
      </trkpt>
      <trkpt lat="45.46222" lon="4.67142">
        <ele>700.4580078125</ele>
        <time>2012-10-13T09:20:15Z</time>
      </trkpt>
      <trkpt lat="45.46221" lon="4.67121">
        <ele>701.41918945312</ele>
        <time>2012-10-13T09:20:20Z</time>
      </trkpt>
      <trkpt lat="45.46219" lon="4.67097">
        <ele>701.41918945312</ele>
        <time>2012-10-13T09:20:26Z</time>
      </trkpt>
      <trkpt lat="45.46218" lon="4.6707">
        <ele>704.30322265625</ele>
        <time>2012-10-13T09:20:33Z</time>
      </trkpt>
      <trkpt lat="45.46216" lon="4.67049">
        <ele>702.86108398438</ele>
        <time>2012-10-13T09:20:38Z</time>
      </trkpt>
      <trkpt lat="45.46214" lon="4.67037">
        <ele>704.30322265625</ele>
        <time>2012-10-13T09:20:43Z</time>
      </trkpt>
      <trkpt lat="45.46212" lon="4.67023">
        <ele>703.341796875</ele>
        <time>2012-10-13T09:20:47Z</time>
      </trkpt>
      <trkpt lat="45.46209" lon="4.67009">
        <ele>702.86108398438</ele>
        <time>2012-10-13T09:20:52Z</time>
      </trkpt>
      <trkpt lat="45.46208" lon="4.66997">
        <ele>707.66772460938</ele>
        <time>2012-10-13T09:20:57Z</time>
      </trkpt>
      <trkpt lat="45.46208" lon="4.66983">
        <ele>709.59033203125</ele>
        <time>2012-10-13T09:21:02Z</time>
      </trkpt>
      <trkpt lat="45.46207" lon="4.66964">
        <ele>709.59033203125</ele>
        <time>2012-10-13T09:21:08Z</time>
      </trkpt>
      <trkpt lat="45.46205" lon="4.66949">
        <ele>711.0322265625</ele>
        <time>2012-10-13T09:21:13Z</time>
      </trkpt>
      <trkpt lat="45.46202" lon="4.66933">
        <ele>713.435546875</ele>
        <time>2012-10-13T09:21:18Z</time>
      </trkpt>
      <trkpt lat="45.46202" lon="4.66912">
        <ele>707.66772460938</ele>
        <time>2012-10-13T09:21:23Z</time>
      </trkpt>
      <trkpt lat="45.46201" lon="4.66894">
        <ele>708.62890625</ele>
        <time>2012-10-13T09:21:28Z</time>
      </trkpt>
      <trkpt lat="45.46198" lon="4.66877">
        <ele>706.70629882812</ele>
        <time>2012-10-13T09:21:34Z</time>
      </trkpt>
      <trkpt lat="45.46194" lon="4.66859">
        <ele>704.30322265625</ele>
        <time>2012-10-13T09:21:40Z</time>
      </trkpt>
      <trkpt lat="45.46191" lon="4.66849">
        <ele>706.2255859375</ele>
        <time>2012-10-13T09:21:44Z</time>
      </trkpt>
      <trkpt lat="45.46189" lon="4.66834">
        <ele>708.1484375</ele>
        <time>2012-10-13T09:21:50Z</time>
      </trkpt>
      <trkpt lat="45.46185" lon="4.66823">
        <ele>709.59033203125</ele>
        <time>2012-10-13T09:21:55Z</time>
      </trkpt>
      <trkpt lat="45.46185" lon="4.6682">
        <ele>710.55151367188</ele>
        <time>2012-10-13T09:21:56Z</time>
      </trkpt>
      <trkpt lat="45.46181" lon="4.66808">
        <ele>705.7451171875</ele>
        <time>2012-10-13T09:22:01Z</time>
      </trkpt>
      <trkpt lat="45.46175" lon="4.66791">
        <ele>699.97705078125</ele>
        <time>2012-10-13T09:22:08Z</time>
      </trkpt>
      <trkpt lat="45.46169" lon="4.66777">
        <ele>694.20922851562</ele>
        <time>2012-10-13T09:22:14Z</time>
      </trkpt>
      <trkpt lat="45.46168" lon="4.66772">
        <ele>691.3251953125</ele>
        <time>2012-10-13T09:22:16Z</time>
      </trkpt>
      <trkpt lat="45.46159" lon="4.66753">
        <ele>687.47998046875</ele>
        <time>2012-10-13T09:22:23Z</time>
      </trkpt>
      <trkpt lat="45.46154" lon="4.66746">
        <ele>688.44140625</ele>
        <time>2012-10-13T09:22:26Z</time>
      </trkpt>
      <trkpt lat="45.4614" lon="4.66728">
        <ele>705.26440429688</ele>
        <time>2012-10-13T09:22:34Z</time>
      </trkpt>
      <trkpt lat="45.46127" lon="4.66717">
        <ele>708.1484375</ele>
        <time>2012-10-13T09:22:40Z</time>
      </trkpt>
      <trkpt lat="45.46121" lon="4.66708">
        <ele>711.0322265625</ele>
        <time>2012-10-13T09:22:44Z</time>
      </trkpt>
      <trkpt lat="45.46115" lon="4.66699">
        <ele>715.8388671875</ele>
        <time>2012-10-13T09:22:50Z</time>
      </trkpt>
      <trkpt lat="45.46107" lon="4.66692">
        <ele>717.76147460938</ele>
        <time>2012-10-13T09:22:55Z</time>
      </trkpt>
      <trkpt lat="45.46096" lon="4.6668">
        <ele>719.20361328125</ele>
        <time>2012-10-13T09:23:01Z</time>
      </trkpt>
      <trkpt lat="45.4608" lon="4.66664">
        <ele>719.20361328125</ele>
        <time>2012-10-13T09:23:11Z</time>
      </trkpt>
      <trkpt lat="45.46068" lon="4.66653">
        <ele>718.2421875</ele>
        <time>2012-10-13T09:23:19Z</time>
      </trkpt>
      <trkpt lat="45.46053" lon="4.66639">
        <ele>721.60668945312</ele>
        <time>2012-10-13T09:23:28Z</time>
      </trkpt>
      <trkpt lat="45.46038" lon="4.66625">
        <ele>725.45190429688</ele>
        <time>2012-10-13T09:23:36Z</time>
      </trkpt>
      <trkpt lat="45.46025" lon="4.66612">
        <ele>728.3359375</ele>
        <time>2012-10-13T09:23:43Z</time>
      </trkpt>
      <trkpt lat="45.46011" lon="4.66598">
        <ele>730.25854492188</ele>
        <time>2012-10-13T09:23:50Z</time>
      </trkpt>
      <trkpt lat="45.46003" lon="4.66591">
        <ele>731.21997070312</ele>
        <time>2012-10-13T09:23:54Z</time>
      </trkpt>
      <trkpt lat="45.46" lon="4.66585">
        <ele>732.18139648438</ele>
        <time>2012-10-13T09:23:56Z</time>
      </trkpt>
      <trkpt lat="45.45992" lon="4.66575">
        <ele>733.142578125</ele>
        <time>2012-10-13T09:24:00Z</time>
      </trkpt>
      <trkpt lat="45.45976" lon="4.66551">
        <ele>733.142578125</ele>
        <time>2012-10-13T09:24:10Z</time>
      </trkpt>
      <trkpt lat="45.45961" lon="4.66532">
        <ele>736.98779296875</ele>
        <time>2012-10-13T09:24:18Z</time>
      </trkpt>
      <trkpt lat="45.45945" lon="4.66512">
        <ele>738.42993164062</ele>
        <time>2012-10-13T09:24:26Z</time>
      </trkpt>
      <trkpt lat="45.45928" lon="4.66492">
        <ele>739.87182617188</ele>
        <time>2012-10-13T09:24:34Z</time>
      </trkpt>
      <trkpt lat="45.45909" lon="4.66469">
        <ele>739.39111328125</ele>
        <time>2012-10-13T09:24:43Z</time>
      </trkpt>
      <trkpt lat="45.45893" lon="4.66451">
        <ele>741.79443359375</ele>
        <time>2012-10-13T09:24:50Z</time>
      </trkpt>
      <trkpt lat="45.45877" lon="4.66431">
        <ele>746.12036132812</ele>
        <time>2012-10-13T09:24:58Z</time>
      </trkpt>
      <trkpt lat="45.45861" lon="4.66415">
        <ele>746.12036132812</ele>
        <time>2012-10-13T09:25:05Z</time>
      </trkpt>
      <trkpt lat="45.45852" lon="4.66402">
        <ele>747.56225585938</ele>
        <time>2012-10-13T09:25:10Z</time>
      </trkpt>
      <trkpt lat="45.45838" lon="4.66386">
        <ele>748.04321289062</ele>
        <time>2012-10-13T09:25:16Z</time>
      </trkpt>
      <trkpt lat="45.4582" lon="4.66364">
        <ele>747.08154296875</ele>
        <time>2012-10-13T09:25:23Z</time>
      </trkpt>
      <trkpt lat="45.45808" lon="4.66347">
        <ele>746.12036132812</ele>
        <time>2012-10-13T09:25:29Z</time>
      </trkpt>
      <trkpt lat="45.45798" lon="4.66331">
        <ele>746.12036132812</ele>
        <time>2012-10-13T09:25:33Z</time>
      </trkpt>
      <trkpt lat="45.45786" lon="4.66313">
        <ele>748.52368164062</ele>
        <time>2012-10-13T09:25:39Z</time>
      </trkpt>
      <trkpt lat="45.45771" lon="4.66286">
        <ele>753.33032226562</ele>
        <time>2012-10-13T09:25:45Z</time>
      </trkpt>
      <trkpt lat="45.45766" lon="4.66277">
        <ele>757.65625</ele>
        <time>2012-10-13T09:25:47Z</time>
      </trkpt>
      <trkpt lat="45.45752" lon="4.66257">
        <ele>766.30810546875</ele>
        <time>2012-10-13T09:25:52Z</time>
      </trkpt>
      <trkpt lat="45.45743" lon="4.66241">
        <ele>769.6728515625</ele>
        <time>2012-10-13T09:25:57Z</time>
      </trkpt>
      <trkpt lat="45.45731" lon="4.66226">
        <ele>768.23071289062</ele>
        <time>2012-10-13T09:26:01Z</time>
      </trkpt>
      <trkpt lat="45.45715" lon="4.66213">
        <ele>755.2529296875</ele>
        <time>2012-10-13T09:26:07Z</time>
      </trkpt>
      <trkpt lat="45.45705" lon="4.66199">
        <ele>755.2529296875</ele>
        <time>2012-10-13T09:26:11Z</time>
      </trkpt>
      <trkpt lat="45.4569" lon="4.66183">
        <ele>752.849609375</ele>
        <time>2012-10-13T09:26:17Z</time>
      </trkpt>
      <trkpt lat="45.45683" lon="4.66178">
        <ele>752.36889648438</ele>
        <time>2012-10-13T09:26:19Z</time>
      </trkpt>
      <trkpt lat="45.45666" lon="4.66163">
        <ele>753.81103515625</ele>
        <time>2012-10-13T09:26:25Z</time>
      </trkpt>
      <trkpt lat="45.45654" lon="4.66152">
        <ele>755.2529296875</ele>
        <time>2012-10-13T09:26:30Z</time>
      </trkpt>
      <trkpt lat="45.45648" lon="4.66148">
        <ele>753.81103515625</ele>
        <time>2012-10-13T09:26:32Z</time>
      </trkpt>
      <trkpt lat="45.45633" lon="4.66142">
        <ele>749.9658203125</ele>
        <time>2012-10-13T09:26:37Z</time>
      </trkpt>
      <trkpt lat="45.45617" lon="4.6613">
        <ele>752.849609375</ele>
        <time>2012-10-13T09:26:43Z</time>
      </trkpt>
      <trkpt lat="45.45605" lon="4.66122">
        <ele>757.17553710938</ele>
        <time>2012-10-13T09:26:47Z</time>
      </trkpt>
      <trkpt lat="45.45589" lon="4.66109">
        <ele>761.02075195312</ele>
        <time>2012-10-13T09:26:53Z</time>
      </trkpt>
      <trkpt lat="45.4557" lon="4.661">
        <ele>755.73364257812</ele>
        <time>2012-10-13T09:26:58Z</time>
      </trkpt>
      <trkpt lat="45.45553" lon="4.66092">
        <ele>752.849609375</ele>
        <time>2012-10-13T09:27:03Z</time>
      </trkpt>
      <trkpt lat="45.45533" lon="4.66081">
        <ele>749.00439453125</ele>
        <time>2012-10-13T09:27:09Z</time>
      </trkpt>
      <trkpt lat="45.45518" lon="4.66069">
        <ele>751.40771484375</ele>
        <time>2012-10-13T09:27:14Z</time>
      </trkpt>
      <trkpt lat="45.45505" lon="4.66069">
        <ele>760.5400390625</ele>
        <time>2012-10-13T09:27:18Z</time>
      </trkpt>
      <trkpt lat="45.45499" lon="4.66073">
        <ele>761.02075195312</ele>
        <time>2012-10-13T09:27:20Z</time>
      </trkpt>
      <trkpt lat="45.45504" lon="4.6608">
        <ele>762.943359375</ele>
        <time>2012-10-13T09:27:25Z</time>
      </trkpt>
      <trkpt lat="45.45514" lon="4.66089">
        <ele>771.59521484375</ele>
        <time>2012-10-13T09:27:31Z</time>
      </trkpt>
      <trkpt lat="45.45523" lon="4.66098">
        <ele>774.9599609375</ele>
        <time>2012-10-13T09:27:36Z</time>
      </trkpt>
      <trkpt lat="45.45532" lon="4.66107">
        <ele>776.88256835938</ele>
        <time>2012-10-13T09:27:41Z</time>
      </trkpt>
      <trkpt lat="45.45542" lon="4.66119">
        <ele>777.84375</ele>
        <time>2012-10-13T09:27:46Z</time>
      </trkpt>
      <trkpt lat="45.45555" lon="4.66137">
        <ele>777.36328125</ele>
        <time>2012-10-13T09:27:52Z</time>
      </trkpt>
      <trkpt lat="45.45559" lon="4.66149">
        <ele>775.4404296875</ele>
        <time>2012-10-13T09:27:57Z</time>
      </trkpt>
      <trkpt lat="45.45565" lon="4.66158">
        <ele>778.80517578125</ele>
        <time>2012-10-13T09:28:02Z</time>
      </trkpt>
      <trkpt lat="45.45569" lon="4.66164">
        <ele>779.28564453125</ele>
        <time>2012-10-13T09:28:05Z</time>
      </trkpt>
      <trkpt lat="45.45574" lon="4.6617">
        <ele>779.76635742188</ele>
        <time>2012-10-13T09:28:09Z</time>
      </trkpt>
      <trkpt lat="45.4558" lon="4.66182">
        <ele>780.24731445312</ele>
        <time>2012-10-13T09:28:15Z</time>
      </trkpt>
      <trkpt lat="45.45591" lon="4.66192">
        <ele>784.09252929688</ele>
        <time>2012-10-13T09:28:20Z</time>
      </trkpt>
      <trkpt lat="45.45598" lon="4.66206">
        <ele>786.97631835938</ele>
        <time>2012-10-13T09:28:25Z</time>
      </trkpt>
      <trkpt lat="45.45607" lon="4.66219">
        <ele>785.05395507812</ele>
        <time>2012-10-13T09:28:30Z</time>
      </trkpt>
      <trkpt lat="45.4561" lon="4.66222">
        <ele>783.13110351562</ele>
        <time>2012-10-13T09:28:32Z</time>
      </trkpt>
      <trkpt lat="45.45615" lon="4.66232">
        <ele>778.80517578125</ele>
        <time>2012-10-13T09:28:36Z</time>
      </trkpt>
      <trkpt lat="45.45626" lon="4.66242">
        <ele>782.65063476562</ele>
        <time>2012-10-13T09:28:40Z</time>
      </trkpt>
      <trkpt lat="45.4564" lon="4.66255">
        <ele>785.53442382812</ele>
        <time>2012-10-13T09:28:47Z</time>
      </trkpt>
      <trkpt lat="45.45652" lon="4.66271">
        <ele>791.78295898438</ele>
        <time>2012-10-13T09:28:53Z</time>
      </trkpt>
      <trkpt lat="45.45663" lon="4.66282">
        <ele>795.1474609375</ele>
        <time>2012-10-13T09:28:58Z</time>
      </trkpt>
      <trkpt lat="45.45674" lon="4.66293">
        <ele>801.39624023438</ele>
        <time>2012-10-13T09:29:03Z</time>
      </trkpt>
      <trkpt lat="45.45685" lon="4.66306">
        <ele>804.7607421875</ele>
        <time>2012-10-13T09:29:08Z</time>
      </trkpt>
      <trkpt lat="45.45696" lon="4.6632">
        <ele>808.12548828125</ele>
        <time>2012-10-13T09:29:13Z</time>
      </trkpt>
      <trkpt lat="45.45706" lon="4.66337">
        <ele>807.1640625</ele>
        <time>2012-10-13T09:29:18Z</time>
      </trkpt>
      <trkpt lat="45.45716" lon="4.66351">
        <ele>810.52856445312</ele>
        <time>2012-10-13T09:29:23Z</time>
      </trkpt>
      <trkpt lat="45.45726" lon="4.66367">
        <ele>813.41284179688</ele>
        <time>2012-10-13T09:29:28Z</time>
      </trkpt>
      <trkpt lat="45.45734" lon="4.66386">
        <ele>807.64477539062</ele>
        <time>2012-10-13T09:29:34Z</time>
      </trkpt>
      <trkpt lat="45.45742" lon="4.66405">
        <ele>800.43505859375</ele>
        <time>2012-10-13T09:29:40Z</time>
      </trkpt>
      <trkpt lat="45.45751" lon="4.66423">
        <ele>797.55102539062</ele>
        <time>2012-10-13T09:29:46Z</time>
      </trkpt>
      <trkpt lat="45.45759" lon="4.6644">
        <ele>796.10913085938</ele>
        <time>2012-10-13T09:29:52Z</time>
      </trkpt>
      <trkpt lat="45.45768" lon="4.66458">
        <ele>798.99291992188</ele>
        <time>2012-10-13T09:29:57Z</time>
      </trkpt>
      <trkpt lat="45.45775" lon="4.66472">
        <ele>801.876953125</ele>
        <time>2012-10-13T09:30:02Z</time>
      </trkpt>
      <trkpt lat="45.4578" lon="4.66492">
        <ele>796.58984375</ele>
        <time>2012-10-13T09:30:08Z</time>
      </trkpt>
      <trkpt lat="45.45785" lon="4.66509">
        <ele>791.78295898438</ele>
        <time>2012-10-13T09:30:14Z</time>
      </trkpt>
      <trkpt lat="45.4579" lon="4.66528">
        <ele>790.82153320312</ele>
        <time>2012-10-13T09:30:21Z</time>
      </trkpt>
      <trkpt lat="45.45797" lon="4.66547">
        <ele>793.70556640625</ele>
        <time>2012-10-13T09:30:28Z</time>
      </trkpt>
      <trkpt lat="45.45798" lon="4.66549">
        <ele>793.70556640625</ele>
        <time>2012-10-13T09:30:29Z</time>
      </trkpt>
      <trkpt lat="45.45802" lon="4.66563">
        <ele>795.62817382812</ele>
        <time>2012-10-13T09:30:34Z</time>
      </trkpt>
      <trkpt lat="45.45803" lon="4.66566">
        <ele>795.1474609375</ele>
        <time>2012-10-13T09:30:35Z</time>
      </trkpt>
      <trkpt lat="45.45808" lon="4.66585">
        <ele>797.0703125</ele>
        <time>2012-10-13T09:30:41Z</time>
      </trkpt>
      <trkpt lat="45.45813" lon="4.66603">
        <ele>801.876953125</ele>
        <time>2012-10-13T09:30:47Z</time>
      </trkpt>
      <trkpt lat="45.45814" lon="4.66623">
        <ele>802.357421875</ele>
        <time>2012-10-13T09:30:53Z</time>
      </trkpt>
      <trkpt lat="45.45817" lon="4.66637">
        <ele>806.20263671875</ele>
        <time>2012-10-13T09:30:59Z</time>
      </trkpt>
      <trkpt lat="45.45818" lon="4.66646">
        <ele>806.20263671875</ele>
        <time>2012-10-13T09:31:03Z</time>
      </trkpt>
      <trkpt lat="45.45819" lon="4.66663">
        <ele>807.1640625</ele>
        <time>2012-10-13T09:31:10Z</time>
      </trkpt>
      <trkpt lat="45.45821" lon="4.66668">
        <ele>808.60595703125</ele>
        <time>2012-10-13T09:31:12Z</time>
      </trkpt>
      <trkpt lat="45.45823" lon="4.66693">
        <ele>812.45141601562</ele>
        <time>2012-10-13T09:31:20Z</time>
      </trkpt>
      <trkpt lat="45.45826" lon="4.6671">
        <ele>813.41284179688</ele>
        <time>2012-10-13T09:31:25Z</time>
      </trkpt>
      <trkpt lat="45.45827" lon="4.66729">
        <ele>812.45141601562</ele>
        <time>2012-10-13T09:31:30Z</time>
      </trkpt>
      <trkpt lat="45.45834" lon="4.66743">
        <ele>813.89331054688</ele>
        <time>2012-10-13T09:31:34Z</time>
      </trkpt>
      <trkpt lat="45.45837" lon="4.66765">
        <ele>809.08666992188</ele>
        <time>2012-10-13T09:31:39Z</time>
      </trkpt>
      <trkpt lat="45.4584" lon="4.66779">
        <ele>811.48999023438</ele>
        <time>2012-10-13T09:31:43Z</time>
      </trkpt>
      <trkpt lat="45.45847" lon="4.66802">
        <ele>811.48999023438</ele>
        <time>2012-10-13T09:31:48Z</time>
      </trkpt>
      <trkpt lat="45.45857" lon="4.66822">
        <ele>812.45141601562</ele>
        <time>2012-10-13T09:31:53Z</time>
      </trkpt>
      <trkpt lat="45.4587" lon="4.66852">
        <ele>811.00927734375</ele>
        <time>2012-10-13T09:32:00Z</time>
      </trkpt>
      <trkpt lat="45.45884" lon="4.6688">
        <ele>814.85473632812</ele>
        <time>2012-10-13T09:32:06Z</time>
      </trkpt>
      <trkpt lat="45.45894" lon="4.66897">
        <ele>816.77734375</ele>
        <time>2012-10-13T09:32:10Z</time>
      </trkpt>
      <trkpt lat="45.459" lon="4.6691">
        <ele>817.25805664062</ele>
        <time>2012-10-13T09:32:13Z</time>
      </trkpt>
      <trkpt lat="45.45914" lon="4.66941">
        <ele>819.66137695312</ele>
        <time>2012-10-13T09:32:20Z</time>
      </trkpt>
      <trkpt lat="45.4592" lon="4.66969">
        <ele>816.29663085938</ele>
        <time>2012-10-13T09:32:25Z</time>
      </trkpt>
      <trkpt lat="45.45921" lon="4.66994">
        <ele>810.0478515625</ele>
        <time>2012-10-13T09:32:29Z</time>
      </trkpt>
      <trkpt lat="45.45923" lon="4.67011">
        <ele>808.60595703125</ele>
        <time>2012-10-13T09:32:32Z</time>
      </trkpt>
      <trkpt lat="45.45927" lon="4.67031">
        <ele>811.48999023438</ele>
        <time>2012-10-13T09:32:36Z</time>
      </trkpt>
      <trkpt lat="45.45938" lon="4.67058">
        <ele>819.66137695312</ele>
        <time>2012-10-13T09:32:42Z</time>
      </trkpt>
      <trkpt lat="45.45937" lon="4.6708">
        <ele>814.85473632812</ele>
        <time>2012-10-13T09:32:47Z</time>
      </trkpt>
      <trkpt lat="45.45938" lon="4.67095">
        <ele>812.45141601562</ele>
        <time>2012-10-13T09:32:51Z</time>
      </trkpt>
      <trkpt lat="45.45939" lon="4.67116">
        <ele>807.64477539062</ele>
        <time>2012-10-13T09:32:56Z</time>
      </trkpt>
      <trkpt lat="45.45937" lon="4.67137">
        <ele>802.83813476562</ele>
        <time>2012-10-13T09:33:00Z</time>
      </trkpt>
      <trkpt lat="45.45935" lon="4.67165">
        <ele>800.91552734375</ele>
        <time>2012-10-13T09:33:05Z</time>
      </trkpt>
      <trkpt lat="45.45935" lon="4.67194">
        <ele>799.95434570312</ele>
        <time>2012-10-13T09:33:10Z</time>
      </trkpt>
      <trkpt lat="45.45939" lon="4.67222">
        <ele>803.79956054688</ele>
        <time>2012-10-13T09:33:15Z</time>
      </trkpt>
      <trkpt lat="45.45939" lon="4.67237">
        <ele>803.31884765625</ele>
        <time>2012-10-13T09:33:17Z</time>
      </trkpt>
      <trkpt lat="45.45939" lon="4.67262">
        <ele>803.79956054688</ele>
        <time>2012-10-13T09:33:20Z</time>
      </trkpt>
      <trkpt lat="45.45939" lon="4.67288">
        <ele>804.2802734375</ele>
        <time>2012-10-13T09:33:23Z</time>
      </trkpt>
      <trkpt lat="45.45936" lon="4.67337">
        <ele>799.4736328125</ele>
        <time>2012-10-13T09:33:29Z</time>
      </trkpt>
      <trkpt lat="45.45934" lon="4.67356">
        <ele>797.0703125</ele>
        <time>2012-10-13T09:33:31Z</time>
      </trkpt>
      <trkpt lat="45.45938" lon="4.67417">
        <ele>798.51220703125</ele>
        <time>2012-10-13T09:33:38Z</time>
      </trkpt>
      <trkpt lat="45.45941" lon="4.67436">
        <ele>798.03173828125</ele>
        <time>2012-10-13T09:33:40Z</time>
      </trkpt>
      <trkpt lat="45.45952" lon="4.67475">
        <ele>793.70556640625</ele>
        <time>2012-10-13T09:33:44Z</time>
      </trkpt>
      <trkpt lat="45.45968" lon="4.67543">
        <ele>788.89916992188</ele>
        <time>2012-10-13T09:33:50Z</time>
      </trkpt>
      <trkpt lat="45.45981" lon="4.67596">
        <ele>787.45703125</ele>
        <time>2012-10-13T09:33:55Z</time>
      </trkpt>
      <trkpt lat="45.4599" lon="4.67631">
        <ele>784.09252929688</ele>
        <time>2012-10-13T09:33:58Z</time>
      </trkpt>
      <trkpt lat="45.45998" lon="4.67682">
        <ele>777.84375</ele>
        <time>2012-10-13T09:34:02Z</time>
      </trkpt>
      <trkpt lat="45.46" lon="4.67705">
        <ele>775.4404296875</ele>
        <time>2012-10-13T09:34:04Z</time>
      </trkpt>
      <trkpt lat="45.46003" lon="4.67738">
        <ele>769.6728515625</ele>
        <time>2012-10-13T09:34:07Z</time>
      </trkpt>
      <trkpt lat="45.45998" lon="4.67776">
        <ele>765.34692382812</ele>
        <time>2012-10-13T09:34:11Z</time>
      </trkpt>
      <trkpt lat="45.45991" lon="4.67803">
        <ele>766.30810546875</ele>
        <time>2012-10-13T09:34:14Z</time>
      </trkpt>
      <trkpt lat="45.45977" lon="4.6784">
        <ele>769.19213867188</ele>
        <time>2012-10-13T09:34:19Z</time>
      </trkpt>
      <trkpt lat="45.45972" lon="4.67844">
        <ele>768.23071289062</ele>
        <time>2012-10-13T09:34:20Z</time>
      </trkpt>
      <trkpt lat="45.45963" lon="4.67852">
        <ele>768.71142578125</ele>
        <time>2012-10-13T09:34:22Z</time>
      </trkpt>
      <trkpt lat="45.45919" lon="4.67875">
        <ele>767.26953125</ele>
        <time>2012-10-13T09:34:30Z</time>
      </trkpt>
      <trkpt lat="45.45914" lon="4.67877">
        <ele>767.26953125</ele>
        <time>2012-10-13T09:34:31Z</time>
      </trkpt>
      <trkpt lat="45.45896" lon="4.67883">
        <ele>769.19213867188</ele>
        <time>2012-10-13T09:34:35Z</time>
      </trkpt>
      <trkpt lat="45.45889" lon="4.67886">
        <ele>769.19213867188</ele>
        <time>2012-10-13T09:34:37Z</time>
      </trkpt>
      <trkpt lat="45.45858" lon="4.67892">
        <ele>767.75</ele>
        <time>2012-10-13T09:34:44Z</time>
      </trkpt>
      <trkpt lat="45.45833" lon="4.679">
        <ele>767.75</ele>
        <time>2012-10-13T09:34:49Z</time>
      </trkpt>
      <trkpt lat="45.45797" lon="4.67913">
        <ele>764.8662109375</ele>
        <time>2012-10-13T09:34:56Z</time>
      </trkpt>
      <trkpt lat="45.45766" lon="4.6792">
        <ele>764.8662109375</ele>
        <time>2012-10-13T09:35:02Z</time>
      </trkpt>
      <trkpt lat="45.45744" lon="4.67918">
        <ele>768.23071289062</ele>
        <time>2012-10-13T09:35:08Z</time>
      </trkpt>
      <trkpt lat="45.45724" lon="4.67908">
        <ele>773.03735351562</ele>
        <time>2012-10-13T09:35:13Z</time>
      </trkpt>
      <trkpt lat="45.45712" lon="4.67901">
        <ele>774.9599609375</ele>
        <time>2012-10-13T09:35:16Z</time>
      </trkpt>
      <trkpt lat="45.45701" lon="4.67888">
        <ele>775.4404296875</ele>
        <time>2012-10-13T09:35:19Z</time>
      </trkpt>
      <trkpt lat="45.45687" lon="4.6786">
        <ele>778.80517578125</ele>
        <time>2012-10-13T09:35:24Z</time>
      </trkpt>
      <trkpt lat="45.45674" lon="4.6784">
        <ele>780.72802734375</ele>
        <time>2012-10-13T09:35:28Z</time>
      </trkpt>
      <trkpt lat="45.45651" lon="4.67819">
        <ele>783.13110351562</ele>
        <time>2012-10-13T09:35:34Z</time>
      </trkpt>
      <trkpt lat="45.45646" lon="4.67813">
        <ele>781.20874023438</ele>
        <time>2012-10-13T09:35:36Z</time>
      </trkpt>
      <trkpt lat="45.45629" lon="4.67797">
        <ele>784.5732421875</ele>
        <time>2012-10-13T09:35:41Z</time>
      </trkpt>
      <trkpt lat="45.45608" lon="4.67781">
        <ele>792.74438476562</ele>
        <time>2012-10-13T09:35:47Z</time>
      </trkpt>
      <trkpt lat="45.45591" lon="4.67768">
        <ele>793.70556640625</ele>
        <time>2012-10-13T09:35:52Z</time>
      </trkpt>
      <trkpt lat="45.4557" lon="4.67752">
        <ele>793.22485351562</ele>
        <time>2012-10-13T09:35:58Z</time>
      </trkpt>
      <trkpt lat="45.45552" lon="4.67736">
        <ele>792.263671875</ele>
        <time>2012-10-13T09:36:03Z</time>
      </trkpt>
      <trkpt lat="45.45549" lon="4.67734">
        <ele>792.263671875</ele>
        <time>2012-10-13T09:36:04Z</time>
      </trkpt>
      <trkpt lat="45.4554" lon="4.67731">
        <ele>797.0703125</ele>
        <time>2012-10-13T09:36:06Z</time>
      </trkpt>
      <trkpt lat="45.45526" lon="4.67728">
        <ele>801.876953125</ele>
        <time>2012-10-13T09:36:09Z</time>
      </trkpt>
      <trkpt lat="45.45521" lon="4.67721">
        <ele>798.51220703125</ele>
        <time>2012-10-13T09:36:11Z</time>
      </trkpt>
      <trkpt lat="45.45511" lon="4.67717">
        <ele>796.58984375</ele>
        <time>2012-10-13T09:36:14Z</time>
      </trkpt>
      <trkpt lat="45.45489" lon="4.67697">
        <ele>800.43505859375</ele>
        <time>2012-10-13T09:36:21Z</time>
      </trkpt>
      <trkpt lat="45.45477" lon="4.67683">
        <ele>799.95434570312</ele>
        <time>2012-10-13T09:36:25Z</time>
      </trkpt>
      <trkpt lat="45.45465" lon="4.67668">
        <ele>798.51220703125</ele>
        <time>2012-10-13T09:36:29Z</time>
      </trkpt>
      <trkpt lat="45.45463" lon="4.67665">
        <ele>798.51220703125</ele>
        <time>2012-10-13T09:36:30Z</time>
      </trkpt>
      <trkpt lat="45.45443" lon="4.67647">
        <ele>794.66674804688</ele>
        <time>2012-10-13T09:36:36Z</time>
      </trkpt>
      <trkpt lat="45.45418" lon="4.67629">
        <ele>787.45703125</ele>
        <time>2012-10-13T09:36:43Z</time>
      </trkpt>
      <trkpt lat="45.454" lon="4.67625">
        <ele>783.13110351562</ele>
        <time>2012-10-13T09:36:47Z</time>
      </trkpt>
      <trkpt lat="45.4538" lon="4.67623">
        <ele>780.24731445312</ele>
        <time>2012-10-13T09:36:52Z</time>
      </trkpt>
      <trkpt lat="45.45364" lon="4.67621">
        <ele>775.92114257812</ele>
        <time>2012-10-13T09:36:56Z</time>
      </trkpt>
      <trkpt lat="45.45338" lon="4.67619">
        <ele>767.26953125</ele>
        <time>2012-10-13T09:37:02Z</time>
      </trkpt>
      <trkpt lat="45.45313" lon="4.67626">
        <ele>767.75</ele>
        <time>2012-10-13T09:37:07Z</time>
      </trkpt>
      <trkpt lat="45.45293" lon="4.67628">
        <ele>765.82763671875</ele>
        <time>2012-10-13T09:37:11Z</time>
      </trkpt>
      <trkpt lat="45.4527" lon="4.6762">
        <ele>770.1533203125</ele>
        <time>2012-10-13T09:37:16Z</time>
      </trkpt>
      <trkpt lat="45.45253" lon="4.67608">
        <ele>772.556640625</ele>
        <time>2012-10-13T09:37:20Z</time>
      </trkpt>
      <trkpt lat="45.45235" lon="4.67597">
        <ele>777.84375</ele>
        <time>2012-10-13T09:37:24Z</time>
      </trkpt>
      <trkpt lat="45.45225" lon="4.67595">
        <ele>779.28564453125</ele>
        <time>2012-10-13T09:37:26Z</time>
      </trkpt>
      <trkpt lat="45.45206" lon="4.6758">
        <ele>781.68920898438</ele>
        <time>2012-10-13T09:37:31Z</time>
      </trkpt>
      <trkpt lat="45.45203" lon="4.67576">
        <ele>782.169921875</ele>
        <time>2012-10-13T09:37:32Z</time>
      </trkpt>
      <trkpt lat="45.45199" lon="4.6757">
        <ele>781.68920898438</ele>
        <time>2012-10-13T09:37:34Z</time>
      </trkpt>
      <trkpt lat="45.45188" lon="4.67558">
        <ele>785.53442382812</ele>
        <time>2012-10-13T09:37:41Z</time>
      </trkpt>
      <trkpt lat="45.45178" lon="4.67544">
        <ele>786.49584960938</ele>
        <time>2012-10-13T09:37:46Z</time>
      </trkpt>
      <trkpt lat="45.45169" lon="4.67531">
        <ele>787.45703125</ele>
        <time>2012-10-13T09:37:51Z</time>
      </trkpt>
      <trkpt lat="45.45158" lon="4.67517">
        <ele>787.45703125</ele>
        <time>2012-10-13T09:37:57Z</time>
      </trkpt>
      <trkpt lat="45.45148" lon="4.67502">
        <ele>785.53442382812</ele>
        <time>2012-10-13T09:38:03Z</time>
      </trkpt>
      <trkpt lat="45.45147" lon="4.67501">
        <ele>785.53442382812</ele>
        <time>2012-10-13T09:38:04Z</time>
      </trkpt>
      <trkpt lat="45.45135" lon="4.6748">
        <ele>782.169921875</ele>
        <time>2012-10-13T09:38:12Z</time>
      </trkpt>
      <trkpt lat="45.45125" lon="4.67463">
        <ele>782.169921875</ele>
        <time>2012-10-13T09:38:18Z</time>
      </trkpt>
      <trkpt lat="45.45116" lon="4.67446">
        <ele>781.68920898438</ele>
        <time>2012-10-13T09:38:24Z</time>
      </trkpt>
      <trkpt lat="45.45107" lon="4.67426">
        <ele>780.72802734375</ele>
        <time>2012-10-13T09:38:31Z</time>
      </trkpt>
      <trkpt lat="45.45097" lon="4.6741">
        <ele>779.76635742188</ele>
        <time>2012-10-13T09:38:36Z</time>
      </trkpt>
      <trkpt lat="45.45084" lon="4.67385">
        <ele>780.24731445312</ele>
        <time>2012-10-13T09:38:42Z</time>
      </trkpt>
      <trkpt lat="45.4507" lon="4.67354">
        <ele>778.32446289062</ele>
        <time>2012-10-13T09:38:49Z</time>
      </trkpt>
      <trkpt lat="45.45059" lon="4.67331">
        <ele>779.28564453125</ele>
        <time>2012-10-13T09:38:55Z</time>
      </trkpt>
      <trkpt lat="45.45049" lon="4.67312">
        <ele>780.24731445312</ele>
        <time>2012-10-13T09:39:00Z</time>
      </trkpt>
      <trkpt lat="45.45037" lon="4.67285">
        <ele>780.24731445312</ele>
        <time>2012-10-13T09:39:06Z</time>
      </trkpt>
      <trkpt lat="45.4502" lon="4.67244">
        <ele>776.40185546875</ele>
        <time>2012-10-13T09:39:13Z</time>
      </trkpt>
      <trkpt lat="45.45011" lon="4.67218">
        <ele>776.40185546875</ele>
        <time>2012-10-13T09:39:17Z</time>
      </trkpt>
      <trkpt lat="45.45003" lon="4.67204">
        <ele>777.84375</ele>
        <time>2012-10-13T09:39:20Z</time>
      </trkpt>
      <trkpt lat="45.44997" lon="4.6719">
        <ele>779.28564453125</ele>
        <time>2012-10-13T09:39:23Z</time>
      </trkpt>
      <trkpt lat="45.44992" lon="4.6717">
        <ele>778.80517578125</ele>
        <time>2012-10-13T09:39:27Z</time>
      </trkpt>
      <trkpt lat="45.44983" lon="4.67134">
        <ele>780.72802734375</ele>
        <time>2012-10-13T09:39:34Z</time>
      </trkpt>
      <trkpt lat="45.44977" lon="4.67108">
        <ele>778.32446289062</ele>
        <time>2012-10-13T09:39:39Z</time>
      </trkpt>
      <trkpt lat="45.44972" lon="4.67097">
        <ele>779.28564453125</ele>
        <time>2012-10-13T09:39:41Z</time>
      </trkpt>
      <trkpt lat="45.44962" lon="4.67071">
        <ele>779.28564453125</ele>
        <time>2012-10-13T09:39:46Z</time>
      </trkpt>
      <trkpt lat="45.44957" lon="4.67058">
        <ele>778.80517578125</ele>
        <time>2012-10-13T09:39:49Z</time>
      </trkpt>
      <trkpt lat="45.4494" lon="4.67021">
        <ele>773.51806640625</ele>
        <time>2012-10-13T09:39:56Z</time>
      </trkpt>
      <trkpt lat="45.44929" lon="4.66997">
        <ele>773.99853515625</ele>
        <time>2012-10-13T09:40:01Z</time>
      </trkpt>
      <trkpt lat="45.44926" lon="4.66987">
        <ele>772.07592773438</ele>
        <time>2012-10-13T09:40:03Z</time>
      </trkpt>
      <trkpt lat="45.44921" lon="4.66969">
        <ele>771.59521484375</ele>
        <time>2012-10-13T09:40:06Z</time>
      </trkpt>
      <trkpt lat="45.44909" lon="4.66933">
        <ele>768.23071289062</ele>
        <time>2012-10-13T09:40:13Z</time>
      </trkpt>
      <trkpt lat="45.44907" lon="4.66926">
        <ele>767.75</ele>
        <time>2012-10-13T09:40:14Z</time>
      </trkpt>
      <trkpt lat="45.44895" lon="4.66901">
        <ele>765.82763671875</ele>
        <time>2012-10-13T09:40:18Z</time>
      </trkpt>
      <trkpt lat="45.44884" lon="4.6688">
        <ele>765.34692382812</ele>
        <time>2012-10-13T09:40:21Z</time>
      </trkpt>
      <trkpt lat="45.4486" lon="4.66852">
        <ele>764.8662109375</ele>
        <time>2012-10-13T09:40:27Z</time>
      </trkpt>
      <trkpt lat="45.44836" lon="4.66827">
        <ele>763.42407226562</ele>
        <time>2012-10-13T09:40:32Z</time>
      </trkpt>
      <trkpt lat="45.44815" lon="4.66814">
        <ele>768.23071289062</ele>
        <time>2012-10-13T09:40:36Z</time>
      </trkpt>
      <trkpt lat="45.44803" lon="4.66808">
        <ele>771.11474609375</ele>
        <time>2012-10-13T09:40:38Z</time>
      </trkpt>
      <trkpt lat="45.44774" lon="4.66779">
        <ele>776.88256835938</ele>
        <time>2012-10-13T09:40:44Z</time>
      </trkpt>
      <trkpt lat="45.44757" lon="4.66758">
        <ele>778.80517578125</ele>
        <time>2012-10-13T09:40:48Z</time>
      </trkpt>
      <trkpt lat="45.44744" lon="4.66732">
        <ele>781.68920898438</ele>
        <time>2012-10-13T09:40:53Z</time>
      </trkpt>
      <trkpt lat="45.44739" lon="4.66716">
        <ele>784.5732421875</ele>
        <time>2012-10-13T09:40:57Z</time>
      </trkpt>
      <trkpt lat="45.44738" lon="4.66712">
        <ele>784.09252929688</ele>
        <time>2012-10-13T09:40:58Z</time>
      </trkpt>
      <trkpt lat="45.44726" lon="4.66682">
        <ele>783.13110351562</ele>
        <time>2012-10-13T09:41:04Z</time>
      </trkpt>
      <trkpt lat="45.44716" lon="4.66658">
        <ele>781.20874023438</ele>
        <time>2012-10-13T09:41:09Z</time>
      </trkpt>
      <trkpt lat="45.44709" lon="4.66645">
        <ele>780.72802734375</ele>
        <time>2012-10-13T09:41:12Z</time>
      </trkpt>
      <trkpt lat="45.44702" lon="4.66629">
        <ele>780.72802734375</ele>
        <time>2012-10-13T09:41:15Z</time>
      </trkpt>
      <trkpt lat="45.44689" lon="4.66605">
        <ele>780.24731445312</ele>
        <time>2012-10-13T09:41:20Z</time>
      </trkpt>
      <trkpt lat="45.44673" lon="4.66566">
        <ele>779.28564453125</ele>
        <time>2012-10-13T09:41:27Z</time>
      </trkpt>
      <trkpt lat="45.44665" lon="4.66545">
        <ele>776.40185546875</ele>
        <time>2012-10-13T09:41:30Z</time>
      </trkpt>
      <trkpt lat="45.4465" lon="4.66498">
        <ele>767.26953125</ele>
        <time>2012-10-13T09:41:36Z</time>
      </trkpt>
      <trkpt lat="45.4464" lon="4.66474">
        <ele>763.42407226562</ele>
        <time>2012-10-13T09:41:39Z</time>
      </trkpt>
      <trkpt lat="45.44635" lon="4.66454">
        <ele>758.13696289062</ele>
        <time>2012-10-13T09:41:41Z</time>
      </trkpt>
      <trkpt lat="45.44623" lon="4.66402">
        <ele>749.48510742188</ele>
        <time>2012-10-13T09:41:46Z</time>
      </trkpt>
      <trkpt lat="45.44619" lon="4.66386">
        <ele>748.04321289062</ele>
        <time>2012-10-13T09:41:48Z</time>
      </trkpt>
      <trkpt lat="45.44609" lon="4.66344">
        <ele>738.42993164062</ele>
        <time>2012-10-13T09:41:53Z</time>
      </trkpt>
      <trkpt lat="45.446" lon="4.66304">
        <ele>736.02661132812</ele>
        <time>2012-10-13T09:41:57Z</time>
      </trkpt>
      <trkpt lat="45.44597" lon="4.66264">
        <ele>729.29711914062</ele>
        <time>2012-10-13T09:42:02Z</time>
      </trkpt>
      <trkpt lat="45.44596" lon="4.66228">
        <ele>727.37475585938</ele>
        <time>2012-10-13T09:42:06Z</time>
      </trkpt>
      <trkpt lat="45.44596" lon="4.66185">
        <ele>728.3359375</ele>
        <time>2012-10-13T09:42:11Z</time>
      </trkpt>
      <trkpt lat="45.44598" lon="4.66128">
        <ele>718.2421875</ele>
        <time>2012-10-13T09:42:17Z</time>
      </trkpt>
      <trkpt lat="45.44599" lon="4.661">
        <ele>716.31958007812</ele>
        <time>2012-10-13T09:42:20Z</time>
      </trkpt>
      <trkpt lat="45.44599" lon="4.66057">
        <ele>726.89404296875</ele>
        <time>2012-10-13T09:42:25Z</time>
      </trkpt>
      <trkpt lat="45.44601" lon="4.66024">
        <ele>733.62329101562</ele>
        <time>2012-10-13T09:42:28Z</time>
      </trkpt>
      <trkpt lat="45.44599" lon="4.65959">
        <ele>742.27514648438</ele>
        <time>2012-10-13T09:42:34Z</time>
      </trkpt>
      <trkpt lat="45.44585" lon="4.65917">
        <ele>752.849609375</ele>
        <time>2012-10-13T09:42:38Z</time>
      </trkpt>
      <trkpt lat="45.44575" lon="4.65889">
        <ele>761.02075195312</ele>
        <time>2012-10-13T09:42:41Z</time>
      </trkpt>
      <trkpt lat="45.4456" lon="4.65848">
        <ele>766.78881835938</ele>
        <time>2012-10-13T09:42:46Z</time>
      </trkpt>
      <trkpt lat="45.44548" lon="4.65815">
        <ele>770.63403320312</ele>
        <time>2012-10-13T09:42:50Z</time>
      </trkpt>
      <trkpt lat="45.44531" lon="4.65775">
        <ele>776.88256835938</ele>
        <time>2012-10-13T09:42:55Z</time>
      </trkpt>
      <trkpt lat="45.4451" lon="4.65736">
        <ele>778.80517578125</ele>
        <time>2012-10-13T09:43:00Z</time>
      </trkpt>
      <trkpt lat="45.44502" lon="4.65718">
        <ele>778.80517578125</ele>
        <time>2012-10-13T09:43:02Z</time>
      </trkpt>
      <trkpt lat="45.44484" lon="4.65663">
        <ele>771.59521484375</ele>
        <time>2012-10-13T09:43:07Z</time>
      </trkpt>
      <trkpt lat="45.44471" lon="4.65629">
        <ele>768.23071289062</ele>
        <time>2012-10-13T09:43:10Z</time>
      </trkpt>
      <trkpt lat="45.44452" lon="4.65589">
        <ele>769.19213867188</ele>
        <time>2012-10-13T09:43:14Z</time>
      </trkpt>
      <trkpt lat="45.44438" lon="4.65564">
        <ele>767.26953125</ele>
        <time>2012-10-13T09:43:17Z</time>
      </trkpt>
      <trkpt lat="45.44426" lon="4.65532">
        <ele>761.02075195312</ele>
        <time>2012-10-13T09:43:20Z</time>
      </trkpt>
      <trkpt lat="45.44419" lon="4.65489">
        <ele>753.81103515625</ele>
        <time>2012-10-13T09:43:24Z</time>
      </trkpt>
      <trkpt lat="45.44415" lon="4.65456">
        <ele>755.2529296875</ele>
        <time>2012-10-13T09:43:27Z</time>
      </trkpt>
      <trkpt lat="45.44421" lon="4.65402">
        <ele>740.8330078125</ele>
        <time>2012-10-13T09:43:32Z</time>
      </trkpt>
      <trkpt lat="45.44427" lon="4.65384">
        <ele>736.98779296875</ele>
        <time>2012-10-13T09:43:36Z</time>
      </trkpt>
      <trkpt lat="45.44432" lon="4.65362">
        <ele>731.21997070312</ele>
        <time>2012-10-13T09:43:41Z</time>
      </trkpt>
      <trkpt lat="45.44437" lon="4.65345">
        <ele>727.85522460938</ele>
        <time>2012-10-13T09:43:46Z</time>
      </trkpt>
      <trkpt lat="45.44438" lon="4.65335">
        <ele>733.62329101562</ele>
        <time>2012-10-13T09:43:50Z</time>
      </trkpt>
      <trkpt lat="45.44446" lon="4.65308">
        <ele>738.91064453125</ele>
        <time>2012-10-13T09:43:58Z</time>
      </trkpt>
      <trkpt lat="45.44454" lon="4.65282">
        <ele>742.27514648438</ele>
        <time>2012-10-13T09:44:05Z</time>
      </trkpt>
      <trkpt lat="45.44462" lon="4.65261">
        <ele>742.27514648438</ele>
        <time>2012-10-13T09:44:11Z</time>
      </trkpt>
      <trkpt lat="45.44467" lon="4.65239">
        <ele>743.71704101562</ele>
        <time>2012-10-13T09:44:17Z</time>
      </trkpt>
      <trkpt lat="45.44477" lon="4.65214">
        <ele>738.42993164062</ele>
        <time>2012-10-13T09:44:23Z</time>
      </trkpt>
      <trkpt lat="45.44489" lon="4.65169">
        <ele>739.39111328125</ele>
        <time>2012-10-13T09:44:32Z</time>
      </trkpt>
      <trkpt lat="45.44502" lon="4.6514">
        <ele>741.31372070312</ele>
        <time>2012-10-13T09:44:38Z</time>
      </trkpt>
      <trkpt lat="45.44505" lon="4.65135">
        <ele>741.31372070312</ele>
        <time>2012-10-13T09:44:39Z</time>
      </trkpt>
      <trkpt lat="45.44519" lon="4.65121">
        <ele>742.27514648438</ele>
        <time>2012-10-13T09:44:43Z</time>
      </trkpt>
      <trkpt lat="45.44541" lon="4.65099">
        <ele>746.60107421875</ele>
        <time>2012-10-13T09:44:50Z</time>
      </trkpt>
      <trkpt lat="45.44557" lon="4.65079">
        <ele>747.08154296875</ele>
        <time>2012-10-13T09:44:56Z</time>
      </trkpt>
      <trkpt lat="45.44572" lon="4.65058">
        <ele>749.48510742188</ele>
        <time>2012-10-13T09:45:01Z</time>
      </trkpt>
      <trkpt lat="45.44578" lon="4.65052">
        <ele>750.92700195312</ele>
        <time>2012-10-13T09:45:03Z</time>
      </trkpt>
      <trkpt lat="45.44582" lon="4.65051">
        <ele>752.36889648438</ele>
        <time>2012-10-13T09:45:07Z</time>
      </trkpt>
      <trkpt lat="45.44579" lon="4.65047">
        <ele>749.9658203125</ele>
        <time>2012-10-13T09:45:19Z</time>
      </trkpt>
      <trkpt lat="45.44572" lon="4.6504">
        <ele>725.45190429688</ele>
        <time>2012-10-13T09:45:34Z</time>
      </trkpt>
      <trkpt lat="45.44572" lon="4.65038">
        <ele>725.45190429688</ele>
        <time>2012-10-13T09:45:42Z</time>
      </trkpt>
      <trkpt lat="45.44572" lon="4.65033">
        <ele>729.29711914062</ele>
        <time>2012-10-13T09:45:58Z</time>
      </trkpt>
      <trkpt lat="45.44572" lon="4.65036">
        <ele>729.77783203125</ele>
        <time>2012-10-13T09:46:09Z</time>
      </trkpt>
      <trkpt lat="45.44576" lon="4.65046">
        <ele>720.6455078125</ele>
        <time>2012-10-13T09:46:23Z</time>
      </trkpt>
      <trkpt lat="45.44587" lon="4.65054">
        <ele>732.18139648438</ele>
        <time>2012-10-13T09:47:18Z</time>
      </trkpt>
      <trkpt lat="45.44585" lon="4.65053">
        <ele>728.81665039062</ele>
        <time>2012-10-13T09:47:37Z</time>
      </trkpt>
      <trkpt lat="45.44579" lon="4.65046">
        <ele>730.7392578125</ele>
        <time>2012-10-13T09:47:50Z</time>
      </trkpt>
      <trkpt lat="45.44578" lon="4.65044">
        <ele>740.8330078125</ele>
        <time>2012-10-13T09:48:05Z</time>
      </trkpt>
      <trkpt lat="45.44579" lon="4.6505">
        <ele>745.15893554688</ele>
        <time>2012-10-13T09:48:33Z</time>
      </trkpt>
      <trkpt lat="45.44579" lon="4.65046">
        <ele>743.236328125</ele>
        <time>2012-10-13T09:48:51Z</time>
      </trkpt>
      <trkpt lat="45.44581" lon="4.6504">
        <ele>743.71704101562</ele>
        <time>2012-10-13T09:48:58Z</time>
      </trkpt>
      <trkpt lat="45.44584" lon="4.65018">
        <ele>742.755859375</ele>
        <time>2012-10-13T09:49:06Z</time>
      </trkpt>
      <trkpt lat="45.44595" lon="4.64995">
        <ele>738.91064453125</ele>
        <time>2012-10-13T09:49:11Z</time>
      </trkpt>
      <trkpt lat="45.44601" lon="4.64986">
        <ele>735.5458984375</ele>
        <time>2012-10-13T09:49:15Z</time>
      </trkpt>
      <trkpt lat="45.44602" lon="4.64985">
        <ele>735.5458984375</ele>
        <time>2012-10-13T09:49:23Z</time>
      </trkpt>
      <trkpt lat="45.44604" lon="4.6498">
        <ele>734.10400390625</ele>
        <time>2012-10-13T09:49:29Z</time>
      </trkpt>
      <trkpt lat="45.44606" lon="4.6498">
        <ele>734.10400390625</ele>
        <time>2012-10-13T09:49:36Z</time>
      </trkpt>
      <trkpt lat="45.44608" lon="4.64975">
        <ele>732.662109375</ele>
        <time>2012-10-13T09:49:40Z</time>
      </trkpt>
      <trkpt lat="45.44611" lon="4.64957">
        <ele>730.25854492188</ele>
        <time>2012-10-13T09:49:47Z</time>
      </trkpt>
      <trkpt lat="45.44613" lon="4.64953">
        <ele>732.18139648438</ele>
        <time>2012-10-13T09:49:48Z</time>
      </trkpt>
      <trkpt lat="45.44621" lon="4.64925">
        <ele>734.10400390625</ele>
        <time>2012-10-13T09:49:53Z</time>
      </trkpt>
      <trkpt lat="45.44627" lon="4.64901">
        <ele>736.98779296875</ele>
        <time>2012-10-13T09:49:56Z</time>
      </trkpt>
      <trkpt lat="45.44633" lon="4.64857">
        <ele>733.142578125</ele>
        <time>2012-10-13T09:50:01Z</time>
      </trkpt>
      <trkpt lat="45.44639" lon="4.64839">
        <ele>732.18139648438</ele>
        <time>2012-10-13T09:50:03Z</time>
      </trkpt>
      <trkpt lat="45.44643" lon="4.64819">
        <ele>731.21997070312</ele>
        <time>2012-10-13T09:50:05Z</time>
      </trkpt>
      <trkpt lat="45.44637" lon="4.64786">
        <ele>732.18139648438</ele>
        <time>2012-10-13T09:50:08Z</time>
      </trkpt>
      <trkpt lat="45.44616" lon="4.64731">
        <ele>729.29711914062</ele>
        <time>2012-10-13T09:50:13Z</time>
      </trkpt>
      <trkpt lat="45.44599" lon="4.64685">
        <ele>724.49072265625</ele>
        <time>2012-10-13T09:50:18Z</time>
      </trkpt>
      <trkpt lat="45.44594" lon="4.64673">
        <ele>723.048828125</ele>
        <time>2012-10-13T09:50:20Z</time>
      </trkpt>
      <trkpt lat="45.44585" lon="4.64667">
        <ele>724.01000976562</ele>
        <time>2012-10-13T09:50:24Z</time>
      </trkpt>
      <trkpt lat="45.44572" lon="4.64677">
        <ele>720.6455078125</ele>
        <time>2012-10-13T09:50:27Z</time>
      </trkpt>
      <trkpt lat="45.44572" lon="4.64692">
        <ele>716.80029296875</ele>
        <time>2012-10-13T09:50:30Z</time>
      </trkpt>
      <trkpt lat="45.44574" lon="4.64702">
        <ele>716.80029296875</ele>
        <time>2012-10-13T09:50:31Z</time>
      </trkpt>
      <trkpt lat="45.44571" lon="4.64764">
        <ele>715.8388671875</ele>
        <time>2012-10-13T09:50:37Z</time>
      </trkpt>
      <trkpt lat="45.44569" lon="4.64772">
        <ele>716.80029296875</ele>
        <time>2012-10-13T09:50:38Z</time>
      </trkpt>
      <trkpt lat="45.44554" lon="4.64809">
        <ele>714.39672851562</ele>
        <time>2012-10-13T09:50:42Z</time>
      </trkpt>
      <trkpt lat="45.44549" lon="4.64833">
        <ele>711.51293945312</ele>
        <time>2012-10-13T09:50:44Z</time>
      </trkpt>
      <trkpt lat="45.44526" lon="4.64868">
        <ele>711.99365234375</ele>
        <time>2012-10-13T09:50:48Z</time>
      </trkpt>
      <trkpt lat="45.44519" lon="4.64886">
        <ele>710.55151367188</ele>
        <time>2012-10-13T09:50:50Z</time>
      </trkpt>
      <trkpt lat="45.44502" lon="4.64917">
        <ele>711.51293945312</ele>
        <time>2012-10-13T09:50:54Z</time>
      </trkpt>
      <trkpt lat="45.44478" lon="4.64945">
        <ele>710.07080078125</ele>
        <time>2012-10-13T09:50:58Z</time>
      </trkpt>
      <trkpt lat="45.44434" lon="4.64982">
        <ele>710.07080078125</ele>
        <time>2012-10-13T09:51:05Z</time>
      </trkpt>
      <trkpt lat="45.44405" lon="4.65013">
        <ele>709.10961914062</ele>
        <time>2012-10-13T09:51:10Z</time>
      </trkpt>
      <trkpt lat="45.44399" lon="4.65021">
        <ele>707.66772460938</ele>
        <time>2012-10-13T09:51:11Z</time>
      </trkpt>
      <trkpt lat="45.44378" lon="4.65073">
        <ele>704.78369140625</ele>
        <time>2012-10-13T09:51:16Z</time>
      </trkpt>
      <trkpt lat="45.44355" lon="4.65116">
        <ele>702.38037109375</ele>
        <time>2012-10-13T09:51:21Z</time>
      </trkpt>
      <trkpt lat="45.44336" lon="4.65148">
        <ele>697.09301757812</ele>
        <time>2012-10-13T09:51:25Z</time>
      </trkpt>
      <trkpt lat="45.44316" lon="4.65181">
        <ele>692.76733398438</ele>
        <time>2012-10-13T09:51:29Z</time>
      </trkpt>
      <trkpt lat="45.44286" lon="4.65227">
        <ele>684.11547851562</ele>
        <time>2012-10-13T09:51:35Z</time>
      </trkpt>
      <trkpt lat="45.44275" lon="4.65269">
        <ele>676.90551757812</ele>
        <time>2012-10-13T09:51:40Z</time>
      </trkpt>
      <trkpt lat="45.4426" lon="4.65304">
        <ele>670.17626953125</ele>
        <time>2012-10-13T09:51:45Z</time>
      </trkpt>
      <trkpt lat="45.4424" lon="4.65357">
        <ele>667.29223632812</ele>
        <time>2012-10-13T09:51:51Z</time>
      </trkpt>
      <trkpt lat="45.44232" lon="4.65378">
        <ele>665.36962890625</ele>
        <time>2012-10-13T09:51:53Z</time>
      </trkpt>
      <trkpt lat="45.44225" lon="4.6542">
        <ele>661.04370117188</ele>
        <time>2012-10-13T09:51:57Z</time>
      </trkpt>
      <trkpt lat="45.44212" lon="4.65462">
        <ele>651.9111328125</ele>
        <time>2012-10-13T09:52:01Z</time>
      </trkpt>
      <trkpt lat="45.44203" lon="4.65509">
        <ele>644.701171875</ele>
        <time>2012-10-13T09:52:06Z</time>
      </trkpt>
      <trkpt lat="45.44202" lon="4.65517">
        <ele>643.25927734375</ele>
        <time>2012-10-13T09:52:07Z</time>
      </trkpt>
      <trkpt lat="45.442" lon="4.65534">
        <ele>639.89477539062</ele>
        <time>2012-10-13T09:52:09Z</time>
      </trkpt>
      <trkpt lat="45.44194" lon="4.65572">
        <ele>634.607421875</ele>
        <time>2012-10-13T09:52:14Z</time>
      </trkpt>
      <trkpt lat="45.44193" lon="4.65594">
        <ele>630.28149414062</ele>
        <time>2012-10-13T09:52:17Z</time>
      </trkpt>
      <trkpt lat="45.44189" lon="4.65642">
        <ele>624.03295898438</ele>
        <time>2012-10-13T09:52:23Z</time>
      </trkpt>
      <trkpt lat="45.44188" lon="4.65678">
        <ele>621.14916992188</ele>
        <time>2012-10-13T09:52:27Z</time>
      </trkpt>
      <trkpt lat="45.44186" lon="4.65713">
        <ele>616.34228515625</ele>
        <time>2012-10-13T09:52:31Z</time>
      </trkpt>
      <trkpt lat="45.44184" lon="4.65747">
        <ele>615.86181640625</ele>
        <time>2012-10-13T09:52:36Z</time>
      </trkpt>
      <trkpt lat="45.44182" lon="4.65771">
        <ele>613.93896484375</ele>
        <time>2012-10-13T09:52:40Z</time>
      </trkpt>
      <trkpt lat="45.44181" lon="4.6579">
        <ele>607.69067382812</ele>
        <time>2012-10-13T09:52:43Z</time>
      </trkpt>
      <trkpt lat="45.44184" lon="4.65828">
        <ele>603.36450195312</ele>
        <time>2012-10-13T09:52:47Z</time>
      </trkpt>
      <trkpt lat="45.44184" lon="4.6584">
        <ele>602.8837890625</ele>
        <time>2012-10-13T09:52:48Z</time>
      </trkpt>
      <trkpt lat="45.44189" lon="4.65918">
        <ele>596.15478515625</ele>
        <time>2012-10-13T09:52:55Z</time>
      </trkpt>
      <trkpt lat="45.4419" lon="4.65927">
        <ele>597.11596679688</ele>
        <time>2012-10-13T09:52:56Z</time>
      </trkpt>
      <trkpt lat="45.44187" lon="4.65966">
        <ele>600.48071289062</ele>
        <time>2012-10-13T09:53:00Z</time>
      </trkpt>
      <trkpt lat="45.44186" lon="4.65998">
        <ele>604.326171875</ele>
        <time>2012-10-13T09:53:04Z</time>
      </trkpt>
      <trkpt lat="45.44187" lon="4.66037">
        <ele>607.2099609375</ele>
        <time>2012-10-13T09:53:09Z</time>
      </trkpt>
      <trkpt lat="45.44188" lon="4.66056">
        <ele>601.44189453125</ele>
        <time>2012-10-13T09:53:12Z</time>
      </trkpt>
      <trkpt lat="45.44184" lon="4.66088">
        <ele>591.34814453125</ele>
        <time>2012-10-13T09:53:16Z</time>
      </trkpt>
      <trkpt lat="45.4418" lon="4.66132">
        <ele>593.27075195312</ele>
        <time>2012-10-13T09:53:22Z</time>
      </trkpt>
      <trkpt lat="45.44174" lon="4.66153">
        <ele>598.55786132812</ele>
        <time>2012-10-13T09:53:26Z</time>
      </trkpt>
      <trkpt lat="45.44171" lon="4.66157">
        <ele>600</ele>
        <time>2012-10-13T09:53:27Z</time>
      </trkpt>
      <trkpt lat="45.44154" lon="4.66183">
        <ele>601.92260742188</ele>
        <time>2012-10-13T09:53:33Z</time>
      </trkpt>
      <trkpt lat="45.44147" lon="4.66193">
        <ele>600.96118164062</ele>
        <time>2012-10-13T09:53:35Z</time>
      </trkpt>
      <trkpt lat="45.44126" lon="4.6621">
        <ele>599.03857421875</ele>
        <time>2012-10-13T09:53:41Z</time>
      </trkpt>
      <trkpt lat="45.44122" lon="4.6621">
        <ele>598.55786132812</ele>
        <time>2012-10-13T09:53:42Z</time>
      </trkpt>
      <trkpt lat="45.4411" lon="4.66213">
        <ele>592.3095703125</ele>
        <time>2012-10-13T09:53:48Z</time>
      </trkpt>
      <trkpt lat="45.44107" lon="4.66213">
        <ele>591.34814453125</ele>
        <time>2012-10-13T09:53:50Z</time>
      </trkpt>
      <trkpt lat="45.44102" lon="4.66215">
        <ele>593.27075195312</ele>
        <time>2012-10-13T09:53:54Z</time>
      </trkpt>
      <trkpt lat="45.44094" lon="4.66215">
        <ele>593.75146484375</ele>
        <time>2012-10-13T09:53:59Z</time>
      </trkpt>
      <trkpt lat="45.44093" lon="4.66215">
        <ele>594.71264648438</ele>
        <time>2012-10-13T09:54:03Z</time>
      </trkpt>
      <trkpt lat="45.44097" lon="4.66221">
        <ele>591.34814453125</ele>
        <time>2012-10-13T09:54:18Z</time>
      </trkpt>
      <trkpt lat="45.44097" lon="4.66222">
        <ele>593.27075195312</ele>
        <time>2012-10-13T09:54:30Z</time>
      </trkpt>
      <trkpt lat="45.44094" lon="4.66222">
        <ele>591.82885742188</ele>
        <time>2012-10-13T09:54:43Z</time>
      </trkpt>
      <trkpt lat="45.44094" lon="4.66221">
        <ele>591.34814453125</ele>
        <time>2012-10-13T09:54:52Z</time>
      </trkpt>
      <trkpt lat="45.44094" lon="4.66222">
        <ele>591.34814453125</ele>
        <time>2012-10-13T09:54:53Z</time>
      </trkpt>
      <trkpt lat="45.44079" lon="4.66227">
        <ele>590.38696289062</ele>
        <time>2012-10-13T09:54:59Z</time>
      </trkpt>
      <trkpt lat="45.44056" lon="4.66232">
        <ele>588.94506835938</ele>
        <time>2012-10-13T09:55:05Z</time>
      </trkpt>
      <trkpt lat="45.44042" lon="4.66235">
        <ele>588.46435546875</ele>
        <time>2012-10-13T09:55:08Z</time>
      </trkpt>
      <trkpt lat="45.44028" lon="4.6624">
        <ele>586.54150390625</ele>
        <time>2012-10-13T09:55:11Z</time>
      </trkpt>
      <trkpt lat="45.44002" lon="4.66265">
        <ele>584.13818359375</ele>
        <time>2012-10-13T09:55:17Z</time>
      </trkpt>
      <trkpt lat="45.43978" lon="4.66301">
        <ele>579.33154296875</ele>
        <time>2012-10-13T09:55:22Z</time>
      </trkpt>
      <trkpt lat="45.43963" lon="4.66337">
        <ele>577.8896484375</ele>
        <time>2012-10-13T09:55:26Z</time>
      </trkpt>
      <trkpt lat="45.4395" lon="4.6636">
        <ele>576.92846679688</ele>
        <time>2012-10-13T09:55:30Z</time>
      </trkpt>
      <trkpt lat="45.4394" lon="4.66374">
        <ele>577.4091796875</ele>
        <time>2012-10-13T09:55:34Z</time>
      </trkpt>
      <trkpt lat="45.43937" lon="4.6638">
        <ele>576.92846679688</ele>
        <time>2012-10-13T09:55:35Z</time>
      </trkpt>
      <trkpt lat="45.43925" lon="4.66405">
        <ele>575.486328125</ele>
        <time>2012-10-13T09:55:38Z</time>
      </trkpt>
      <trkpt lat="45.43918" lon="4.66437">
        <ele>573.08325195312</ele>
        <time>2012-10-13T09:55:41Z</time>
      </trkpt>
      <trkpt lat="45.439" lon="4.66485">
        <ele>566.83447265625</ele>
        <time>2012-10-13T09:55:45Z</time>
      </trkpt>
      <trkpt lat="45.43879" lon="4.66547">
        <ele>559.14404296875</ele>
        <time>2012-10-13T09:55:50Z</time>
      </trkpt>
      <trkpt lat="45.43861" lon="4.66598">
        <ele>552.41455078125</ele>
        <time>2012-10-13T09:55:54Z</time>
      </trkpt>
      <trkpt lat="45.43848" lon="4.66665">
        <ele>542.32092285156</ele>
        <time>2012-10-13T09:55:59Z</time>
      </trkpt>
      <trkpt lat="45.43843" lon="4.66689">
        <ele>539.43688964844</ele>
        <time>2012-10-13T09:56:01Z</time>
      </trkpt>
      <trkpt lat="45.43835" lon="4.66723">
        <ele>536.07238769531</ele>
        <time>2012-10-13T09:56:05Z</time>
      </trkpt>
      <trkpt lat="45.43832" lon="4.66741">
        <ele>534.14965820312</ele>
        <time>2012-10-13T09:56:07Z</time>
      </trkpt>
      <trkpt lat="45.43825" lon="4.66756">
        <ele>533.6689453125</ele>
        <time>2012-10-13T09:56:11Z</time>
      </trkpt>
      <trkpt lat="45.43819" lon="4.66744">
        <ele>532.70776367188</ele>
        <time>2012-10-13T09:56:14Z</time>
      </trkpt>
      <trkpt lat="45.43816" lon="4.66732">
        <ele>532.22705078125</ele>
        <time>2012-10-13T09:56:16Z</time>
      </trkpt>
      <trkpt lat="45.43813" lon="4.66718">
        <ele>532.22705078125</ele>
        <time>2012-10-13T09:56:18Z</time>
      </trkpt>
      <trkpt lat="45.4381" lon="4.66699">
        <ele>532.70776367188</ele>
        <time>2012-10-13T09:56:21Z</time>
      </trkpt>
      <trkpt lat="45.43808" lon="4.66674">
        <ele>533.18835449219</ele>
        <time>2012-10-13T09:56:26Z</time>
      </trkpt>
      <trkpt lat="45.43807" lon="4.66664">
        <ele>533.18835449219</ele>
        <time>2012-10-13T09:56:30Z</time>
      </trkpt>
      <trkpt lat="45.43796" lon="4.66652">
        <ele>532.22705078125</ele>
        <time>2012-10-13T09:56:35Z</time>
      </trkpt>
      <trkpt lat="45.43787" lon="4.66635">
        <ele>531.74633789062</ele>
        <time>2012-10-13T09:56:39Z</time>
      </trkpt>
      <trkpt lat="45.43771" lon="4.66615">
        <ele>527.42041015625</ele>
        <time>2012-10-13T09:56:44Z</time>
      </trkpt>
      <trkpt lat="45.43759" lon="4.66596">
        <ele>524.05578613281</ele>
        <time>2012-10-13T09:56:48Z</time>
      </trkpt>
      <trkpt lat="45.43742" lon="4.66597">
        <ele>521.17199707031</ele>
        <time>2012-10-13T09:56:52Z</time>
      </trkpt>
      <trkpt lat="45.43698" lon="4.66624">
        <ele>514.92333984375</ele>
        <time>2012-10-13T09:56:58Z</time>
      </trkpt>
      <trkpt lat="45.43652" lon="4.66646">
        <ele>510.11669921875</ele>
        <time>2012-10-13T09:57:03Z</time>
      </trkpt>
      <trkpt lat="45.43633" lon="4.66654">
        <ele>509.15539550781</ele>
        <time>2012-10-13T09:57:05Z</time>
      </trkpt>
      <trkpt lat="45.43615" lon="4.66666">
        <ele>507.71350097656</ele>
        <time>2012-10-13T09:57:08Z</time>
      </trkpt>
      <trkpt lat="45.43601" lon="4.66662">
        <ele>505.79089355469</ele>
        <time>2012-10-13T09:57:12Z</time>
      </trkpt>
      <trkpt lat="45.436" lon="4.66656">
        <ele>505.31018066406</ele>
        <time>2012-10-13T09:57:13Z</time>
      </trkpt>
      <trkpt lat="45.4359" lon="4.66593">
        <ele>502.90673828125</ele>
        <time>2012-10-13T09:57:22Z</time>
      </trkpt>
      <trkpt lat="45.43587" lon="4.66554">
        <ele>505.31018066406</ele>
        <time>2012-10-13T09:57:27Z</time>
      </trkpt>
      <trkpt lat="45.43581" lon="4.66518">
        <ele>505.79089355469</ele>
        <time>2012-10-13T09:57:32Z</time>
      </trkpt>
      <trkpt lat="45.43578" lon="4.66468">
        <ele>504.34887695312</ele>
        <time>2012-10-13T09:57:38Z</time>
      </trkpt>
      <trkpt lat="45.4358" lon="4.66399">
        <ele>503.8681640625</ele>
        <time>2012-10-13T09:57:46Z</time>
      </trkpt>
      <trkpt lat="45.43589" lon="4.66337">
        <ele>504.34887695312</ele>
        <time>2012-10-13T09:57:54Z</time>
      </trkpt>
      <trkpt lat="45.43594" lon="4.66308">
        <ele>504.34887695312</ele>
        <time>2012-10-13T09:57:58Z</time>
      </trkpt>
      <trkpt lat="45.43606" lon="4.66267">
        <ele>504.82946777344</ele>
        <time>2012-10-13T09:58:04Z</time>
      </trkpt>
      <trkpt lat="45.43621" lon="4.6622">
        <ele>505.79089355469</ele>
        <time>2012-10-13T09:58:11Z</time>
      </trkpt>
      <trkpt lat="45.4363" lon="4.66185">
        <ele>506.75207519531</ele>
        <time>2012-10-13T09:58:16Z</time>
      </trkpt>
      <trkpt lat="45.43633" lon="4.66172">
        <ele>506.75207519531</ele>
        <time>2012-10-13T09:58:18Z</time>
      </trkpt>
      <trkpt lat="45.43645" lon="4.66112">
        <ele>508.67468261719</ele>
        <time>2012-10-13T09:58:27Z</time>
      </trkpt>
      <trkpt lat="45.43649" lon="4.66094">
        <ele>509.63610839844</ele>
        <time>2012-10-13T09:58:30Z</time>
      </trkpt>
      <trkpt lat="45.43651" lon="4.66079">
        <ele>510.11669921875</ele>
        <time>2012-10-13T09:58:33Z</time>
      </trkpt>
      <trkpt lat="45.43657" lon="4.66057">
        <ele>514.44262695312</ele>
        <time>2012-10-13T09:58:38Z</time>
      </trkpt>
      <trkpt lat="45.43655" lon="4.66041">
        <ele>514.44262695312</ele>
        <time>2012-10-13T09:58:41Z</time>
      </trkpt>
      <trkpt lat="45.43657" lon="4.66014">
        <ele>514.92333984375</ele>
        <time>2012-10-13T09:58:45Z</time>
      </trkpt>
      <trkpt lat="45.43665" lon="4.65979">
        <ele>514.44262695312</ele>
        <time>2012-10-13T09:58:50Z</time>
      </trkpt>
      <trkpt lat="45.43684" lon="4.65937">
        <ele>513.4814453125</ele>
        <time>2012-10-13T09:58:56Z</time>
      </trkpt>
      <trkpt lat="45.43687" lon="4.65906">
        <ele>513.00073242188</ele>
        <time>2012-10-13T09:59:00Z</time>
      </trkpt>
      <trkpt lat="45.43684" lon="4.65876">
        <ele>510.59729003906</ele>
        <time>2012-10-13T09:59:08Z</time>
      </trkpt>
      <trkpt lat="45.43674" lon="4.65861">
        <ele>509.15539550781</ele>
        <time>2012-10-13T09:59:15Z</time>
      </trkpt>
      <trkpt lat="45.43669" lon="4.65842">
        <ele>513.00073242188</ele>
        <time>2012-10-13T09:59:23Z</time>
      </trkpt>
      <trkpt lat="45.43663" lon="4.65828">
        <ele>515.40405273438</ele>
        <time>2012-10-13T09:59:31Z</time>
      </trkpt>
      <trkpt lat="45.43656" lon="4.65822">
        <ele>516.84594726562</ele>
        <time>2012-10-13T09:59:36Z</time>
      </trkpt>
      <trkpt lat="45.43644" lon="4.65817">
        <ele>515.88464355469</ele>
        <time>2012-10-13T09:59:41Z</time>
      </trkpt>
      <trkpt lat="45.43627" lon="4.65814">
        <ele>512.52001953125</ele>
        <time>2012-10-13T09:59:46Z</time>
      </trkpt>
      <trkpt lat="45.43603" lon="4.65811">
        <ele>508.67468261719</ele>
        <time>2012-10-13T09:59:53Z</time>
      </trkpt>
      <trkpt lat="45.43571" lon="4.6581">
        <ele>508.19409179688</ele>
        <time>2012-10-13T10:00:02Z</time>
      </trkpt>
      <trkpt lat="45.43552" lon="4.65811">
        <ele>507.23278808594</ele>
        <time>2012-10-13T10:00:07Z</time>
      </trkpt>
      <trkpt lat="45.43534" lon="4.65795">
        <ele>507.23278808594</ele>
        <time>2012-10-13T10:00:12Z</time>
      </trkpt>
      <trkpt lat="45.43508" lon="4.65792">
        <ele>506.271484375</ele>
        <time>2012-10-13T10:00:17Z</time>
      </trkpt>
      <trkpt lat="45.43485" lon="4.658">
        <ele>502.42614746094</ele>
        <time>2012-10-13T10:00:20Z</time>
      </trkpt>
      <trkpt lat="45.4345" lon="4.6582">
        <ele>501.94555664062</ele>
        <time>2012-10-13T10:00:25Z</time>
      </trkpt>
      <trkpt lat="45.43431" lon="4.65857">
        <ele>501.46484375</ele>
        <time>2012-10-13T10:00:30Z</time>
      </trkpt>
      <trkpt lat="45.43415" lon="4.65889">
        <ele>500.02294921875</ele>
        <time>2012-10-13T10:00:34Z</time>
      </trkpt>
      <trkpt lat="45.43406" lon="4.65922">
        <ele>496.177734375</ele>
        <time>2012-10-13T10:00:38Z</time>
      </trkpt>
      <trkpt lat="45.4338" lon="4.65973">
        <ele>491.85168457031</ele>
        <time>2012-10-13T10:00:44Z</time>
      </trkpt>
      <trkpt lat="45.43362" lon="4.65998">
        <ele>488.48718261719</ele>
        <time>2012-10-13T10:00:47Z</time>
      </trkpt>
      <trkpt lat="45.43346" lon="4.66026">
        <ele>487.52563476562</ele>
        <time>2012-10-13T10:00:50Z</time>
      </trkpt>
      <trkpt lat="45.43319" lon="4.66052">
        <ele>486.08374023438</ele>
        <time>2012-10-13T10:00:54Z</time>
      </trkpt>
      <trkpt lat="45.43288" lon="4.66065">
        <ele>482.23852539062</ele>
        <time>2012-10-13T10:00:57Z</time>
      </trkpt>
      <trkpt lat="45.43264" lon="4.66063">
        <ele>477.43188476562</ele>
        <time>2012-10-13T10:01:00Z</time>
      </trkpt>
      <trkpt lat="45.43237" lon="4.66069">
        <ele>476.47058105469</ele>
        <time>2012-10-13T10:01:03Z</time>
      </trkpt>
      <trkpt lat="45.4322" lon="4.66087">
        <ele>475.50927734375</ele>
        <time>2012-10-13T10:01:06Z</time>
      </trkpt>
      <trkpt lat="45.43206" lon="4.6612">
        <ele>476.47058105469</ele>
        <time>2012-10-13T10:01:10Z</time>
      </trkpt>
      <trkpt lat="45.43203" lon="4.66132">
        <ele>476.95129394531</ele>
        <time>2012-10-13T10:01:12Z</time>
      </trkpt>
      <trkpt lat="45.432" lon="4.66142">
        <ele>477.43188476562</ele>
        <time>2012-10-13T10:01:14Z</time>
      </trkpt>
      <trkpt lat="45.43196" lon="4.66151">
        <ele>478.87390136719</ele>
        <time>2012-10-13T10:01:16Z</time>
      </trkpt>
      <trkpt lat="45.43188" lon="4.66165">
        <ele>479.83508300781</ele>
        <time>2012-10-13T10:01:19Z</time>
      </trkpt>
      <trkpt lat="45.43175" lon="4.66175">
        <ele>482.23852539062</ele>
        <time>2012-10-13T10:01:23Z</time>
      </trkpt>
      <trkpt lat="45.43147" lon="4.66181">
        <ele>485.12243652344</ele>
        <time>2012-10-13T10:01:31Z</time>
      </trkpt>
      <trkpt lat="45.43125" lon="4.66196">
        <ele>484.64184570312</ele>
        <time>2012-10-13T10:01:36Z</time>
      </trkpt>
      <trkpt lat="45.431" lon="4.66216">
        <ele>483.19982910156</ele>
        <time>2012-10-13T10:01:41Z</time>
      </trkpt>
      <trkpt lat="45.43084" lon="4.66245">
        <ele>483.68041992188</ele>
        <time>2012-10-13T10:01:45Z</time>
      </trkpt>
      <trkpt lat="45.43073" lon="4.66305">
        <ele>482.23852539062</ele>
        <time>2012-10-13T10:01:51Z</time>
      </trkpt>
      <trkpt lat="45.4307" lon="4.66345">
        <ele>481.7578125</ele>
        <time>2012-10-13T10:01:55Z</time>
      </trkpt>
      <trkpt lat="45.43057" lon="4.66383">
        <ele>479.3544921875</ele>
        <time>2012-10-13T10:01:59Z</time>
      </trkpt>
      <trkpt lat="45.43051" lon="4.66391">
        <ele>478.87390136719</ele>
        <time>2012-10-13T10:02:00Z</time>
      </trkpt>
      <trkpt lat="45.43019" lon="4.66434">
        <ele>475.50927734375</ele>
        <time>2012-10-13T10:02:05Z</time>
      </trkpt>
      <trkpt lat="45.42996" lon="4.66493">
        <ele>469.2607421875</ele>
        <time>2012-10-13T10:02:10Z</time>
      </trkpt>
      <trkpt lat="45.42982" lon="4.66548">
        <ele>471.18334960938</ele>
        <time>2012-10-13T10:02:15Z</time>
      </trkpt>
      <trkpt lat="45.42966" lon="4.66599">
        <ele>472.62536621094</ele>
        <time>2012-10-13T10:02:21Z</time>
      </trkpt>
      <trkpt lat="45.42945" lon="4.66649">
        <ele>472.62536621094</ele>
        <time>2012-10-13T10:02:27Z</time>
      </trkpt>
      <trkpt lat="45.4292" lon="4.66691">
        <ele>474.06726074219</ele>
        <time>2012-10-13T10:02:33Z</time>
      </trkpt>
      <trkpt lat="45.42912" lon="4.66701">
        <ele>474.54797363281</ele>
        <time>2012-10-13T10:02:35Z</time>
      </trkpt>
      <trkpt lat="45.42904" lon="4.66708">
        <ele>474.54797363281</ele>
        <time>2012-10-13T10:02:37Z</time>
      </trkpt>
      <trkpt lat="45.42887" lon="4.66721">
        <ele>477.43188476562</ele>
        <time>2012-10-13T10:02:42Z</time>
      </trkpt>
      <trkpt lat="45.42875" lon="4.66728">
        <ele>477.43188476562</ele>
        <time>2012-10-13T10:02:45Z</time>
      </trkpt>
      <trkpt lat="45.4286" lon="4.66741">
        <ele>477.43188476562</ele>
        <time>2012-10-13T10:02:49Z</time>
      </trkpt>
      <trkpt lat="45.42841" lon="4.66758">
        <ele>477.43188476562</ele>
        <time>2012-10-13T10:02:54Z</time>
      </trkpt>
      <trkpt lat="45.42837" lon="4.6676">
        <ele>477.43188476562</ele>
        <time>2012-10-13T10:02:55Z</time>
      </trkpt>
      <trkpt lat="45.42822" lon="4.66772">
        <ele>476.47058105469</ele>
        <time>2012-10-13T10:03:00Z</time>
      </trkpt>
      <trkpt lat="45.42807" lon="4.66791">
        <ele>475.50927734375</ele>
        <time>2012-10-13T10:03:06Z</time>
      </trkpt>
      <trkpt lat="45.42796" lon="4.66805">
        <ele>475.50927734375</ele>
        <time>2012-10-13T10:03:10Z</time>
      </trkpt>
      <trkpt lat="45.42784" lon="4.66816">
        <ele>475.50927734375</ele>
        <time>2012-10-13T10:03:14Z</time>
      </trkpt>
      <trkpt lat="45.42766" lon="4.66834">
        <ele>476.47058105469</ele>
        <time>2012-10-13T10:03:19Z</time>
      </trkpt>
      <trkpt lat="45.42739" lon="4.66858">
        <ele>475.02868652344</ele>
        <time>2012-10-13T10:03:26Z</time>
      </trkpt>
      <trkpt lat="45.42708" lon="4.66886">
        <ele>477.43188476562</ele>
        <time>2012-10-13T10:03:33Z</time>
      </trkpt>
      <trkpt lat="45.42674" lon="4.66914">
        <ele>474.54797363281</ele>
        <time>2012-10-13T10:03:41Z</time>
      </trkpt>
      <trkpt lat="45.42651" lon="4.66927">
        <ele>474.54797363281</ele>
        <time>2012-10-13T10:03:46Z</time>
      </trkpt>
      <trkpt lat="45.42621" lon="4.66929">
        <ele>475.98986816406</ele>
        <time>2012-10-13T10:03:52Z</time>
      </trkpt>
      <trkpt lat="45.42581" lon="4.66921">
        <ele>474.54797363281</ele>
        <time>2012-10-13T10:03:58Z</time>
      </trkpt>
      <trkpt lat="45.42543" lon="4.66916">
        <ele>473.58666992188</ele>
        <time>2012-10-13T10:04:03Z</time>
      </trkpt>
      <trkpt lat="45.42521" lon="4.66906">
        <ele>473.10607910156</ele>
        <time>2012-10-13T10:04:06Z</time>
      </trkpt>
      <trkpt lat="45.42498" lon="4.66907">
        <ele>471.66394042969</ele>
        <time>2012-10-13T10:04:10Z</time>
      </trkpt>
      <trkpt lat="45.42493" lon="4.66911">
        <ele>470.70263671875</ele>
        <time>2012-10-13T10:04:11Z</time>
      </trkpt>
      <trkpt lat="45.42485" lon="4.66919">
        <ele>470.22192382812</ele>
        <time>2012-10-13T10:04:13Z</time>
      </trkpt>
      <trkpt lat="45.42464" lon="4.66927">
        <ele>469.2607421875</ele>
        <time>2012-10-13T10:04:17Z</time>
      </trkpt>
      <trkpt lat="45.42436" lon="4.66936">
        <ele>468.78002929688</ele>
        <time>2012-10-13T10:04:22Z</time>
      </trkpt>
      <trkpt lat="45.42418" lon="4.6694">
        <ele>468.78002929688</ele>
        <time>2012-10-13T10:04:26Z</time>
      </trkpt>
      <trkpt lat="45.42377" lon="4.66933">
        <ele>465.41552734375</ele>
        <time>2012-10-13T10:04:35Z</time>
      </trkpt>
      <trkpt lat="45.42348" lon="4.66928">
        <ele>464.93481445312</ele>
        <time>2012-10-13T10:04:41Z</time>
      </trkpt>
      <trkpt lat="45.42326" lon="4.6693">
        <ele>463.97338867188</ele>
        <time>2012-10-13T10:04:46Z</time>
      </trkpt>
      <trkpt lat="45.4231" lon="4.66944">
        <ele>465.41552734375</ele>
        <time>2012-10-13T10:04:51Z</time>
      </trkpt>
      <trkpt lat="45.42311" lon="4.66956">
        <ele>465.89611816406</ele>
        <time>2012-10-13T10:04:53Z</time>
      </trkpt>
      <trkpt lat="45.42319" lon="4.66992">
        <ele>463.01208496094</ele>
        <time>2012-10-13T10:04:58Z</time>
      </trkpt>
      <trkpt lat="45.4232" lon="4.67016">
        <ele>462.05078125</ele>
        <time>2012-10-13T10:05:01Z</time>
      </trkpt>
      <trkpt lat="45.42315" lon="4.67066">
        <ele>462.53137207031</ele>
        <time>2012-10-13T10:05:07Z</time>
      </trkpt>
      <trkpt lat="45.42314" lon="4.67073">
        <ele>463.01208496094</ele>
        <time>2012-10-13T10:05:08Z</time>
      </trkpt>
      <trkpt lat="45.4231" lon="4.67088">
        <ele>464.93481445312</ele>
        <time>2012-10-13T10:05:12Z</time>
      </trkpt>
      <trkpt lat="45.42307" lon="4.6709">
        <ele>464.93481445312</ele>
        <time>2012-10-13T10:05:22Z</time>
      </trkpt>
      <trkpt lat="45.42306" lon="4.67092">
        <ele>464.4541015625</ele>
        <time>2012-10-13T10:05:29Z</time>
      </trkpt>
      <trkpt lat="45.42306" lon="4.67101">
        <ele>472.14465332031</ele>
        <time>2012-10-13T10:05:41Z</time>
      </trkpt>
      <trkpt lat="45.42297" lon="4.67121">
        <ele>474.06726074219</ele>
        <time>2012-10-13T10:05:45Z</time>
      </trkpt>
      <trkpt lat="45.42282" lon="4.67146">
        <ele>475.02868652344</ele>
        <time>2012-10-13T10:05:49Z</time>
      </trkpt>
      <trkpt lat="45.42248" lon="4.67183">
        <ele>474.54797363281</ele>
        <time>2012-10-13T10:05:56Z</time>
      </trkpt>
      <trkpt lat="45.42213" lon="4.67212">
        <ele>471.66394042969</ele>
        <time>2012-10-13T10:06:02Z</time>
      </trkpt>
      <trkpt lat="45.42175" lon="4.67244">
        <ele>468.78002929688</ele>
        <time>2012-10-13T10:06:09Z</time>
      </trkpt>
      <trkpt lat="45.42139" lon="4.67274">
        <ele>467.33813476562</ele>
        <time>2012-10-13T10:06:15Z</time>
      </trkpt>
      <trkpt lat="45.42115" lon="4.67301">
        <ele>466.857421875</ele>
        <time>2012-10-13T10:06:19Z</time>
      </trkpt>
      <trkpt lat="45.42089" lon="4.67359">
        <ele>463.49279785156</ele>
        <time>2012-10-13T10:06:25Z</time>
      </trkpt>
      <trkpt lat="45.42086" lon="4.67369">
        <ele>463.49279785156</ele>
        <time>2012-10-13T10:06:26Z</time>
      </trkpt>
      <trkpt lat="45.42082" lon="4.67389">
        <ele>463.01208496094</ele>
        <time>2012-10-13T10:06:28Z</time>
      </trkpt>
      <trkpt lat="45.4207" lon="4.67418">
        <ele>463.01208496094</ele>
        <time>2012-10-13T10:06:32Z</time>
      </trkpt>
      <trkpt lat="45.42067" lon="4.67424">
        <ele>463.01208496094</ele>
        <time>2012-10-13T10:06:33Z</time>
      </trkpt>
      <trkpt lat="45.42047" lon="4.67473">
        <ele>460.60876464844</ele>
        <time>2012-10-13T10:06:39Z</time>
      </trkpt>
      <trkpt lat="45.42024" lon="4.67539">
        <ele>459.16687011719</ele>
        <time>2012-10-13T10:06:46Z</time>
      </trkpt>
      <trkpt lat="45.42017" lon="4.67556">
        <ele>459.16687011719</ele>
        <time>2012-10-13T10:06:48Z</time>
      </trkpt>
      <trkpt lat="45.41984" lon="4.67596">
        <ele>457.72497558594</ele>
        <time>2012-10-13T10:06:54Z</time>
      </trkpt>
      <trkpt lat="45.41933" lon="4.67644">
        <ele>457.72497558594</ele>
        <time>2012-10-13T10:07:02Z</time>
      </trkpt>
      <trkpt lat="45.41912" lon="4.67663">
        <ele>457.24426269531</ele>
        <time>2012-10-13T10:07:05Z</time>
      </trkpt>
      <trkpt lat="45.41884" lon="4.67709">
        <ele>454.36022949219</ele>
        <time>2012-10-13T10:07:10Z</time>
      </trkpt>
      <trkpt lat="45.41879" lon="4.67721">
        <ele>453.87963867188</ele>
        <time>2012-10-13T10:07:11Z</time>
      </trkpt>
      <trkpt lat="45.41865" lon="4.67779">
        <ele>448.59240722656</ele>
        <time>2012-10-13T10:07:16Z</time>
      </trkpt>
      <trkpt lat="45.41855" lon="4.67809">
        <ele>448.59240722656</ele>
        <time>2012-10-13T10:07:19Z</time>
      </trkpt>
      <trkpt lat="45.41845" lon="4.67847">
        <ele>447.15026855469</ele>
        <time>2012-10-13T10:07:23Z</time>
      </trkpt>
      <trkpt lat="45.4183" lon="4.6789">
        <ele>446.66967773438</ele>
        <time>2012-10-13T10:07:28Z</time>
      </trkpt>
      <trkpt lat="45.41826" lon="4.67897">
        <ele>446.18908691406</ele>
        <time>2012-10-13T10:07:29Z</time>
      </trkpt>
      <trkpt lat="45.4181" lon="4.67919">
        <ele>444.26647949219</ele>
        <time>2012-10-13T10:07:34Z</time>
      </trkpt>
      <trkpt lat="45.41804" lon="4.67923">
        <ele>443.78576660156</ele>
        <time>2012-10-13T10:07:36Z</time>
      </trkpt>
      <trkpt lat="45.41796" lon="4.67924">
        <ele>443.30505371094</ele>
        <time>2012-10-13T10:07:41Z</time>
      </trkpt>
      <trkpt lat="45.41792" lon="4.67927">
        <ele>442.34387207031</ele>
        <time>2012-10-13T10:07:43Z</time>
      </trkpt>
      <trkpt lat="45.41781" lon="4.67923">
        <ele>440.42126464844</ele>
        <time>2012-10-13T10:07:47Z</time>
      </trkpt>
      <trkpt lat="45.41763" lon="4.67917">
        <ele>441.86315917969</ele>
        <time>2012-10-13T10:07:52Z</time>
      </trkpt>
      <trkpt lat="45.41759" lon="4.67916">
        <ele>442.82446289062</ele>
        <time>2012-10-13T10:07:54Z</time>
      </trkpt>
      <trkpt lat="45.41748" lon="4.67919">
        <ele>440.90185546875</ele>
        <time>2012-10-13T10:07:59Z</time>
      </trkpt>
      <trkpt lat="45.41722" lon="4.67909">
        <ele>437.537109375</ele>
        <time>2012-10-13T10:08:04Z</time>
      </trkpt>
      <trkpt lat="45.4171" lon="4.67904">
        <ele>436.09521484375</ele>
        <time>2012-10-13T10:08:06Z</time>
      </trkpt>
      <trkpt lat="45.41686" lon="4.67898">
        <ele>433.69189453125</ele>
        <time>2012-10-13T10:08:11Z</time>
      </trkpt>
      <trkpt lat="45.41679" lon="4.67895">
        <ele>433.21130371094</ele>
        <time>2012-10-13T10:08:15Z</time>
      </trkpt>
      <trkpt lat="45.41677" lon="4.67894">
        <ele>435.13391113281</ele>
        <time>2012-10-13T10:08:17Z</time>
      </trkpt>
      <trkpt lat="45.41659" lon="4.6789">
        <ele>434.17260742188</ele>
        <time>2012-10-13T10:08:23Z</time>
      </trkpt>
      <trkpt lat="45.41634" lon="4.67884">
        <ele>431.28857421875</ele>
        <time>2012-10-13T10:08:29Z</time>
      </trkpt>
      <trkpt lat="45.41605" lon="4.67876">
        <ele>429.84655761719</ele>
        <time>2012-10-13T10:08:36Z</time>
      </trkpt>
      <trkpt lat="45.41597" lon="4.67873">
        <ele>429.36596679688</ele>
        <time>2012-10-13T10:08:38Z</time>
      </trkpt>
      <trkpt lat="45.41588" lon="4.67871">
        <ele>428.88537597656</ele>
        <time>2012-10-13T10:08:40Z</time>
      </trkpt>
      <trkpt lat="45.41549" lon="4.67861">
        <ele>427.92395019531</ele>
        <time>2012-10-13T10:08:49Z</time>
      </trkpt>
      <trkpt lat="45.41519" lon="4.67851">
        <ele>427.443359375</ele>
        <time>2012-10-13T10:08:56Z</time>
      </trkpt>
      <trkpt lat="45.41515" lon="4.6785">
        <ele>427.92395019531</ele>
        <time>2012-10-13T10:08:58Z</time>
      </trkpt>
      <trkpt lat="45.41513" lon="4.6785">
        <ele>427.92395019531</ele>
        <time>2012-10-13T10:09:00Z</time>
      </trkpt>
      <trkpt lat="45.41506" lon="4.67847">
        <ele>429.36596679688</ele>
        <time>2012-10-13T10:09:05Z</time>
      </trkpt>
      <trkpt lat="45.41497" lon="4.67845">
        <ele>430.32727050781</ele>
        <time>2012-10-13T10:09:07Z</time>
      </trkpt>
      <trkpt lat="45.41468" lon="4.67834">
        <ele>428.88537597656</ele>
        <time>2012-10-13T10:09:14Z</time>
      </trkpt>
      <trkpt lat="45.41439" lon="4.67827">
        <ele>430.32727050781</ele>
        <time>2012-10-13T10:09:20Z</time>
      </trkpt>
      <trkpt lat="45.41412" lon="4.67824">
        <ele>426.00134277344</ele>
        <time>2012-10-13T10:09:26Z</time>
      </trkpt>
      <trkpt lat="45.41384" lon="4.67827">
        <ele>426.00134277344</ele>
        <time>2012-10-13T10:09:33Z</time>
      </trkpt>
      <trkpt lat="45.41361" lon="4.67837">
        <ele>425.52075195312</ele>
        <time>2012-10-13T10:09:40Z</time>
      </trkpt>
      <trkpt lat="45.41343" lon="4.67851">
        <ele>426.00134277344</ele>
        <time>2012-10-13T10:09:46Z</time>
      </trkpt>
      <trkpt lat="45.41325" lon="4.67872">
        <ele>427.443359375</ele>
        <time>2012-10-13T10:09:53Z</time>
      </trkpt>
      <trkpt lat="45.41317" lon="4.67883">
        <ele>428.88537597656</ele>
        <time>2012-10-13T10:09:58Z</time>
      </trkpt>
      <trkpt lat="45.41312" lon="4.67886">
        <ele>429.36596679688</ele>
        <time>2012-10-13T10:10:00Z</time>
      </trkpt>
      <trkpt lat="45.41303" lon="4.67905">
        <ele>429.36596679688</ele>
        <time>2012-10-13T10:10:05Z</time>
      </trkpt>
      <trkpt lat="45.41289" lon="4.67937">
        <ele>432.73071289062</ele>
        <time>2012-10-13T10:10:12Z</time>
      </trkpt>
      <trkpt lat="45.41283" lon="4.67969">
        <ele>436.09521484375</ele>
        <time>2012-10-13T10:10:18Z</time>
      </trkpt>
      <trkpt lat="45.41278" lon="4.68006">
        <ele>438.97912597656</ele>
        <time>2012-10-13T10:10:25Z</time>
      </trkpt>
      <trkpt lat="45.41272" lon="4.68038">
        <ele>440.90185546875</ele>
        <time>2012-10-13T10:10:31Z</time>
      </trkpt>
      <trkpt lat="45.41268" lon="4.68071">
        <ele>441.86315917969</ele>
        <time>2012-10-13T10:10:37Z</time>
      </trkpt>
      <trkpt lat="45.41265" lon="4.68098">
        <ele>445.22766113281</ele>
        <time>2012-10-13T10:10:42Z</time>
      </trkpt>
      <trkpt lat="45.41257" lon="4.68126">
        <ele>445.22766113281</ele>
        <time>2012-10-13T10:10:47Z</time>
      </trkpt>
      <trkpt lat="45.41243" lon="4.68165">
        <ele>443.78576660156</ele>
        <time>2012-10-13T10:10:54Z</time>
      </trkpt>
      <trkpt lat="45.41233" lon="4.68185">
        <ele>442.82446289062</ele>
        <time>2012-10-13T10:10:59Z</time>
      </trkpt>
      <trkpt lat="45.41234" lon="4.68207">
        <ele>443.30505371094</ele>
        <time>2012-10-13T10:11:04Z</time>
      </trkpt>
      <trkpt lat="45.41236" lon="4.68227">
        <ele>445.70837402344</ele>
        <time>2012-10-13T10:11:09Z</time>
      </trkpt>
      <trkpt lat="45.41236" lon="4.68235">
        <ele>446.18908691406</ele>
        <time>2012-10-13T10:11:11Z</time>
      </trkpt>
      <trkpt lat="45.41252" lon="4.6825">
        <ele>444.26647949219</ele>
        <time>2012-10-13T10:11:16Z</time>
      </trkpt>
      <trkpt lat="45.41272" lon="4.68266">
        <ele>442.34387207031</ele>
        <time>2012-10-13T10:11:20Z</time>
      </trkpt>
      <trkpt lat="45.41284" lon="4.68297">
        <ele>438.97912597656</ele>
        <time>2012-10-13T10:11:25Z</time>
      </trkpt>
      <trkpt lat="45.41282" lon="4.68314">
        <ele>438.01782226562</ele>
        <time>2012-10-13T10:11:28Z</time>
      </trkpt>
      <trkpt lat="45.4128" lon="4.68333">
        <ele>437.05651855469</ele>
        <time>2012-10-13T10:11:33Z</time>
      </trkpt>
      <trkpt lat="45.41278" lon="4.68359">
        <ele>435.61450195312</ele>
        <time>2012-10-13T10:11:38Z</time>
      </trkpt>
      <trkpt lat="45.4128" lon="4.68385">
        <ele>435.13391113281</ele>
        <time>2012-10-13T10:11:42Z</time>
      </trkpt>
      <trkpt lat="45.41281" lon="4.68391">
        <ele>435.13391113281</ele>
        <time>2012-10-13T10:11:43Z</time>
      </trkpt>
      <trkpt lat="45.41281" lon="4.68419">
        <ele>433.21130371094</ele>
        <time>2012-10-13T10:11:47Z</time>
      </trkpt>
      <trkpt lat="45.4128" lon="4.68434">
        <ele>433.21130371094</ele>
        <time>2012-10-13T10:11:49Z</time>
      </trkpt>
      <trkpt lat="45.41282" lon="4.68457">
        <ele>431.76916503906</ele>
        <time>2012-10-13T10:11:52Z</time>
      </trkpt>
      <trkpt lat="45.41286" lon="4.68482">
        <ele>433.21130371094</ele>
        <time>2012-10-13T10:11:55Z</time>
      </trkpt>
      <trkpt lat="45.41287" lon="4.68499">
        <ele>432.73071289062</ele>
        <time>2012-10-13T10:11:57Z</time>
      </trkpt>
      <trkpt lat="45.4129" lon="4.68541">
        <ele>431.28857421875</ele>
        <time>2012-10-13T10:12:02Z</time>
      </trkpt>
      <trkpt lat="45.41279" lon="4.68563">
        <ele>424.55944824219</ele>
        <time>2012-10-13T10:12:06Z</time>
      </trkpt>
      <trkpt lat="45.41271" lon="4.68575">
        <ele>420.2333984375</ele>
        <time>2012-10-13T10:12:09Z</time>
      </trkpt>
      <trkpt lat="45.41265" lon="4.68585">
        <ele>421.19482421875</ele>
        <time>2012-10-13T10:12:12Z</time>
      </trkpt>
      <trkpt lat="45.41256" lon="4.68602">
        <ele>423.11743164062</ele>
        <time>2012-10-13T10:12:16Z</time>
      </trkpt>
      <trkpt lat="45.41255" lon="4.6861">
        <ele>423.59802246094</ele>
        <time>2012-10-13T10:12:18Z</time>
      </trkpt>
      <trkpt lat="45.41256" lon="4.68632">
        <ele>427.92395019531</ele>
        <time>2012-10-13T10:12:23Z</time>
      </trkpt>
      <trkpt lat="45.41263" lon="4.68654">
        <ele>430.32727050781</ele>
        <time>2012-10-13T10:12:28Z</time>
      </trkpt>
      <trkpt lat="45.41275" lon="4.68675">
        <ele>434.17260742188</ele>
        <time>2012-10-13T10:12:33Z</time>
      </trkpt>
      <trkpt lat="45.4128" lon="4.68684">
        <ele>434.6533203125</ele>
        <time>2012-10-13T10:12:36Z</time>
      </trkpt>
      <trkpt lat="45.4128" lon="4.68696">
        <ele>436.57592773438</ele>
        <time>2012-10-13T10:12:41Z</time>
      </trkpt>
      <trkpt lat="45.41278" lon="4.68702">
        <ele>436.57592773438</ele>
        <time>2012-10-13T10:12:43Z</time>
      </trkpt>
      <trkpt lat="45.41278" lon="4.68709">
        <ele>438.97912597656</ele>
        <time>2012-10-13T10:12:45Z</time>
      </trkpt>
      <trkpt lat="45.41272" lon="4.68719">
        <ele>441.38244628906</ele>
        <time>2012-10-13T10:12:50Z</time>
      </trkpt>
      <trkpt lat="45.41267" lon="4.68721">
        <ele>441.86315917969</ele>
        <time>2012-10-13T10:12:52Z</time>
      </trkpt>
      <trkpt lat="45.41259" lon="4.68717">
        <ele>438.01782226562</ele>
        <time>2012-10-13T10:12:56Z</time>
      </trkpt>
      <trkpt lat="45.41256" lon="4.68704">
        <ele>436.57592773438</ele>
        <time>2012-10-13T10:13:00Z</time>
      </trkpt>
      <trkpt lat="45.41241" lon="4.68689">
        <ele>432.25</ele>
        <time>2012-10-13T10:13:05Z</time>
      </trkpt>
      <trkpt lat="45.41232" lon="4.68677">
        <ele>434.17260742188</ele>
        <time>2012-10-13T10:13:09Z</time>
      </trkpt>
      <trkpt lat="45.41229" lon="4.68671">
        <ele>433.69189453125</ele>
        <time>2012-10-13T10:13:11Z</time>
      </trkpt>
      <trkpt lat="45.41225" lon="4.68653">
        <ele>435.61450195312</ele>
        <time>2012-10-13T10:13:16Z</time>
      </trkpt>
      <trkpt lat="45.41219" lon="4.68632">
        <ele>437.05651855469</ele>
        <time>2012-10-13T10:13:21Z</time>
      </trkpt>
      <trkpt lat="45.41215" lon="4.68618">
        <ele>438.97912597656</ele>
        <time>2012-10-13T10:13:25Z</time>
      </trkpt>
      <trkpt lat="45.41209" lon="4.68593">
        <ele>438.97912597656</ele>
        <time>2012-10-13T10:13:30Z</time>
      </trkpt>
      <trkpt lat="45.41208" lon="4.68568">
        <ele>437.537109375</ele>
        <time>2012-10-13T10:13:34Z</time>
      </trkpt>
      <trkpt lat="45.41206" lon="4.68561">
        <ele>438.49853515625</ele>
        <time>2012-10-13T10:13:35Z</time>
      </trkpt>
      <trkpt lat="45.41201" lon="4.68551">
        <ele>438.97912597656</ele>
        <time>2012-10-13T10:13:37Z</time>
      </trkpt>
      <trkpt lat="45.41185" lon="4.68539">
        <ele>440.90185546875</ele>
        <time>2012-10-13T10:13:41Z</time>
      </trkpt>
      <trkpt lat="45.41164" lon="4.68527">
        <ele>441.86315917969</ele>
        <time>2012-10-13T10:13:46Z</time>
      </trkpt>
      <trkpt lat="45.41132" lon="4.68513">
        <ele>441.38244628906</ele>
        <time>2012-10-13T10:13:52Z</time>
      </trkpt>
      <trkpt lat="45.41125" lon="4.68511">
        <ele>440.42126464844</ele>
        <time>2012-10-13T10:13:53Z</time>
      </trkpt>
      <trkpt lat="45.41103" lon="4.68507">
        <ele>437.537109375</ele>
        <time>2012-10-13T10:13:56Z</time>
      </trkpt>
      <trkpt lat="45.41085" lon="4.68508">
        <ele>437.05651855469</ele>
        <time>2012-10-13T10:14:00Z</time>
      </trkpt>
      <trkpt lat="45.41079" lon="4.68506">
        <ele>435.61450195312</ele>
        <time>2012-10-13T10:14:03Z</time>
      </trkpt>
      <trkpt lat="45.41082" lon="4.68506">
        <ele>427.443359375</ele>
        <time>2012-10-13T10:14:20Z</time>
      </trkpt>
      <trkpt lat="45.41076" lon="4.68506">
        <ele>428.40466308594</ele>
        <time>2012-10-13T10:14:25Z</time>
      </trkpt>
      <trkpt lat="45.41066" lon="4.68504">
        <ele>428.40466308594</ele>
        <time>2012-10-13T10:14:30Z</time>
      </trkpt>
      <trkpt lat="45.41066" lon="4.68503">
        <ele>426.00134277344</ele>
        <time>2012-10-13T10:14:34Z</time>
      </trkpt>
      <trkpt lat="45.41051" lon="4.68502">
        <ele>425.04016113281</ele>
        <time>2012-10-13T10:14:40Z</time>
      </trkpt>
      <trkpt lat="45.4103" lon="4.68498">
        <ele>424.55944824219</ele>
        <time>2012-10-13T10:14:45Z</time>
      </trkpt>
      <trkpt lat="45.4099" lon="4.68489">
        <ele>424.07873535156</ele>
        <time>2012-10-13T10:14:52Z</time>
      </trkpt>
      <trkpt lat="45.40945" lon="4.68475">
        <ele>423.11743164062</ele>
        <time>2012-10-13T10:14:59Z</time>
      </trkpt>
      <trkpt lat="45.40902" lon="4.68456">
        <ele>422.63671875</ele>
        <time>2012-10-13T10:15:06Z</time>
      </trkpt>
      <trkpt lat="45.40892" lon="4.68453">
        <ele>422.63671875</ele>
        <time>2012-10-13T10:15:08Z</time>
      </trkpt>
      <trkpt lat="45.40882" lon="4.68458">
        <ele>421.67541503906</ele>
        <time>2012-10-13T10:15:13Z</time>
      </trkpt>
      <trkpt lat="45.40878" lon="4.68469">
        <ele>421.67541503906</ele>
        <time>2012-10-13T10:15:15Z</time>
      </trkpt>
      <trkpt lat="45.40862" lon="4.68516">
        <ele>420.71411132812</ele>
        <time>2012-10-13T10:15:21Z</time>
      </trkpt>
      <trkpt lat="45.40846" lon="4.68565">
        <ele>419.27221679688</ele>
        <time>2012-10-13T10:15:26Z</time>
      </trkpt>
      <trkpt lat="45.4083" lon="4.68623">
        <ele>418.79150390625</ele>
        <time>2012-10-13T10:15:32Z</time>
      </trkpt>
      <trkpt lat="45.40828" lon="4.68632">
        <ele>418.79150390625</ele>
        <time>2012-10-13T10:15:33Z</time>
      </trkpt>
      <trkpt lat="45.40831" lon="4.68649">
        <ele>418.79150390625</ele>
        <time>2012-10-13T10:15:37Z</time>
      </trkpt>
      <trkpt lat="45.40853" lon="4.68675">
        <ele>416.38818359375</ele>
        <time>2012-10-13T10:15:43Z</time>
      </trkpt>
      <trkpt lat="45.40886" lon="4.68714">
        <ele>414.46545410156</ele>
        <time>2012-10-13T10:15:51Z</time>
      </trkpt>
      <trkpt lat="45.4092" lon="4.68753">
        <ele>413.02355957031</ele>
        <time>2012-10-13T10:15:59Z</time>
      </trkpt>
      <trkpt lat="45.40943" lon="4.68791">
        <ele>412.54284667969</ele>
        <time>2012-10-13T10:16:06Z</time>
      </trkpt>
      <trkpt lat="45.40958" lon="4.6883">
        <ele>413.02355957031</ele>
        <time>2012-10-13T10:16:13Z</time>
      </trkpt>
      <trkpt lat="45.40969" lon="4.6886">
        <ele>412.06225585938</ele>
        <time>2012-10-13T10:16:19Z</time>
      </trkpt>
      <trkpt lat="45.40983" lon="4.68879">
        <ele>411.10095214844</ele>
        <time>2012-10-13T10:16:23Z</time>
      </trkpt>
      <trkpt lat="45.41" lon="4.68897">
        <ele>409.17834472656</ele>
        <time>2012-10-13T10:16:27Z</time>
      </trkpt>
      <trkpt lat="45.41011" lon="4.68919">
        <ele>407.736328125</ele>
        <time>2012-10-13T10:16:31Z</time>
      </trkpt>
      <trkpt lat="45.41018" lon="4.68952">
        <ele>407.736328125</ele>
        <time>2012-10-13T10:16:36Z</time>
      </trkpt>
      <trkpt lat="45.41021" lon="4.68977">
        <ele>409.17834472656</ele>
        <time>2012-10-13T10:16:40Z</time>
      </trkpt>
      <trkpt lat="45.41021" lon="4.69026">
        <ele>408.69763183594</ele>
        <time>2012-10-13T10:16:47Z</time>
      </trkpt>
      <trkpt lat="45.41017" lon="4.6909">
        <ele>406.29431152344</ele>
        <time>2012-10-13T10:16:54Z</time>
      </trkpt>
      <trkpt lat="45.41004" lon="4.69131">
        <ele>406.77490234375</ele>
        <time>2012-10-13T10:16:59Z</time>
      </trkpt>
      <trkpt lat="45.41004" lon="4.69152">
        <ele>407.736328125</ele>
        <time>2012-10-13T10:17:03Z</time>
      </trkpt>
      <trkpt lat="45.41014" lon="4.69168">
        <ele>407.736328125</ele>
        <time>2012-10-13T10:17:06Z</time>
      </trkpt>
      <trkpt lat="45.41029" lon="4.692">
        <ele>403.89111328125</ele>
        <time>2012-10-13T10:17:11Z</time>
      </trkpt>
      <trkpt lat="45.41048" lon="4.69245">
        <ele>399.56506347656</ele>
        <time>2012-10-13T10:17:16Z</time>
      </trkpt>
      <trkpt lat="45.41082" lon="4.69306">
        <ele>393.31652832031</ele>
        <time>2012-10-13T10:17:22Z</time>
      </trkpt>
      <trkpt lat="45.41104" lon="4.69351">
        <ele>388.029296875</ele>
        <time>2012-10-13T10:17:26Z</time>
      </trkpt>
      <trkpt lat="45.41119" lon="4.69411">
        <ele>384.18408203125</ele>
        <time>2012-10-13T10:17:31Z</time>
      </trkpt>
      <trkpt lat="45.41133" lon="4.69466">
        <ele>383.70324707031</ele>
        <time>2012-10-13T10:17:36Z</time>
      </trkpt>
      <trkpt lat="45.41155" lon="4.69509">
        <ele>383.70324707031</ele>
        <time>2012-10-13T10:17:41Z</time>
      </trkpt>
      <trkpt lat="45.41164" lon="4.69527">
        <ele>381.78063964844</ele>
        <time>2012-10-13T10:17:45Z</time>
      </trkpt>
      <trkpt lat="45.41172" lon="4.69541">
        <ele>379.85803222656</ele>
        <time>2012-10-13T10:17:48Z</time>
      </trkpt>
      <trkpt lat="45.41175" lon="4.69551">
        <ele>378.89685058594</ele>
        <time>2012-10-13T10:17:50Z</time>
      </trkpt>
      <trkpt lat="45.41179" lon="4.6958">
        <ele>377.93542480469</ele>
        <time>2012-10-13T10:17:54Z</time>
      </trkpt>
      <trkpt lat="45.4118" lon="4.69588">
        <ele>378.89685058594</ele>
        <time>2012-10-13T10:17:55Z</time>
      </trkpt>
      <trkpt lat="45.41186" lon="4.69604">
        <ele>380.33874511719</ele>
        <time>2012-10-13T10:17:57Z</time>
      </trkpt>
      <trkpt lat="45.41218" lon="4.69672">
        <ele>380.81945800781</ele>
        <time>2012-10-13T10:18:06Z</time>
      </trkpt>
      <trkpt lat="45.41242" lon="4.69714">
        <ele>378.41613769531</ele>
        <time>2012-10-13T10:18:12Z</time>
      </trkpt>
      <trkpt lat="45.41267" lon="4.69748">
        <ele>376.97424316406</ele>
        <time>2012-10-13T10:18:17Z</time>
      </trkpt>
      <trkpt lat="45.41271" lon="4.69753">
        <ele>376.97424316406</ele>
        <time>2012-10-13T10:18:18Z</time>
      </trkpt>
      <trkpt lat="45.41276" lon="4.69773">
        <ele>376.97424316406</ele>
        <time>2012-10-13T10:18:22Z</time>
      </trkpt>
      <trkpt lat="45.41273" lon="4.69778">
        <ele>376.97424316406</ele>
        <time>2012-10-13T10:18:23Z</time>
      </trkpt>
      <trkpt lat="45.41245" lon="4.69834">
        <ele>380.81945800781</ele>
        <time>2012-10-13T10:18:33Z</time>
      </trkpt>
      <trkpt lat="45.41236" lon="4.69857">
        <ele>381.78063964844</ele>
        <time>2012-10-13T10:18:37Z</time>
      </trkpt>
      <trkpt lat="45.41231" lon="4.69882">
        <ele>382.26135253906</ele>
        <time>2012-10-13T10:18:41Z</time>
      </trkpt>
      <trkpt lat="45.41218" lon="4.69906">
        <ele>381.30004882812</ele>
        <time>2012-10-13T10:18:46Z</time>
      </trkpt>
      <trkpt lat="45.4118" lon="4.69925">
        <ele>375.53210449219</ele>
        <time>2012-10-13T10:18:52Z</time>
      </trkpt>
      <trkpt lat="45.41137" lon="4.69947">
        <ele>369.76428222656</ele>
        <time>2012-10-13T10:18:58Z</time>
      </trkpt>
      <trkpt lat="45.411" lon="4.69967">
        <ele>365.9189453125</ele>
        <time>2012-10-13T10:19:03Z</time>
      </trkpt>
      <trkpt lat="45.41066" lon="4.69988">
        <ele>364.95764160156</ele>
        <time>2012-10-13T10:19:07Z</time>
      </trkpt>
      <trkpt lat="45.41036" lon="4.69988">
        <ele>363.03503417969</ele>
        <time>2012-10-13T10:19:11Z</time>
      </trkpt>
      <trkpt lat="45.41013" lon="4.69967">
        <ele>363.03503417969</ele>
        <time>2012-10-13T10:19:15Z</time>
      </trkpt>
      <trkpt lat="45.40991" lon="4.69969">
        <ele>363.03503417969</ele>
        <time>2012-10-13T10:19:18Z</time>
      </trkpt>
      <trkpt lat="45.40971" lon="4.69978">
        <ele>363.51574707031</ele>
        <time>2012-10-13T10:19:21Z</time>
      </trkpt>
      <trkpt lat="45.40953" lon="4.70002">
        <ele>363.03503417969</ele>
        <time>2012-10-13T10:19:25Z</time>
      </trkpt>
      <trkpt lat="45.40956" lon="4.7003">
        <ele>363.03503417969</ele>
        <time>2012-10-13T10:19:28Z</time>
      </trkpt>
      <trkpt lat="45.4096" lon="4.70076">
        <ele>363.99633789062</ele>
        <time>2012-10-13T10:19:33Z</time>
      </trkpt>
      <trkpt lat="45.40961" lon="4.70085">
        <ele>363.99633789062</ele>
        <time>2012-10-13T10:19:34Z</time>
      </trkpt>
      <trkpt lat="45.40962" lon="4.70102">
        <ele>363.51574707031</ele>
        <time>2012-10-13T10:19:36Z</time>
      </trkpt>
      <trkpt lat="45.40968" lon="4.70142">
        <ele>364.47692871094</ele>
        <time>2012-10-13T10:19:41Z</time>
      </trkpt>
      <trkpt lat="45.40973" lon="4.70157">
        <ele>365.43835449219</ele>
        <time>2012-10-13T10:19:43Z</time>
      </trkpt>
      <trkpt lat="45.40989" lon="4.70196">
        <ele>363.03503417969</ele>
        <time>2012-10-13T10:19:48Z</time>
      </trkpt>
      <trkpt lat="45.40994" lon="4.70213">
        <ele>361.59313964844</ele>
        <time>2012-10-13T10:19:50Z</time>
      </trkpt>
      <trkpt lat="45.41" lon="4.70242">
        <ele>360.63171386719</ele>
        <time>2012-10-13T10:19:53Z</time>
      </trkpt>
      <trkpt lat="45.40995" lon="4.70281">
        <ele>361.59313964844</ele>
        <time>2012-10-13T10:19:57Z</time>
      </trkpt>
      <trkpt lat="45.40992" lon="4.70289">
        <ele>362.07373046875</ele>
        <time>2012-10-13T10:19:58Z</time>
      </trkpt>
      <trkpt lat="45.40981" lon="4.70344">
        <ele>360.63171386719</ele>
        <time>2012-10-13T10:20:03Z</time>
      </trkpt>
      <trkpt lat="45.40963" lon="4.70428">
        <ele>362.07373046875</ele>
        <time>2012-10-13T10:20:10Z</time>
      </trkpt>
      <trkpt lat="45.40953" lon="4.70507">
        <ele>363.51574707031</ele>
        <time>2012-10-13T10:20:17Z</time>
      </trkpt>
      <trkpt lat="45.40948" lon="4.70585">
        <ele>362.07373046875</ele>
        <time>2012-10-13T10:20:24Z</time>
      </trkpt>
      <trkpt lat="45.40942" lon="4.70638">
        <ele>361.59313964844</ele>
        <time>2012-10-13T10:20:29Z</time>
      </trkpt>
      <trkpt lat="45.4093" lon="4.70715">
        <ele>361.11242675781</ele>
        <time>2012-10-13T10:20:36Z</time>
      </trkpt>
      <trkpt lat="45.40916" lon="4.70777">
        <ele>361.59313964844</ele>
        <time>2012-10-13T10:20:42Z</time>
      </trkpt>
      <trkpt lat="45.40903" lon="4.70846">
        <ele>361.11242675781</ele>
        <time>2012-10-13T10:20:49Z</time>
      </trkpt>
      <trkpt lat="45.40892" lon="4.70892">
        <ele>359.67041015625</ele>
        <time>2012-10-13T10:20:54Z</time>
      </trkpt>
      <trkpt lat="45.40886" lon="4.70938">
        <ele>358.708984375</ele>
        <time>2012-10-13T10:20:59Z</time>
      </trkpt>
      <trkpt lat="45.40884" lon="4.70986">
        <ele>358.22839355469</ele>
        <time>2012-10-13T10:21:04Z</time>
      </trkpt>
      <trkpt lat="45.40873" lon="4.71035">
        <ele>357.74780273438</ele>
        <time>2012-10-13T10:21:09Z</time>
      </trkpt>
      <trkpt lat="45.40868" lon="4.71054">
        <ele>357.74780273438</ele>
        <time>2012-10-13T10:21:11Z</time>
      </trkpt>
      <trkpt lat="45.40848" lon="4.71083">
        <ele>357.74780273438</ele>
        <time>2012-10-13T10:21:15Z</time>
      </trkpt>
      <trkpt lat="45.40826" lon="4.71125">
        <ele>355.34448242188</ele>
        <time>2012-10-13T10:21:20Z</time>
      </trkpt>
      <trkpt lat="45.40822" lon="4.71135">
        <ele>354.38317871094</ele>
        <time>2012-10-13T10:21:21Z</time>
      </trkpt>
      <trkpt lat="45.40778" lon="4.71206">
        <ele>352.46057128906</ele>
        <time>2012-10-13T10:21:29Z</time>
      </trkpt>
      <trkpt lat="45.40762" lon="4.71229">
        <ele>352.46057128906</ele>
        <time>2012-10-13T10:21:32Z</time>
      </trkpt>
      <trkpt lat="45.40745" lon="4.71258">
        <ele>352.46057128906</ele>
        <time>2012-10-13T10:21:36Z</time>
      </trkpt>
      <trkpt lat="45.40736" lon="4.71279">
        <ele>352.94116210938</ele>
        <time>2012-10-13T10:21:40Z</time>
      </trkpt>
      <trkpt lat="45.4073" lon="4.71289">
        <ele>353.421875</ele>
        <time>2012-10-13T10:21:43Z</time>
      </trkpt>
      <trkpt lat="45.40727" lon="4.71291">
        <ele>353.90258789062</ele>
        <time>2012-10-13T10:21:47Z</time>
      </trkpt>
      <trkpt lat="45.40726" lon="4.71293">
        <ele>350.05725097656</ele>
        <time>2012-10-13T10:21:59Z</time>
      </trkpt>
      <trkpt lat="45.40725" lon="4.71306">
        <ele>351.49914550781</ele>
        <time>2012-10-13T10:22:05Z</time>
      </trkpt>
      <trkpt lat="45.40724" lon="4.71326">
        <ele>351.49914550781</ele>
        <time>2012-10-13T10:22:11Z</time>
      </trkpt>
      <trkpt lat="45.40725" lon="4.71356">
        <ele>351.97985839844</ele>
        <time>2012-10-13T10:22:17Z</time>
      </trkpt>
      <trkpt lat="45.40726" lon="4.71403">
        <ele>351.01843261719</ele>
        <time>2012-10-13T10:22:24Z</time>
      </trkpt>
      <trkpt lat="45.40732" lon="4.71454">
        <ele>350.05725097656</ele>
        <time>2012-10-13T10:22:31Z</time>
      </trkpt>
      <trkpt lat="45.40743" lon="4.71512">
        <ele>346.69262695312</ele>
        <time>2012-10-13T10:22:39Z</time>
      </trkpt>
      <trkpt lat="45.4075" lon="4.7158">
        <ele>344.28942871094</ele>
        <time>2012-10-13T10:22:48Z</time>
      </trkpt>
      <trkpt lat="45.40754" lon="4.71644">
        <ele>341.4052734375</ele>
        <time>2012-10-13T10:22:56Z</time>
      </trkpt>
      <trkpt lat="45.40753" lon="4.71689">
        <ele>339.96337890625</ele>
        <time>2012-10-13T10:23:01Z</time>
      </trkpt>
      <trkpt lat="45.40738" lon="4.71763">
        <ele>339.00207519531</ele>
        <time>2012-10-13T10:23:09Z</time>
      </trkpt>
      <trkpt lat="45.40724" lon="4.71817">
        <ele>339.48266601562</ele>
        <time>2012-10-13T10:23:16Z</time>
      </trkpt>
      <trkpt lat="45.40712" lon="4.71866">
        <ele>339.48266601562</ele>
        <time>2012-10-13T10:23:23Z</time>
      </trkpt>
      <trkpt lat="45.40707" lon="4.71894">
        <ele>339.00207519531</ele>
        <time>2012-10-13T10:23:27Z</time>
      </trkpt>
      <trkpt lat="45.4071" lon="4.71941">
        <ele>337.07946777344</ele>
        <time>2012-10-13T10:23:33Z</time>
      </trkpt>
      <trkpt lat="45.40714" lon="4.71991">
        <ele>333.71472167969</ele>
        <time>2012-10-13T10:23:38Z</time>
      </trkpt>
      <trkpt lat="45.4072" lon="4.72059">
        <ele>332.27282714844</ele>
        <time>2012-10-13T10:23:45Z</time>
      </trkpt>
      <trkpt lat="45.40728" lon="4.721">
        <ele>331.3115234375</ele>
        <time>2012-10-13T10:23:51Z</time>
      </trkpt>
      <trkpt lat="45.40739" lon="4.72119">
        <ele>330.35021972656</ele>
        <time>2012-10-13T10:23:55Z</time>
      </trkpt>
      <trkpt lat="45.40764" lon="4.72136">
        <ele>327.46618652344</ele>
        <time>2012-10-13T10:24:00Z</time>
      </trkpt>
      <trkpt lat="45.40782" lon="4.7215">
        <ele>325.06298828125</ele>
        <time>2012-10-13T10:24:03Z</time>
      </trkpt>
      <trkpt lat="45.40813" lon="4.72171">
        <ele>321.2177734375</ele>
        <time>2012-10-13T10:24:08Z</time>
      </trkpt>
      <trkpt lat="45.40838" lon="4.72196">
        <ele>317.85302734375</ele>
        <time>2012-10-13T10:24:12Z</time>
      </trkpt>
      <trkpt lat="45.40869" lon="4.72206">
        <ele>314.48840332031</ele>
        <time>2012-10-13T10:24:17Z</time>
      </trkpt>
      <trkpt lat="45.40882" lon="4.7221">
        <ele>312.08520507812</ele>
        <time>2012-10-13T10:24:19Z</time>
      </trkpt>
      <trkpt lat="45.40902" lon="4.72219">
        <ele>308.23986816406</ele>
        <time>2012-10-13T10:24:22Z</time>
      </trkpt>
      <trkpt lat="45.40914" lon="4.72228">
        <ele>305.35595703125</ele>
        <time>2012-10-13T10:24:24Z</time>
      </trkpt>
      <trkpt lat="45.40934" lon="4.7223">
        <ele>301.99133300781</ele>
        <time>2012-10-13T10:24:27Z</time>
      </trkpt>
      <trkpt lat="45.40952" lon="4.72236">
        <ele>298.62670898438</ele>
        <time>2012-10-13T10:24:30Z</time>
      </trkpt>
      <trkpt lat="45.40962" lon="4.72252">
        <ele>296.22351074219</ele>
        <time>2012-10-13T10:24:32Z</time>
      </trkpt>
      <trkpt lat="45.40975" lon="4.72281">
        <ele>292.37817382812</ele>
        <time>2012-10-13T10:24:35Z</time>
      </trkpt>
      <trkpt lat="45.41002" lon="4.72332">
        <ele>284.68762207031</ele>
        <time>2012-10-13T10:24:40Z</time>
      </trkpt>
      <trkpt lat="45.4101" lon="4.72354">
        <ele>283.72619628906</ele>
        <time>2012-10-13T10:24:42Z</time>
      </trkpt>
      <trkpt lat="45.41022" lon="4.7242">
        <ele>281.32299804688</ele>
        <time>2012-10-13T10:24:48Z</time>
      </trkpt>
      <trkpt lat="45.41035" lon="4.72446">
        <ele>282.28430175781</ele>
        <time>2012-10-13T10:24:52Z</time>
      </trkpt>
      <trkpt lat="45.41055" lon="4.72458">
        <ele>282.28430175781</ele>
        <time>2012-10-13T10:24:55Z</time>
      </trkpt>
      <trkpt lat="45.41062" lon="4.72462">
        <ele>283.24560546875</ele>
        <time>2012-10-13T10:24:56Z</time>
      </trkpt>
      <trkpt lat="45.41076" lon="4.72469">
        <ele>281.32299804688</ele>
        <time>2012-10-13T10:24:58Z</time>
      </trkpt>
      <trkpt lat="45.41097" lon="4.72482">
        <ele>276.9970703125</ele>
        <time>2012-10-13T10:25:02Z</time>
      </trkpt>
      <trkpt lat="45.41108" lon="4.72485">
        <ele>274.59375</ele>
        <time>2012-10-13T10:25:04Z</time>
      </trkpt>
      <trkpt lat="45.41119" lon="4.72488">
        <ele>272.1904296875</ele>
        <time>2012-10-13T10:25:06Z</time>
      </trkpt>
      <trkpt lat="45.41138" lon="4.72504">
        <ele>266.42248535156</ele>
        <time>2012-10-13T10:25:10Z</time>
      </trkpt>
      <trkpt lat="45.41159" lon="4.72539">
        <ele>263.05786132812</ele>
        <time>2012-10-13T10:25:15Z</time>
      </trkpt>
      <trkpt lat="45.41164" lon="4.72547">
        <ele>262.09655761719</ele>
        <time>2012-10-13T10:25:16Z</time>
      </trkpt>
      <trkpt lat="45.4118" lon="4.7259">
        <ele>260.17395019531</ele>
        <time>2012-10-13T10:25:21Z</time>
      </trkpt>
      <trkpt lat="45.41185" lon="4.72619">
        <ele>258.25134277344</ele>
        <time>2012-10-13T10:25:24Z</time>
      </trkpt>
      <trkpt lat="45.4118" lon="4.72648">
        <ele>252.4833984375</ele>
        <time>2012-10-13T10:25:29Z</time>
      </trkpt>
      <trkpt lat="45.41176" lon="4.72658">
        <ele>249.59948730469</ele>
        <time>2012-10-13T10:25:31Z</time>
      </trkpt>
      <trkpt lat="45.41173" lon="4.72668">
        <ele>251.52209472656</ele>
        <time>2012-10-13T10:25:37Z</time>
      </trkpt>
      <trkpt lat="45.41171" lon="4.72672">
        <ele>250.08020019531</ele>
        <time>2012-10-13T10:25:48Z</time>
      </trkpt>
      <trkpt lat="45.41164" lon="4.72679">
        <ele>249.11877441406</ele>
        <time>2012-10-13T10:25:53Z</time>
      </trkpt>
      <trkpt lat="45.41152" lon="4.72686">
        <ele>249.11877441406</ele>
        <time>2012-10-13T10:25:59Z</time>
      </trkpt>
      <trkpt lat="45.41135" lon="4.72689">
        <ele>244.31225585938</ele>
        <time>2012-10-13T10:26:04Z</time>
      </trkpt>
      <trkpt lat="45.41129" lon="4.72689">
        <ele>243.35083007812</ele>
        <time>2012-10-13T10:26:06Z</time>
      </trkpt>
      <trkpt lat="45.41113" lon="4.72703">
        <ele>242.87023925781</ele>
        <time>2012-10-13T10:26:11Z</time>
      </trkpt>
      <trkpt lat="45.41111" lon="4.72708">
        <ele>243.83154296875</ele>
        <time>2012-10-13T10:26:12Z</time>
      </trkpt>
      <trkpt lat="45.411" lon="4.72736">
        <ele>251.52209472656</ele>
        <time>2012-10-13T10:26:18Z</time>
      </trkpt>
      <trkpt lat="45.41087" lon="4.72767">
        <ele>253.92541503906</ele>
        <time>2012-10-13T10:26:24Z</time>
      </trkpt>
      <trkpt lat="45.41071" lon="4.72774">
        <ele>252.4833984375</ele>
        <time>2012-10-13T10:26:28Z</time>
      </trkpt>
      <trkpt lat="45.41066" lon="4.72773">
        <ele>252.00280761719</ele>
        <time>2012-10-13T10:26:29Z</time>
      </trkpt>
      <trkpt lat="45.41042" lon="4.72765">
        <ele>251.04138183594</ele>
        <time>2012-10-13T10:26:35Z</time>
      </trkpt>
      <trkpt lat="45.41023" lon="4.72756">
        <ele>248.15759277344</ele>
        <time>2012-10-13T10:26:40Z</time>
      </trkpt>
      <trkpt lat="45.41007" lon="4.72749">
        <ele>244.31225585938</ele>
        <time>2012-10-13T10:26:44Z</time>
      </trkpt>
      <trkpt lat="45.41" lon="4.72744">
        <ele>240.94763183594</ele>
        <time>2012-10-13T10:26:46Z</time>
      </trkpt>
      <trkpt lat="45.40986" lon="4.72744">
        <ele>242.3896484375</ele>
        <time>2012-10-13T10:26:49Z</time>
      </trkpt>
      <trkpt lat="45.40973" lon="4.72758">
        <ele>243.83154296875</ele>
        <time>2012-10-13T10:26:53Z</time>
      </trkpt>
      <trkpt lat="45.4097" lon="4.72779">
        <ele>250.56079101562</ele>
        <time>2012-10-13T10:26:57Z</time>
      </trkpt>
      <trkpt lat="45.40976" lon="4.72784">
        <ele>249.11877441406</ele>
        <time>2012-10-13T10:27:01Z</time>
      </trkpt>
      <trkpt lat="45.40989" lon="4.72797">
        <ele>244.79284667969</ele>
        <time>2012-10-13T10:27:07Z</time>
      </trkpt>
      <trkpt lat="45.41004" lon="4.72807">
        <ele>239.98620605469</ele>
        <time>2012-10-13T10:27:11Z</time>
      </trkpt>
      <trkpt lat="45.41018" lon="4.72813">
        <ele>234.69909667969</ele>
        <time>2012-10-13T10:27:15Z</time>
      </trkpt>
      <trkpt lat="45.41031" lon="4.72824">
        <ele>230.85375976562</ele>
        <time>2012-10-13T10:27:19Z</time>
      </trkpt>
      <trkpt lat="45.41047" lon="4.72835">
        <ele>224.12451171875</ele>
        <time>2012-10-13T10:27:24Z</time>
      </trkpt>
      <trkpt lat="45.41061" lon="4.72847">
        <ele>220.27917480469</ele>
        <time>2012-10-13T10:27:28Z</time>
      </trkpt>
      <trkpt lat="45.41082" lon="4.72872">
        <ele>218.83728027344</ele>
        <time>2012-10-13T10:27:33Z</time>
      </trkpt>
      <trkpt lat="45.41085" lon="4.72876">
        <ele>217.39538574219</ele>
        <time>2012-10-13T10:27:34Z</time>
      </trkpt>
      <trkpt lat="45.41089" lon="4.72883">
        <ele>215.47265625</ele>
        <time>2012-10-13T10:27:36Z</time>
      </trkpt>
      <trkpt lat="45.41093" lon="4.72892">
        <ele>211.62744140625</ele>
        <time>2012-10-13T10:27:41Z</time>
      </trkpt>
      <trkpt lat="45.41093" lon="4.72893">
        <ele>203.93688964844</ele>
        <time>2012-10-13T10:27:47Z</time>
      </trkpt>
      <trkpt lat="45.41091" lon="4.72901">
        <ele>194.32373046875</ele>
        <time>2012-10-13T10:28:08Z</time>
      </trkpt>
      <trkpt lat="45.4109" lon="4.72903">
        <ele>197.20751953125</ele>
        <time>2012-10-13T10:28:20Z</time>
      </trkpt>
      <trkpt lat="45.4109" lon="4.72903">
        <ele>196.72692871094</ele>
        <time>2012-10-13T10:28:22Z</time>
      </trkpt>
      <trkpt lat="45.41092" lon="4.7289">
        <ele>197.20751953125</ele>
        <time>2012-10-13T10:28:27Z</time>
      </trkpt>
      <trkpt lat="45.41096" lon="4.72885">
        <ele>198.64953613281</ele>
        <time>2012-10-13T10:28:31Z</time>
      </trkpt>
      <trkpt lat="45.41098" lon="4.72886">
        <ele>198.64953613281</ele>
        <time>2012-10-13T10:28:35Z</time>
      </trkpt>
      <trkpt lat="45.41098" lon="4.72887">
        <ele>200.09167480469</ele>
        <time>2012-10-13T10:28:37Z</time>
      </trkpt>
      <trkpt lat="45.41098" lon="4.72908">
        <ele>208.26281738281</ele>
        <time>2012-10-13T10:28:43Z</time>
      </trkpt>
      <trkpt lat="45.41091" lon="4.72941">
        <ele>208.26281738281</ele>
        <time>2012-10-13T10:28:48Z</time>
      </trkpt>
      <trkpt lat="45.41089" lon="4.72955">
        <ele>207.78210449219</ele>
        <time>2012-10-13T10:28:50Z</time>
      </trkpt>
      <trkpt lat="45.41094" lon="4.72966">
        <ele>207.78210449219</ele>
        <time>2012-10-13T10:28:53Z</time>
      </trkpt>
      <trkpt lat="45.41108" lon="4.7296">
        <ele>203.45617675781</ele>
        <time>2012-10-13T10:28:56Z</time>
      </trkpt>
      <trkpt lat="45.41124" lon="4.7297">
        <ele>198.1689453125</ele>
        <time>2012-10-13T10:28:59Z</time>
      </trkpt>
      <trkpt lat="45.4115" lon="4.72993">
        <ele>191.43957519531</ele>
        <time>2012-10-13T10:29:04Z</time>
      </trkpt>
      <trkpt lat="45.41171" lon="4.7301">
        <ele>186.15246582031</ele>
        <time>2012-10-13T10:29:09Z</time>
      </trkpt>
      <trkpt lat="45.41196" lon="4.73027">
        <ele>182.78784179688</ele>
        <time>2012-10-13T10:29:13Z</time>
      </trkpt>
      <trkpt lat="45.41208" lon="4.73035">
        <ele>179.42321777344</ele>
        <time>2012-10-13T10:29:15Z</time>
      </trkpt>
      <trkpt lat="45.41218" lon="4.73062">
        <ele>174.61657714844</ele>
        <time>2012-10-13T10:29:19Z</time>
      </trkpt>
      <trkpt lat="45.41227" lon="4.73124">
        <ele>169.32946777344</ele>
        <time>2012-10-13T10:29:25Z</time>
      </trkpt>
      <trkpt lat="45.41229" lon="4.73133">
        <ele>169.32946777344</ele>
        <time>2012-10-13T10:29:26Z</time>
      </trkpt>
      <trkpt lat="45.41242" lon="4.73158">
        <ele>165.96472167969</ele>
        <time>2012-10-13T10:29:31Z</time>
      </trkpt>
      <trkpt lat="45.41255" lon="4.73157">
        <ele>165.96472167969</ele>
        <time>2012-10-13T10:29:34Z</time>
      </trkpt>
      <trkpt lat="45.41263" lon="4.73154">
        <ele>164.04211425781</ele>
        <time>2012-10-13T10:29:36Z</time>
      </trkpt>
      <trkpt lat="45.413" lon="4.73141">
        <ele>160.19689941406</ele>
        <time>2012-10-13T10:29:43Z</time>
      </trkpt>
      <trkpt lat="45.4133" lon="4.73132">
        <ele>160.67749023438</ele>
        <time>2012-10-13T10:29:49Z</time>
      </trkpt>
      <trkpt lat="45.41344" lon="4.73128">
        <ele>160.19689941406</ele>
        <time>2012-10-13T10:29:53Z</time>
      </trkpt>
      <trkpt lat="45.41346" lon="4.73128">
        <ele>160.19689941406</ele>
        <time>2012-10-13T10:29:54Z</time>
      </trkpt>
    </trkseg>
  </trk>
</gpx>